GFSSW_925_thetae_000.txt.gz
Theta_e
309 309 309 309 309 309 309 309 309 308 308 308 307 307 306 306 309 311 311 312 315 315 315 313 315 316 315 314 313 308 311 311 313 313 314 312 313 311 309 310 309 308 309 308 309
310 310 310 309 309 309 309 309 309 309 309 309 309 308 306 307 310 313 312 311 314 313 314 314 314 313 312 315 314 313 309 310 309 310 314 314 312 313 313 311 308 308 306 307 308
311 311 310 310 310 310 309 309 309 309 309 309 310 309 307 307 310 309 317 312 314 315 315 315 314 313 315 315 315 312 314 311 312 311 313 313 312 310 310 311 308 309 309 305 305
314 313 313 312 311 310 309 309 309 309 309 309 310 309 308 311 309 311 316 314 315 315 315 314 312 314 315 315 314 316 313 312 313 314 315 314 310 311 309 315 311 307 307 305 303
316 316 315 315 314 313 312 312 310 309 308 307 308 309 308 309 308 312 313 316 315 314 314 311 313 312 315 312 313 315 314 314 312 312 312 311 313 312 309 309 308 306 305 304 303
317 316 316 316 315 314 314 314 312 311 310 308 306 306 310 307 311 311 312 315 315 313 312 311 310 310 312 312 313 312 312 311 310 312 311 313 313 313 310 309 308 307 305 303 302
317 316 316 316 316 315 316 314 311 310 310 309 308 306 311 307 312 312 313 314 314 313 309 310 311 312 311 311 310 312 312 308 308 309 310 309 312 310 311 309 308 306 304 303 302
317 317 317 316 317 317 316 312 310 309 309 309 308 309 303 308 310 310 312 311 311 311 311 310 310 310 311 310 308 310 309 310 309 308 309 310 309 310 307 306 306 306 305 304 305
319 318 318 317 317 318 315 311 309 309 308 307 309 308 305 308 311 310 311 310 309 309 310 310 310 309 309 309 308 307 309 307 308 307 308 308 309 308 306 307 307 306 306 306 308
321 320 319 319 318 318 315 309 311 313 312 314 313 308 307 307 311 310 309 310 308 307 309 309 305 308 306 307 310 308 307 307 307 309 307 308 309 309 308 308 307 307 308 309 308
324 323 321 319 319 316 312 310 305 305 312 308 310 305 306 309 312 309 309 309 307 307 309 308 308 309 309 307 309 307 306 306 306 307 308 309 309 309 308 307 309 309 308 308 309
325 323 322 320 319 317 310 308 308 308 307 306 306 307 307 310 311 309 309 310 310 310 306 308 309 309 308 308 308 308 308 309 309 308 307 308 309 309 308 309 308 309 309 309 308
326 325 324 321 320 315 309 307 307 309 306 306 305 305 306 308 308 308 307 307 310 309 307 311 310 308 308 308 309 307 308 309 309 307 306 305 309 307 307 306 307 307 307 305 305
325 325 324 323 318 315 312 309 307 308 311 311 307 307 308 307 307 303 306 308 309 310 308 308 308 309 308 308 308 310 307 308 308 308 310 307 311 307 307 307 306 306 304 303 304
323 324 324 323 319 315 314 307 306 304 325 314 308 308 307 306 305 305 304 307 309 309 308 309 309 309 309 309 307 310 308 307 307 307 307 308 307 310 306 308 307 306 305 304 303
321 322 322 320 318 318 315 310 306 315 326 316 307 308 309 308 306 304 306 304 305 307 306 307 305 306 307 306 306 307 308 306 305 306 310 309 308 313 307 308 309 307 309 304 303
319 321 320 319 317 317 316 313 325 326 318 317 310 308 307 307 309 306 308 308 308 312 310 308 306 306 306 308 306 307 307 309 308 309 312 307 307 311 309 309 307 306 305 304 302
313 316 319 319 319 314 317 320 326 321 319 315 314 312 315 310 312 307 306 308 305 306 306 312 320 307 304 307 308 306 308 310 314 311 314 303 310 315 311 307 305 303 303 302 302
307 312 317 318 319 314 318 324 322 318 318 319 321 323 320 313 314 309 306 308 309 304 315 309 310 305 304 306 306 306 308 308 311 312 311 313 310 309 311 307 306 306 303 303 302
304 313 314 315 318 313 319 322 318 317 319 320 323 321 322 316 313 310 309 308 309 304 306 310 312 308 306 305 305 306 306 310 308 314 315 312 311 313 311 312 308 305 303 306 303
305 311 312 316 315 314 319 318 319 317 317 319 322 323 321 320 316 319 320 315 306 309 304 307 311 313 312 308 310 310 307 306 307 311 316 317 315 310 312 311 305 305 306 304 300
306 309 311 313 315 315 317 317 315 316 315 316 318 319 320 319 319 318 319 317 311 309 310 307 317 319 315 310 307 306 311 310 313 313 310 312 314 309 308 308 304 300 299 299 297
305 306 310 312 313 315 314 315 316 316 316 317 317 316 316 318 319 318 317 314 313 314 316 315 317 318 315 310 309 314 314 313 314 314 318 318 316 310 305 297 298 296 293 293 293
302 303 307 310 309 312 311 312 313 312 315 314 315 315 315 316 314 316 315 312 308 309 310 311 314 316 316 313 313 316 314 313 315 318 316 316 314 312 297 296 293 293 290 290 291
296 300 301 302 306 308 309 309 310 310 309 310 313 313 313 314 314 315 313 311 308 307 306 310 314 312 312 313 312 311 310 308 310 310 312 311 311 303 292 292 292 293 291 291 291
295 297 297 298 298 302 305 306 307 307 306 308 308 308 308 309 310 311 308 305 307 305 305 306 307 305 304 303 302 304 305 305 305 305 306 307 304 291 292 291 291 291 292 290 291
293 295 297 296 297 298 298 301 302 300 301 299 299 303 304 303 300 299 298 298 299 300 301 302 304 303 303 300 300 300 300 302 302 301 300 301 293 291 291 290 289 290 292 289 290

GFSSW_925_thetae_003.txt.gz
Theta_e
309 309 309 309 309 309 309 309 309 309 309 309 309 309 308 307 307 309 310 311 314 314 315 314 316 316 315 314 311 308 313 312 313 312 313 312 312 309 308 310 308 309 309 310 309
311 311 311 310 310 310 309 309 309 309 309 309 309 310 309 308 310 312 311 311 313 314 315 314 313 313 312 314 314 314 312 312 309 308 313 313 312 313 312 312 309 309 308 309 308
314 313 313 313 313 311 311 310 309 309 309 309 309 310 309 309 309 309 316 312 313 314 314 314 314 313 315 314 315 312 315 311 311 308 311 313 312 311 311 313 311 312 310 307 306
316 316 316 316 315 314 313 312 312 311 309 308 308 308 309 311 309 310 316 312 313 314 315 314 312 314 315 315 313 316 313 312 313 312 314 314 311 312 309 316 313 309 308 307 306
317 317 316 316 316 315 315 315 314 312 311 310 308 307 309 308 308 312 311 314 314 314 315 311 313 312 315 312 312 314 314 313 312 311 312 311 314 312 310 310 308 307 306 306 305
317 317 317 317 316 316 317 317 314 313 312 311 310 307 309 307 311 311 311 314 315 314 313 311 310 310 312 312 313 311 312 310 309 311 310 313 313 311 311 309 309 307 308 306 304
318 318 317 317 317 317 319 317 315 313 312 311 310 308 308 306 311 311 312 314 314 314 309 311 311 311 310 311 309 310 312 308 307 308 309 308 311 310 311 308 309 310 306 305 304
319 320 320 319 319 319 319 317 314 312 310 309 309 308 302 306 308 309 312 312 313 312 311 310 310 309 310 309 308 309 308 310 309 307 308 310 311 310 308 306 306 306 307 305 307
321 321 321 320 320 320 319 316 310 310 309 308 310 306 304 307 309 309 311 309 309 309 309 309 308 307 308 308 307 306 309 307 307 307 308 309 310 308 306 306 306 307 308 309 309
324 324 323 322 321 321 321 314 310 314 312 313 311 306 307 308 310 309 309 309 307 307 308 307 304 307 304 307 310 309 306 306 307 308 306 307 308 308 307 307 308 309 309 308 308
325 324 323 323 322 322 318 310 307 305 309 309 309 305 304 309 311 309 309 309 306 307 309 307 307 309 309 307 307 307 305 305 304 305 307 309 309 308 308 306 308 309 309 308 307
325 325 325 324 323 322 314 307 307 305 305 305 306 307 307 310 310 309 309 310 309 310 306 307 309 309 307 306 306 306 307 308 307 307 305 307 309 309 308 309 309 309 309 307 306
324 324 323 323 324 317 311 308 306 308 305 307 305 306 306 308 307 307 307 307 309 308 306 309 310 307 308 308 308 306 307 309 308 305 305 304 307 306 308 305 306 306 305 305 304
325 324 322 322 320 317 313 308 306 307 313 313 307 306 307 306 306 303 306 308 309 310 307 308 307 308 307 309 307 309 306 307 307 307 309 306 310 307 308 307 307 306 304 303 303
321 321 322 322 322 317 315 309 307 304 330 315 307 307 307 306 304 305 304 307 309 309 307 309 307 308 309 309 306 309 307 307 306 307 306 307 306 307 306 308 307 306 307 305 302
318 319 321 321 321 320 316 312 306 320 329 318 306 308 309 307 306 304 306 304 304 308 306 306 304 306 307 306 306 305 306 304 304 306 309 308 308 310 307 309 307 306 307 304 303
316 318 319 320 319 318 315 316 324 327 320 319 311 307 306 306 308 306 308 308 307 311 311 307 306 306 306 308 305 307 307 310 310 308 311 305 307 310 309 309 306 307 303 302 302
309 312 318 319 319 317 316 321 326 321 321 315 315 314 316 311 310 306 306 307 305 306 307 315 321 307 304 307 308 306 307 313 315 314 316 303 314 316 308 308 305 301 301 302 300
305 307 314 315 318 315 318 322 320 317 318 320 320 323 320 314 313 310 306 308 308 305 314 311 310 305 303 305 306 306 308 308 311 310 314 313 311 311 312 305 303 302 298 297 296
301 309 312 312 317 314 319 320 318 315 319 320 323 321 322 318 317 314 313 310 309 305 308 311 318 309 306 305 305 306 306 309 307 311 315 312 312 313 311 305 300 298 296 294 293
303 309 309 314 314 315 316 317 317 316 318 319 321 321 320 320 317 317 320 316 310 310 305 307 311 312 311 308 308 307 306 306 307 310 314 315 315 310 303 300 298 294 291 291 292
305 305 310 314 315 315 315 315 314 315 315 317 318 319 318 318 318 318 318 316 311 306 308 307 313 315 314 310 306 308 311 312 317 317 311 315 316 298 296 295 293 289 290 290 291
304 305 309 312 313 314 313 314 314 314 314 317 316 315 315 316 317 316 316 312 312 313 315 313 313 315 312 308 310 312 311 310 313 313 316 316 316 298 293 293 293 293 290 290 290
299 301 304 310 308 311 310 310 311 311 313 313 314 313 313 314 313 315 315 312 307 308 308 310 313 315 314 309 309 312 310 311 313 315 313 314 314 309 295 292 292 293 292 290 290
294 298 300 305 304 306 308 308 307 308 308 309 310 311 311 312 312 311 312 310 307 306 305 309 313 312 311 311 308 307 306 304 305 306 307 307 306 306 291 291 291 290 293 291 289
294 294 295 299 299 301 304 304 305 306 306 306 305 304 305 307 308 309 310 308 308 304 304 304 309 303 301 303 302 303 301 301 301 301 303 303 305 291 291 290 289 288 293 290 288
293 295 294 294 296 297 297 301 299 300 299 295 297 300 301 300 298 297 298 298 299 301 302 303 305 302 305 300 299 301 298 299 299 298 298 299 293 288 289 290 288 287 292 288 287

GFSSW_925_thetae_006.txt.gz
Theta_e
310 310 310 310 309 309 309 309 309 309 309 309 309 309 310 310 309 310 311 311 312 315 315 314 316 316 317 319 317 316 320 320 319 318 317 317 317 314 314 316 315 316 317 318 312
312 312 311 311 310 310 310 309 309 309 309 309 309 309 309 310 310 314 312 310 313 313 315 316 317 317 319 319 320 320 320 319 317 317 317 317 317 317 317 318 318 317 316 314 312
314 314 314 315 314 313 312 311 310 309 309 309 309 308 308 309 313 312 315 312 312 314 315 314 316 317 318 319 320 320 320 319 317 315 314 316 317 316 317 318 318 318 317 317 314
316 316 316 316 315 315 314 313 313 311 310 310 310 308 307 311 313 310 316 311 313 314 314 315 317 318 320 320 319 320 319 319 318 316 316 317 317 317 317 317 317 317 317 316 315
317 317 316 316 316 316 316 315 314 313 312 312 311 310 307 311 313 311 312 313 313 314 315 317 317 318 318 318 317 319 319 318 318 316 316 317 318 318 317 317 316 316 315 314 315
317 317 317 317 317 317 318 318 316 314 313 312 312 310 309 309 310 310 311 314 314 314 314 315 316 316 316 316 317 316 316 316 315 315 316 316 316 315 315 315 315 315 315 315 315
319 319 319 319 319 319 320 319 318 316 313 312 310 309 309 311 309 310 312 315 315 313 314 312 312 315 315 316 313 313 315 315 315 314 314 314 315 315 315 314 314 314 315 314 314
320 320 321 321 321 321 323 321 317 315 310 309 309 309 311 307 307 309 313 313 314 313 311 310 311 314 314 312 313 313 313 315 315 312 312 314 314 315 314 312 313 313 314 314 314
322 322 322 323 323 323 323 319 314 310 309 309 311 308 312 307 309 308 310 310 310 309 309 308 311 313 312 314 314 314 315 315 314 312 312 314 314 314 313 312 312 313 313 314 314
324 324 323 323 323 323 323 317 310 312 312 311 309 309 309 309 309 309 309 309 309 310 311 312 312 314 312 314 316 317 316 314 314 314 312 312 312 312 312 312 312 312 313 313 313
325 325 324 324 324 324 321 311 317 314 310 313 313 310 308 308 310 309 308 308 309 311 314 311 314 316 316 315 315 313 313 314 314 313 312 313 313 313 313 312 313 313 313 313 313
325 324 323 323 323 323 317 312 309 308 314 309 308 309 307 309 311 309 308 312 312 314 310 312 315 316 312 311 312 313 313 314 314 313 310 313 313 312 313 313 313 313 313 313 311
325 324 323 322 322 319 313 310 306 306 313 315 308 308 308 309 311 310 309 310 313 312 312 315 316 313 311 313 313 313 313 315 314 312 312 311 316 314 314 311 311 311 311 310 309
323 324 324 322 321 319 315 312 307 307 322 321 311 308 308 308 308 304 306 310 311 314 312 313 310 311 311 312 313 315 314 312 312 312 318 311 319 317 315 314 312 312 311 310 308
322 321 320 321 322 320 317 311 308 306 329 318 308 308 308 308 307 307 304 310 312 312 310 314 311 310 312 313 311 314 309 309 309 312 312 313 313 318 312 312 312 311 308 309 305
318 318 320 321 321 320 318 311 307 323 329 322 308 310 311 309 307 307 308 307 306 310 309 312 307 309 311 309 309 307 310 309 310 312 316 315 314 316 314 312 312 308 306 304 303
316 318 319 319 320 319 315 316 324 327 321 323 314 308 308 308 309 308 311 311 314 316 318 314 310 309 307 310 308 309 312 321 319 320 320 312 312 314 313 309 308 307 304 302 301
310 313 318 320 320 317 316 324 324 321 323 317 317 317 322 316 313 310 312 317 310 309 315 319 322 312 308 313 318 312 314 319 321 323 321 309 315 316 311 306 304 303 301 299 299
305 306 312 314 319 316 320 323 319 319 319 321 321 322 321 318 317 314 312 316 313 311 320 322 322 307 306 307 310 311 312 312 316 317 316 315 315 315 313 306 304 301 299 297 297
302 311 312 311 317 315 320 318 316 316 319 320 322 321 322 321 318 320 319 314 314 310 309 316 322 317 311 306 307 309 310 314 312 317 321 315 314 316 313 309 302 299 297 296 295
301 308 308 314 315 315 317 316 315 316 318 320 321 321 320 320 319 320 320 317 314 315 308 314 318 318 312 314 314 312 310 309 310 313 318 320 316 310 309 304 300 296 295 294 294
307 306 309 313 315 316 316 314 313 314 315 317 318 319 319 319 317 317 317 316 315 312 315 313 314 318 316 314 309 311 313 313 318 317 315 315 315 304 302 299 296 293 292 292 293
308 307 309 312 313 314 314 313 313 314 314 314 315 316 315 316 317 315 315 313 313 314 316 315 318 319 317 313 311 314 313 313 314 316 319 320 317 302 300 298 296 297 293 292 292
304 305 307 311 311 311 312 312 314 311 313 313 313 314 315 315 314 314 312 313 309 310 308 311 314 316 316 314 312 313 313 312 313 316 315 315 313 311 305 302 298 295 293 293 291
299 301 303 310 309 309 308 309 309 309 308 309 309 311 310 310 309 310 310 310 309 307 307 310 314 312 313 312 313 313 313 311 311 311 311 310 310 308 308 301 295 291 291 293 289
298 300 299 301 301 305 307 306 307 306 307 305 306 306 306 306 306 308 307 307 306 306 306 306 309 307 307 307 307 308 308 308 306 305 304 304 304 303 293 292 292 290 289 292 289
293 294 297 297 298 301 302 303 302 302 299 298 300 301 302 303 299 300 299 300 301 302 303 304 305 306 307 305 303 305 303 303 302 302 302 301 300 294 292 291 291 290 290 291 289

GFSSW_925_thetae_009.txt.gz
Theta_e
310 310 310 310 310 310 309 309 309 309 309 309 309 309 309 310 310 316 316 314 312 314 315 317 317 318 319 321 320 320 321 321 321 319 318 319 318 318 318 318 318 318 318 319 318
313 312 312 311 311 310 310 310 309 309 309 309 309 309 309 309 313 317 315 311 311 314 317 318 319 319 321 321 322 321 322 321 320 318 318 318 318 318 318 318 318 318 319 319 318
316 316 315 315 314 314 312 312 312 311 310 310 310 309 308 309 318 315 315 312 312 314 317 318 318 319 320 321 322 321 320 319 319 319 318 317 317 317 318 318 317 317 317 318 317
317 317 316 316 316 316 315 315 314 313 313 312 312 311 309 312 316 312 315 312 313 315 316 316 318 319 319 320 320 322 319 320 320 319 318 318 317 317 318 318 318 318 318 317 317
317 317 317 317 317 317 317 318 317 316 315 313 313 311 311 314 315 312 312 312 313 315 316 317 318 318 318 318 319 320 319 318 318 318 319 318 318 318 317 317 317 317 317 317 317
318 318 318 319 319 319 319 321 320 318 316 314 312 310 315 314 311 311 313 313 315 315 316 317 317 317 318 317 317 318 318 318 317 317 317 317 317 317 316 317 316 316 316 316 316
319 320 320 320 321 321 322 323 322 319 317 314 311 310 313 316 312 317 315 317 316 316 317 316 316 317 317 317 317 316 316 316 317 317 316 315 316 316 317 316 315 315 315 315 315
320 321 322 323 323 323 323 323 320 317 311 309 309 315 314 309 313 311 314 314 314 313 314 313 314 316 316 315 315 315 316 317 318 315 315 314 316 317 315 315 315 315 315 315 315
322 323 323 323 323 323 324 322 316 310 310 309 315 316 315 307 310 310 312 313 313 312 310 310 314 316 315 315 317 318 318 318 317 317 315 315 315 315 315 315 315 315 315 315 315
324 324 324 324 323 324 323 320 311 312 312 311 312 312 309 312 310 310 309 311 312 313 313 314 315 315 316 316 319 321 320 319 318 319 315 317 316 315 315 316 316 316 316 315 315
326 324 323 323 322 323 322 316 322 321 314 317 320 313 318 310 310 311 309 310 313 314 315 314 315 317 318 319 318 318 318 318 318 318 317 316 315 315 316 316 316 317 316 314 312
325 324 324 323 322 321 318 319 313 310 320 320 318 316 312 311 313 311 309 313 314 315 315 314 316 317 317 315 315 316 317 317 318 317 314 315 316 316 316 316 315 314 314 313 312
325 325 323 323 322 320 317 314 310 308 317 321 315 314 313 311 316 315 311 313 314 316 315 317 320 317 316 316 316 316 316 317 317 316 316 316 317 319 318 317 314 312 312 310 308
323 323 323 323 322 321 321 315 310 308 322 322 316 311 309 311 313 307 309 313 314 317 318 317 315 314 314 315 315 317 317 316 315 316 320 315 319 318 318 317 313 312 311 308 307
322 321 322 321 323 323 315 314 310 310 327 320 311 310 310 310 310 309 307 311 315 315 314 317 314 314 315 315 315 316 312 313 313 316 317 318 317 318 316 316 313 311 308 307 305
320 319 319 320 321 319 318 314 312 324 328 323 312 313 312 311 310 310 311 309 310 313 313 314 309 311 314 313 312 310 312 314 315 316 321 319 319 317 316 315 311 309 307 305 305
316 318 319 320 321 319 318 319 326 329 322 324 317 311 312 311 311 311 313 313 317 319 320 317 316 312 310 313 311 311 314 321 324 325 324 318 316 317 315 312 312 309 305 304 304
313 316 318 319 319 317 318 322 327 322 322 321 320 320 323 319 315 313 316 319 318 314 319 320 320 316 311 314 317 318 318 324 326 326 325 315 320 318 312 309 306 305 303 302 301
306 307 314 318 319 317 320 324 322 319 318 320 319 319 320 320 319 320 320 319 318 316 319 320 320 313 311 311 312 315 315 313 317 318 321 318 318 316 310 308 305 303 301 300 299
305 311 312 308 318 317 320 320 319 316 317 319 319 319 320 320 320 319 321 318 318 313 312 318 320 318 313 309 311 314 317 322 318 322 322 317 315 315 315 312 306 303 301 300 299
304 308 307 310 316 317 317 317 316 314 318 319 318 319 319 320 319 321 319 318 317 316 312 315 318 317 316 315 315 313 312 312 313 314 318 318 315 312 312 310 307 302 299 298 297
307 308 311 314 316 314 317 313 312 313 315 315 316 318 318 317 316 317 317 316 315 315 316 315 315 319 316 314 314 314 314 314 317 317 316 316 318 314 308 306 302 299 296 295 295
306 308 310 313 314 315 313 312 312 313 314 314 316 316 315 316 316 315 315 314 313 314 316 315 316 318 316 311 313 315 313 314 315 315 317 319 316 310 304 302 301 301 297 295 294
306 306 310 311 312 311 312 312 313 312 312 312 313 312 313 314 313 312 311 312 312 312 309 311 312 314 315 311 312 314 313 314 315 317 317 316 313 312 310 307 306 301 298 297 295
304 303 306 310 312 312 310 309 310 310 310 309 310 310 310 310 309 309 309 309 309 308 309 311 312 310 310 310 310 310 309 308 310 311 311 310 311 310 309 307 304 304 296 294 294
301 302 302 306 307 310 310 309 309 308 308 307 308 306 308 309 308 307 307 307 306 304 306 306 307 307 306 305 305 306 306 306 307 308 308 307 306 304 302 296 296 295 292 291 293
296 297 301 302 304 307 309 308 305 306 304 302 304 305 305 304 302 301 301 303 304 304 303 303 305 303 303 302 303 304 303 303 304 304 303 303 302 296 296 294 294 293 292 290 292

GFSSW_925_thetae_012.txt.gz
Theta_e
310 310 310 310 310 310 310 309 309 309 309 309 309 309 309 309 309 317 319 316 315 313 317 317 317 318 319 322 320 320 320 320 321 320 318 317 317 317 317 316 316 316 316 317 318
313 313 313 313 312 312 312 312 311 310 310 310 310 309 309 308 312 318 317 314 311 313 317 318 319 319 320 322 321 320 322 322 319 318 318 316 315 315 314 315 314 314 315 318 318
316 316 316 315 315 315 315 315 315 313 312 312 311 311 310 308 320 317 314 311 311 313 318 318 318 319 320 321 321 321 320 319 317 318 318 317 316 314 315 316 315 315 314 314 316
317 317 317 317 316 316 317 318 318 316 315 314 313 312 311 312 317 314 315 312 312 314 316 317 318 319 319 320 320 320 319 318 318 318 318 317 316 315 314 314 315 314 314 314 313
317 317 317 317 318 319 319 320 322 320 318 316 314 312 311 317 316 314 312 312 313 316 316 317 318 318 318 317 318 319 319 318 317 317 316 317 316 316 315 314 314 313 314 313 312
318 318 319 320 320 321 321 322 323 322 320 317 315 311 316 315 312 315 317 312 315 315 316 317 317 316 317 317 316 317 317 316 315 315 315 316 315 315 314 313 313 313 313 312 311
319 319 320 321 322 323 323 323 323 321 320 316 312 311 316 316 315 319 315 316 315 316 316 317 316 317 316 317 314 316 315 314 315 315 316 315 313 314 313 313 312 311 311 311 312
320 321 322 323 323 323 323 323 322 320 312 310 309 315 315 311 314 314 315 314 315 315 315 314 315 315 316 316 316 315 315 316 317 315 313 313 313 314 314 312 313 312 310 311 312
321 322 323 323 323 323 323 322 320 311 311 310 317 318 315 308 311 312 313 314 313 312 312 312 314 315 315 315 315 315 316 317 318 316 313 313 314 314 313 312 312 312 312 313 308
323 324 324 323 323 322 322 321 315 311 315 315 315 314 310 312 310 311 310 313 313 313 313 314 314 315 314 314 316 319 318 317 317 316 315 313 312 314 313 313 312 312 312 309 307
325 325 324 323 323 322 321 318 321 320 314 319 321 314 318 311 310 311 310 311 313 314 314 314 314 315 315 315 315 316 316 316 316 315 316 315 314 313 313 314 313 312 309 308 307
324 324 324 323 323 322 320 320 313 312 319 320 321 322 316 312 314 312 310 312 314 314 314 314 315 315 316 316 316 315 315 315 315 316 314 314 314 314 314 314 314 310 308 306 305
323 324 324 323 322 322 319 315 313 310 316 321 317 317 314 312 317 314 311 312 314 315 315 316 318 317 316 316 317 316 315 315 315 315 314 313 314 314 315 315 310 309 307 306 304
323 323 322 323 322 322 319 317 314 310 320 321 316 311 310 311 313 308 310 312 315 317 316 316 316 315 315 315 315 316 315 315 315 315 316 315 317 316 315 310 310 308 305 304 303
324 322 321 321 323 323 317 317 313 312 328 319 311 310 310 311 310 310 308 311 314 316 314 318 314 313 315 315 315 316 312 312 313 314 315 316 316 315 313 311 310 307 305 303 302
322 321 320 320 321 319 320 317 314 323 330 319 312 314 313 311 310 310 311 309 309 313 313 313 309 312 314 313 313 310 311 312 311 314 318 317 317 317 314 312 308 306 304 303 302
319 319 319 321 320 320 319 318 327 328 323 322 316 312 313 312 312 311 313 311 314 317 316 315 313 312 311 312 311 310 313 318 319 318 319 315 315 315 311 310 308 305 303 302 300
316 317 318 319 319 318 315 319 327 325 324 320 321 320 324 318 315 313 316 318 316 316 315 320 320 314 310 313 315 315 317 322 324 318 317 315 317 317 309 306 304 303 301 300 299
312 314 316 318 319 316 322 324 326 323 320 320 321 321 320 320 320 318 318 319 318 316 319 318 317 310 312 312 312 314 315 314 315 310 316 316 315 313 307 305 302 301 300 298 298
309 310 311 313 318 317 321 322 321 319 317 317 320 318 319 318 319 320 319 317 317 313 311 317 320 317 310 309 310 312 315 319 317 321 318 317 315 315 311 307 303 301 299 298 297
307 310 309 308 317 317 318 318 318 316 316 317 317 318 318 318 319 320 320 317 316 312 312 314 318 316 314 315 316 312 312 316 315 314 314 315 312 310 310 308 303 301 299 297 295
307 310 310 314 313 314 316 315 314 315 314 316 316 317 319 319 319 318 318 316 315 314 316 315 316 315 314 312 312 312 314 314 316 316 314 315 315 311 307 303 302 298 297 295 295
308 310 310 313 315 315 314 314 314 313 313 314 315 314 313 315 317 315 314 313 313 314 315 314 313 314 309 310 311 315 313 312 312 311 314 316 312 309 302 301 301 300 296 295 294
307 309 311 310 311 313 313 313 313 312 312 312 313 313 314 315 313 315 312 313 311 312 310 312 313 311 309 307 308 309 309 309 311 314 311 311 310 310 308 308 308 302 298 296 294
305 305 308 310 311 311 312 311 311 312 312 311 312 313 313 313 311 311 309 308 311 309 309 310 307 308 309 309 308 308 307 307 307 307 309 307 305 304 303 301 297 297 296 294 294
303 302 303 306 307 311 311 310 310 309 309 310 310 308 308 309 309 308 307 306 306 305 306 305 301 303 300 304 303 304 303 302 302 302 302 302 304 302 296 295 295 296 293 292 291
297 298 301 304 305 308 309 309 309 307 307 304 305 306 306 303 301 300 300 301 303 304 302 301 299 293 300 300 299 295 299 299 300 300 301 301 298 293 294 294 292 291 291 291 290

GFSSW_925_thetae_015.txt.gz
Theta_e
309 310 310 310 310 310 310 310 309 309 309 309 309 309 309 309 309 313 320 317 315 313 316 316 316 317 318 319 318 315 313 315 318 316 315 315 316 315 313 315 314 314 314 314 318
311 312 312 312 313 313 312 312 312 311 311 311 311 310 310 309 310 317 317 315 313 313 317 316 316 317 315 319 318 315 315 317 316 315 316 315 314 312 313 311 311 311 312 314 316
315 315 314 315 315 315 315 315 314 315 314 313 313 312 311 309 318 317 315 312 311 313 317 317 317 317 318 317 318 318 315 316 317 317 316 316 314 313 312 314 312 312 312 312 313
316 316 316 316 316 317 317 317 319 320 317 316 315 313 312 310 312 314 314 312 311 315 317 317 316 317 317 317 317 318 316 317 316 315 315 316 316 314 314 313 311 310 310 311 311
317 317 317 318 319 319 319 320 321 321 321 319 317 313 312 316 314 315 313 312 312 315 316 315 315 316 316 315 314 316 317 317 315 313 313 313 314 315 313 312 310 310 309 309 309
317 317 318 319 320 321 322 322 323 323 321 320 317 313 314 313 313 315 314 311 313 315 315 315 315 314 315 315 314 314 313 313 312 313 312 314 313 314 312 310 309 309 308 307 306
318 319 320 321 322 322 323 323 323 322 320 316 312 311 316 313 316 318 316 313 315 315 315 315 315 316 314 314 314 313 313 311 312 312 312 311 313 312 311 309 310 310 308 305 304
319 320 321 322 323 323 323 323 322 321 313 310 309 315 311 311 314 315 315 314 315 315 315 314 315 314 315 314 313 314 313 313 314 313 313 312 313 312 310 310 311 308 305 304 304
320 321 322 323 323 322 322 322 321 315 311 312 316 317 314 308 311 313 313 314 313 312 312 313 314 313 313 312 312 312 313 313 314 313 312 311 311 311 310 310 309 307 304 304 303
321 323 324 323 323 322 321 320 317 313 316 315 314 313 310 311 310 310 311 313 312 311 311 312 311 311 309 311 313 314 314 314 314 314 312 312 310 309 310 311 311 304 303 304 303
323 324 324 323 323 322 321 319 318 318 316 317 316 311 311 311 310 311 311 311 312 312 312 311 310 311 310 310 312 313 314 314 313 313 314 313 312 312 310 310 308 305 304 304 302
323 323 323 323 323 322 320 316 314 315 319 316 318 318 314 311 313 310 310 311 311 312 311 311 312 311 311 312 313 313 314 313 312 313 313 312 312 310 311 312 307 305 304 304 302
322 322 323 324 323 322 319 316 314 310 315 317 315 315 312 313 314 311 309 310 311 312 311 312 314 313 313 313 314 314 314 313 313 312 312 312 311 312 311 307 306 305 304 303 301
322 322 323 323 321 322 319 317 314 312 317 319 315 309 309 310 312 307 309 311 312 313 311 312 312 314 313 315 313 315 313 313 314 313 314 313 315 313 311 308 306 304 302 301 300
323 323 322 322 323 322 318 318 314 311 324 316 311 310 309 311 309 309 308 310 313 314 313 316 313 312 313 313 312 313 311 311 312 312 312 313 314 312 309 309 307 303 302 300 299
324 324 322 320 321 320 319 317 314 320 326 316 310 312 310 309 309 308 309 308 309 311 311 311 308 310 311 311 312 309 310 311 310 312 314 313 314 313 309 310 306 303 302 301 299
324 322 320 321 321 320 319 316 325 327 322 317 312 310 311 311 310 310 310 309 312 315 313 314 312 310 310 311 309 309 311 317 316 314 317 313 314 314 309 307 306 303 301 299 298
321 319 319 320 318 318 317 319 326 325 323 318 318 317 321 310 312 310 311 312 310 313 313 317 319 311 309 311 314 310 314 319 322 317 314 312 316 315 304 302 301 300 299 298 298
317 318 317 318 317 316 319 322 324 323 320 320 319 320 319 319 319 313 313 315 317 314 319 320 318 311 310 311 313 314 315 313 315 305 312 315 313 308 304 302 301 300 298 297 296
314 311 313 317 318 317 319 323 319 318 316 316 319 317 317 316 318 316 317 315 314 312 312 316 318 315 310 310 311 313 313 317 315 314 313 314 313 314 308 304 301 299 297 296 295
309 311 311 314 317 317 319 320 318 316 315 316 316 317 315 317 317 318 319 316 314 311 311 314 316 315 312 313 313 312 311 316 315 313 312 310 311 308 309 305 301 298 297 294 293
308 314 309 311 312 313 316 316 314 314 313 315 315 316 317 316 317 317 318 315 312 311 314 314 314 310 314 311 310 311 312 312 316 313 310 315 313 304 301 300 299 297 296 294 292
309 311 310 312 314 315 314 315 315 314 314 315 315 313 313 314 319 315 314 311 312 313 314 314 312 308 307 306 311 313 311 309 311 311 314 315 312 302 300 299 298 297 295 295 294
306 311 310 311 308 312 315 314 314 311 312 311 312 312 313 314 312 314 312 312 310 310 311 312 313 308 309 304 307 308 307 306 309 311 307 308 308 305 304 303 300 299 298 293 293
304 305 307 311 310 311 311 311 313 312 311 310 311 311 312 314 312 312 312 311 309 310 309 309 307 308 308 307 306 307 306 306 306 306 306 305 304 303 302 297 296 294 296 295 293
301 302 301 305 307 311 310 310 311 309 311 311 311 311 311 312 311 305 306 306 306 305 306 305 301 302 298 303 303 303 301 301 301 302 302 302 301 299 295 294 294 294 292 290 291
297 297 300 303 303 308 309 309 309 308 305 304 308 308 307 302 300 299 299 300 302 302 302 301 298 294 298 301 298 294 298 297 297 296 297 298 297 291 293 293 290 290 290 290 289

GFSSW_925_thetae_018.txt.gz
Theta_e
309 309 309 310 310 310 310 310 310 310 310 310 310 310 310 310 309 311 315 316 314 313 315 315 316 317 317 317 316 311 312 313 316 315 315 313 313 312 311 313 312 313 313 312 315
310 310 310 311 311 311 311 311 311 312 313 312 312 312 311 311 310 316 316 315 314 313 315 315 316 316 314 318 316 312 311 313 314 314 316 315 314 313 313 310 311 311 311 313 314
313 313 313 314 314 315 315 314 315 317 317 315 315 314 312 311 315 316 316 314 311 314 316 316 316 316 317 317 317 316 313 314 316 315 314 315 313 313 313 313 311 311 310 310 312
314 315 315 316 316 317 317 318 319 320 320 319 317 315 312 312 311 314 313 310 311 315 317 316 315 316 316 316 316 317 316 315 316 315 314 315 313 312 313 313 312 309 308 308 305
316 316 316 317 318 319 320 321 321 322 322 321 320 316 312 314 312 316 313 311 312 314 315 314 314 314 315 314 314 315 315 315 314 312 312 313 312 313 312 310 308 307 305 304 303
317 317 317 319 319 321 322 322 322 322 322 320 318 314 314 313 314 314 312 311 312 315 314 314 314 313 314 314 313 313 313 312 311 311 312 313 312 313 312 310 308 307 304 302 302
317 317 318 319 321 322 322 322 322 322 321 317 312 312 316 312 315 318 317 312 314 314 314 314 314 315 313 313 313 313 312 310 310 311 311 310 313 312 311 308 308 303 301 302 301
318 318 319 321 322 323 322 322 322 321 316 311 309 314 310 311 316 316 316 315 315 315 315 314 314 313 314 312 311 313 312 312 313 312 312 311 313 312 310 308 306 301 301 301 301
318 319 320 322 323 323 322 321 321 319 312 311 315 315 312 310 312 314 314 313 313 312 313 313 313 312 311 310 310 310 312 312 313 312 312 311 311 311 310 309 304 302 302 301 300
319 320 322 323 323 322 322 320 318 314 316 314 314 313 309 309 310 310 312 313 311 310 310 311 308 309 308 308 309 312 312 312 313 313 312 312 309 309 309 307 303 302 301 300 299
320 322 324 323 323 323 322 319 317 317 317 315 312 310 310 310 310 310 311 311 311 310 309 310 309 309 309 310 309 312 312 312 311 311 312 311 310 310 310 305 303 303 302 301 299
321 321 322 323 323 322 321 316 315 315 319 316 315 315 313 311 312 310 310 310 311 310 310 310 309 309 309 309 310 310 312 312 311 311 310 311 311 310 309 309 305 304 302 301 299
321 322 322 322 323 322 320 316 316 314 317 316 315 317 312 311 314 312 308 309 310 310 310 311 313 311 311 312 312 312 312 312 313 312 310 311 311 311 307 305 304 303 301 300 298
321 322 322 322 322 322 318 317 316 314 316 317 315 310 309 310 312 307 308 310 310 311 309 310 310 312 312 314 313 315 312 312 313 312 313 311 313 311 310 306 304 302 300 298 297
321 322 322 322 322 321 318 317 316 311 325 316 311 309 307 312 309 308 308 309 313 312 312 314 313 312 313 312 311 314 310 311 311 310 311 311 312 310 308 308 305 301 299 298 296
322 322 323 322 321 320 317 317 314 320 327 314 309 310 308 308 308 307 308 307 308 311 310 310 309 310 310 310 310 309 310 309 309 309 312 310 311 312 309 309 304 301 299 298 296
323 323 323 322 320 320 318 317 322 326 320 315 311 310 311 309 309 309 308 308 310 313 313 312 311 310 309 310 309 308 310 316 316 312 316 312 312 312 308 305 305 301 299 297 295
323 323 322 321 319 320 318 322 325 325 321 315 311 309 311 309 309 309 309 311 308 312 312 317 320 310 308 310 311 308 311 317 322 315 314 311 315 313 302 301 300 300 298 297 297
324 321 319 320 318 318 320 323 326 324 321 319 318 320 319 312 314 310 309 311 312 309 317 315 317 310 309 310 312 313 314 313 315 303 310 314 312 305 302 300 299 298 297 296 295
317 316 317 319 317 318 322 323 321 319 316 317 320 318 318 318 318 313 314 313 315 311 312 316 317 313 310 311 309 311 311 314 312 314 311 313 312 312 305 302 299 298 297 295 294
314 313 313 318 316 318 323 319 320 316 315 316 316 317 314 314 316 315 316 315 311 310 311 313 315 314 311 312 313 310 312 314 313 310 310 308 309 307 307 303 300 297 296 295 293
310 316 312 316 318 317 320 318 315 316 314 315 314 314 314 314 315 316 317 315 310 309 314 312 312 310 313 310 309 311 311 311 313 312 310 312 312 306 305 302 299 297 296 294 294
312 311 311 311 319 316 315 316 314 314 314 314 315 314 314 316 318 315 314 311 310 311 313 312 311 306 310 306 310 311 310 309 309 308 307 312 311 302 300 299 298 297 295 294 293
309 311 311 312 310 315 316 316 317 313 313 313 314 312 312 312 313 313 313 311 310 311 311 313 311 311 314 306 308 308 307 306 307 309 306 308 308 304 301 301 299 297 296 294 292
306 309 309 311 312 312 314 314 316 314 313 311 312 312 313 314 313 313 310 311 309 310 309 311 310 310 309 307 307 307 307 305 306 305 306 305 301 301 301 299 296 295 294 295 291
304 304 303 308 310 311 312 312 311 313 311 312 313 311 310 313 311 310 311 309 311 308 309 305 305 302 298 304 303 303 302 302 303 303 303 303 304 302 296 294 294 293 293 293 292
297 297 302 306 307 310 310 310 311 309 307 306 309 309 310 310 303 301 301 301 302 303 303 303 301 297 299 299 297 295 296 298 297 298 297 296 296 290 295 294 292 290 290 290 288

GFSSW_925_thetae_021.txt.gz
Theta_e
308 309 309 309 309 309 309 310 310 311 311 311 311 311 311 311 310 310 312 314 314 313 314 315 316 317 317 316 314 308 309 311 315 314 314 312 313 312 310 311 310 312 312 311 313
309 309 309 310 310 310 310 311 312 313 314 314 314 314 313 312 311 315 315 315 313 313 314 315 315 315 313 317 314 310 308 310 313 313 315 314 313 313 312 311 311 310 310 311 312
309 309 310 311 311 312 313 314 316 317 318 318 317 316 314 312 312 313 316 314 312 314 315 316 315 315 316 316 316 313 311 312 315 313 314 314 313 312 313 312 311 312 309 307 304
309 311 312 314 315 317 317 318 319 319 320 320 319 318 315 312 315 314 312 310 311 315 316 316 313 315 314 316 315 317 315 314 315 314 314 314 313 313 311 312 308 306 305 303 302
313 314 315 316 317 318 320 321 321 321 321 321 320 318 312 313 312 315 313 311 312 314 315 313 314 313 315 314 313 315 314 314 313 311 311 312 312 312 311 309 306 304 303 301 301
315 316 316 317 318 320 321 322 322 322 322 321 318 316 313 313 315 314 312 311 312 314 313 313 313 312 313 313 313 312 313 311 311 311 311 312 311 312 311 306 304 303 301 300 300
316 316 316 318 319 321 322 322 322 321 321 320 314 312 314 311 315 318 316 312 313 314 313 313 314 313 312 313 312 312 312 309 309 310 310 309 312 311 309 305 304 302 300 299 299
317 317 317 319 320 322 322 322 321 321 320 314 309 313 311 311 316 317 315 314 314 314 314 314 314 312 313 311 309 312 310 310 312 311 311 311 313 311 309 306 303 301 299 299 298
317 317 318 319 321 323 322 321 321 319 313 312 314 313 312 310 313 314 314 313 312 312 312 313 312 310 310 309 308 308 309 311 311 311 311 311 312 310 307 305 302 301 300 299 298
318 318 319 320 323 323 322 321 318 314 314 313 314 313 310 309 310 311 312 312 310 309 310 310 306 308 307 307 312 309 311 310 311 313 311 311 309 308 308 308 303 300 299 298 298
318 318 320 322 323 323 322 320 316 317 317 313 312 312 309 309 309 309 311 311 310 308 309 309 308 309 308 308 308 310 311 312 310 310 312 310 309 309 308 304 302 300 299 298 297
318 319 321 322 322 323 322 317 316 315 318 315 314 311 312 310 312 309 310 310 309 309 308 309 308 308 307 308 310 310 311 310 310 310 309 310 310 309 307 306 303 301 299 298 296
318 319 321 321 322 322 322 318 317 315 318 316 315 316 312 310 314 312 308 308 310 309 309 310 312 309 309 309 310 310 310 311 312 311 310 310 309 310 305 303 302 300 299 297 295
318 320 320 322 322 322 318 319 317 315 317 317 315 311 308 310 313 307 308 309 309 311 308 310 309 312 311 311 309 313 310 311 312 312 314 309 313 309 307 304 302 300 297 296 295
319 320 322 321 321 319 319 318 317 312 324 316 311 308 307 314 308 308 307 309 310 310 309 313 313 311 311 311 311 313 310 310 310 310 310 309 310 308 307 307 303 299 297 295 294
320 320 322 322 321 321 317 317 313 319 325 314 309 309 308 307 308 306 308 307 308 311 309 311 308 309 311 309 310 308 309 309 308 308 311 310 310 310 309 309 303 300 298 296 294
320 320 323 322 321 321 317 315 322 326 319 315 310 308 308 307 308 308 308 308 309 311 312 311 311 310 308 310 308 308 310 314 315 312 315 309 310 310 308 304 303 301 297 295 294
320 321 323 323 321 321 315 321 325 323 321 312 309 309 311 308 308 308 306 309 306 310 310 315 319 309 307 309 310 307 310 315 317 315 313 310 314 313 302 300 300 299 297 295 293
321 321 322 321 322 318 321 325 326 323 319 316 316 312 312 312 310 308 308 309 309 307 318 315 317 309 307 309 310 310 311 310 314 299 308 313 311 304 301 300 298 297 296 295 294
321 321 322 321 321 316 324 326 323 320 317 316 316 316 316 317 314 309 308 310 313 307 310 315 318 311 309 308 308 310 309 313 310 314 312 314 311 312 304 302 299 298 297 295 294
320 319 316 319 315 320 326 324 320 318 315 318 318 318 316 316 314 311 315 313 311 309 309 312 314 313 311 311 311 311 313 313 311 310 312 309 310 305 305 301 300 299 297 295 293
314 323 313 315 320 321 325 320 318 318 315 315 314 316 315 312 314 314 315 314 309 308 313 311 312 310 312 309 307 309 311 312 316 313 309 310 313 303 305 301 299 298 296 294 293
315 312 311 313 324 319 316 318 317 315 316 316 316 314 313 313 316 313 313 312 308 310 312 312 311 307 314 309 309 311 309 309 309 308 308 312 311 302 300 300 299 298 295 294 294
310 313 311 311 311 318 318 318 318 314 314 314 315 312 314 315 314 315 313 311 309 311 311 313 312 314 317 311 308 310 307 306 308 309 313 312 310 304 303 301 300 297 296 294 293
306 310 309 312 313 315 317 317 318 316 314 313 313 314 314 315 312 314 311 311 308 309 309 312 312 309 309 305 307 307 307 305 306 305 307 306 304 302 301 301 299 298 297 295 295
305 306 305 308 312 313 315 315 317 316 314 316 317 314 313 316 314 313 312 310 310 307 308 304 306 305 305 306 307 310 308 306 307 308 306 306 305 302 298 296 294 293 292 293 293
297 298 304 305 309 313 313 314 314 313 309 309 312 313 313 313 310 303 304 305 307 307 306 306 302 304 312 300 302 304 299 301 302 301 301 303 301 290 294 293 292 291 290 290 288

GFSSW_925_thetae_024.txt.gz
Theta_e
308 309 309 309 309 310 310 310 310 311 312 313 313 313 313 313 313 312 311 313 314 313 313 314 316 316 316 314 311 307 307 309 314 311 314 312 313 311 309 310 309 309 311 308 309
308 308 309 310 310 311 311 311 312 313 316 317 317 316 315 314 313 313 314 315 313 313 314 314 314 314 312 315 312 307 305 308 311 312 314 313 313 312 312 310 311 310 309 307 307
308 308 309 310 311 312 313 314 315 316 318 319 319 318 316 313 312 311 315 314 312 314 314 316 315 314 314 315 315 312 309 311 314 312 313 313 313 311 312 312 311 311 306 302 303
309 309 310 311 311 313 316 317 318 319 319 320 320 319 317 313 318 313 312 311 312 315 315 315 312 314 312 314 314 316 314 312 315 313 313 314 312 313 311 311 307 302 302 301 300
309 310 311 313 314 316 318 320 321 321 321 321 320 318 314 312 313 315 313 310 312 315 314 313 314 312 313 313 312 316 314 312 312 311 311 311 311 312 310 308 302 302 301 299 299
310 313 315 315 316 318 320 321 321 321 321 321 320 315 312 314 314 315 312 311 312 314 313 313 312 311 312 312 312 311 311 310 309 310 310 311 310 311 308 302 302 301 299 298 298
313 315 316 316 317 319 321 321 321 321 321 320 317 313 312 313 314 317 314 312 312 313 312 313 313 313 312 312 310 310 312 308 309 309 310 308 312 310 307 304 302 300 298 298 297
315 315 316 316 318 320 321 322 321 321 320 317 311 313 312 312 314 318 315 313 313 314 313 313 313 311 312 310 307 311 308 310 310 310 310 310 313 311 305 305 302 300 297 297 297
315 316 316 317 318 321 322 322 321 319 315 313 313 311 312 310 314 315 314 313 312 312 312 312 311 309 309 308 308 306 311 309 310 310 310 310 312 310 305 304 302 300 298 298 296
316 317 317 318 319 322 322 322 320 315 314 313 314 313 310 309 309 312 312 312 309 309 310 309 305 308 306 307 314 311 309 309 310 311 310 310 309 307 307 306 302 299 297 297 296
317 317 317 318 321 322 323 321 315 315 316 314 312 313 309 309 309 309 311 310 308 307 309 308 308 309 309 307 309 308 309 311 310 309 311 310 309 309 308 302 300 298 298 296 295
318 317 318 319 320 322 322 317 315 315 318 315 314 309 310 309 310 308 310 310 308 309 308 308 309 308 307 308 308 309 310 309 308 308 310 309 309 307 307 305 302 299 297 296 294
318 318 318 319 322 321 321 320 316 315 318 316 314 315 314 310 313 310 308 308 308 308 307 308 311 307 308 307 308 308 309 309 310 310 309 309 309 308 304 303 300 299 297 295 294
318 318 318 320 321 321 320 322 318 315 318 317 315 312 309 310 315 307 307 308 309 310 307 308 308 311 308 309 307 309 307 309 310 312 315 309 313 309 306 304 301 298 296 294 293
319 318 318 321 321 319 320 319 317 313 323 315 313 308 307 314 309 308 307 308 309 309 309 314 310 310 311 311 308 311 309 309 310 310 309 309 310 308 305 306 302 299 296 294 293
318 318 319 321 321 320 317 317 313 320 324 316 309 308 310 307 307 306 308 306 307 310 309 310 308 308 310 308 309 306 308 308 306 307 310 310 310 309 307 308 303 299 296 295 293
319 318 319 321 321 321 315 314 322 325 317 314 311 307 309 307 308 307 308 308 310 314 313 311 311 309 307 309 307 307 309 314 315 312 315 308 308 310 307 304 303 301 297 294 293
319 319 320 321 321 321 314 320 325 322 320 310 309 307 310 307 307 307 307 310 307 309 309 313 317 310 307 311 310 307 310 315 317 314 314 308 313 312 302 299 298 299 296 294 292
320 319 319 320 322 321 319 326 325 321 319 311 310 310 309 309 308 308 306 307 307 306 316 314 317 308 306 307 309 308 310 309 312 296 307 313 311 304 301 300 298 296 295 294 292
319 319 319 320 322 316 322 326 322 319 316 312 317 312 311 313 310 307 307 307 310 306 310 313 318 310 308 308 307 309 307 312 309 313 314 314 312 314 306 303 298 297 296 294 293
320 322 321 321 320 319 325 325 324 318 316 315 316 315 312 314 311 308 310 310 309 308 309 311 315 313 309 309 310 311 312 311 310 311 315 310 313 304 305 301 299 298 297 295 294
320 325 319 320 322 322 323 321 320 320 316 315 315 316 316 314 312 311 313 313 308 308 311 311 311 310 312 308 307 308 310 311 315 313 307 311 315 302 303 300 299 298 297 295 293
318 316 316 320 326 324 321 323 320 319 319 316 316 316 313 314 319 313 312 311 307 310 312 311 312 308 311 310 308 310 308 308 308 307 309 316 314 302 301 299 299 298 296 295 294
312 315 312 312 317 324 323 321 321 315 317 316 316 314 315 316 314 315 312 310 308 310 311 312 310 311 316 311 309 311 308 307 310 315 316 314 313 305 303 302 299 297 296 294 293
308 311 310 316 318 319 322 320 321 319 315 315 315 317 319 319 316 316 312 310 309 309 309 313 312 310 310 308 306 308 308 306 308 310 314 313 310 305 305 302 299 297 296 295 294
307 308 306 309 312 316 320 320 320 319 316 316 317 316 317 319 317 315 312 312 312 307 309 306 314 308 306 307 306 307 307 304 307 307 306 306 306 303 301 297 297 297 296 294 293
298 299 306 307 310 315 316 318 318 316 311 313 315 315 317 316 311 305 307 308 309 309 309 307 305 303 313 300 303 309 306 307 306 304 307 309 307 293 296 296 295 293 291 291 291

GFSSW_925_thetae_027.txt.gz
Theta_e
308 308 309 309 309 310 310 310 311 312 314 315 316 316 316 315 314 313 310 313 314 314 313 314 315 315 316 313 309 305 307 310 312 311 313 311 313 310 308 310 309 308 308 304 305
308 309 309 310 310 310 312 312 313 314 316 318 318 318 317 316 315 313 314 314 313 313 313 313 313 313 312 314 311 307 306 308 309 309 312 312 312 311 311 310 311 310 306 304 304
308 309 310 311 311 312 313 315 317 317 317 318 319 319 318 314 312 312 315 313 312 314 314 315 314 312 313 314 313 310 308 308 313 311 312 313 312 311 312 311 310 311 306 302 301
308 308 309 310 312 315 316 318 319 319 319 319 320 319 318 314 318 313 312 312 312 314 315 314 312 312 310 313 313 314 313 311 314 312 312 313 311 312 311 311 305 302 301 300 300
308 308 308 310 313 316 317 319 320 320 319 320 320 319 316 312 313 315 313 310 313 315 314 312 313 312 311 312 312 315 313 312 312 310 311 310 312 312 310 303 301 301 300 299 298
309 308 309 311 314 316 318 320 320 320 320 320 320 317 312 315 314 314 312 311 312 314 313 312 311 311 311 311 312 310 311 309 309 310 309 311 310 309 306 301 301 300 299 298 297
310 310 312 314 315 317 319 320 321 320 320 320 319 314 311 314 315 315 313 311 312 313 311 312 312 312 310 311 309 309 312 308 309 308 309 308 309 309 305 302 301 300 298 297 296
313 314 314 315 316 317 319 321 321 321 319 317 312 313 313 312 313 317 314 312 313 313 313 313 313 309 310 308 307 310 307 312 311 309 309 309 314 309 303 304 303 300 298 297 296
313 314 315 315 316 318 320 321 321 320 316 314 314 311 313 311 315 315 314 312 312 311 311 312 310 308 308 308 309 307 313 309 310 309 309 310 313 309 304 304 302 300 299 298 296
313 314 315 316 317 319 321 322 321 318 315 313 314 313 310 309 309 312 312 312 310 309 310 308 305 307 305 309 314 312 310 308 310 310 309 310 309 307 305 304 302 299 298 297 296
315 315 316 317 318 320 321 322 316 314 315 314 313 313 308 308 309 309 310 309 307 306 310 307 309 311 309 308 310 308 309 310 309 309 311 310 308 309 305 302 301 299 298 297 295
315 316 317 317 318 320 320 318 316 315 318 314 314 309 309 308 308 307 310 309 308 308 307 307 309 308 307 307 308 307 309 309 307 307 309 309 309 309 307 304 302 300 298 296 295
316 316 317 318 319 321 320 321 316 315 318 317 313 314 313 308 310 307 308 307 307 307 306 308 310 305 307 307 309 308 308 308 310 309 308 309 310 309 305 302 300 299 297 295 294
316 317 318 318 320 320 320 320 321 315 318 317 315 315 309 309 314 307 307 308 308 308 306 307 307 309 307 308 306 309 306 307 309 311 314 309 317 310 306 304 301 298 296 294 293
316 317 318 318 320 320 320 321 322 313 322 315 313 308 307 315 309 308 306 308 309 310 310 315 309 309 311 310 307 311 306 307 309 310 310 310 311 310 306 307 303 299 296 294 293
317 318 318 318 319 320 319 318 313 319 323 316 308 308 311 308 307 306 307 306 306 308 309 311 307 307 309 307 307 305 307 307 305 307 311 310 312 311 308 307 303 299 296 295 293
319 318 319 319 320 321 315 312 321 324 316 314 311 307 312 307 307 308 308 308 311 314 314 311 310 308 306 307 306 307 309 314 315 313 316 307 308 310 307 304 303 301 297 294 293
319 319 319 318 320 320 313 318 325 321 318 309 308 307 312 308 308 307 308 310 307 309 310 314 316 310 307 308 309 306 310 315 317 315 315 307 312 312 303 300 298 299 297 294 292
319 319 318 318 319 320 318 325 322 320 317 310 309 310 309 308 308 307 308 309 310 306 314 312 314 307 306 306 308 308 310 309 310 296 309 313 311 308 301 301 298 297 296 295 293
318 319 319 318 320 317 321 324 321 318 312 310 318 312 312 309 309 307 306 306 308 306 309 312 317 309 307 307 307 308 307 312 309 312 312 313 313 315 306 304 299 297 296 295 293
319 321 319 319 319 321 324 322 321 318 313 313 316 315 311 311 309 307 308 308 306 306 308 310 315 312 308 308 310 310 310 310 310 311 314 311 313 305 307 304 301 299 297 296 294
320 325 319 319 322 322 325 318 319 321 316 317 315 315 313 312 310 309 309 308 306 307 310 311 312 311 311 307 306 308 309 310 314 312 307 310 315 303 303 301 300 299 297 296 295
321 321 319 319 325 324 321 321 319 320 321 320 319 315 314 314 316 310 308 309 307 309 310 311 312 312 313 311 307 309 307 308 308 307 309 313 312 301 300 300 299 299 296 296 295
313 318 314 320 321 323 322 322 322 319 320 318 317 314 314 316 315 315 312 310 307 309 312 312 311 314 321 314 310 310 308 307 310 309 311 314 313 304 303 302 299 298 297 295 295
310 313 311 320 319 323 322 321 322 322 319 319 317 318 319 321 318 318 313 310 309 310 311 313 315 309 310 308 309 310 310 307 310 311 315 314 312 307 305 302 300 297 296 295 294
308 308 307 309 311 318 321 324 322 322 318 319 321 319 320 323 321 320 316 312 313 307 310 309 317 309 309 307 306 308 306 307 309 309 309 310 309 304 303 299 298 298 296 295 294
299 301 307 310 311 314 317 319 322 321 315 317 318 320 320 320 313 307 312 310 311 311 311 312 309 313 319 302 307 313 309 306 307 304 309 308 309 299 301 300 298 296 295 295 293

GFSSW_925_thetae_030.txt.gz
Theta_e
308 308 308 309 309 309 310 310 311 312 313 316 317 317 317 316 315 314 312 313 313 314 313 314 315 315 317 318 314 312 316 318 319 318 318 316 316 314 313 315 315 313 313 308 306
308 308 308 309 309 310 310 311 313 313 315 317 318 318 318 317 315 315 314 314 313 313 313 315 316 316 318 319 318 316 316 315 317 316 317 316 316 316 315 316 315 314 309 307 307
309 308 309 309 309 310 312 314 316 316 317 318 319 319 318 315 316 313 314 314 312 313 313 315 315 315 317 318 318 316 315 313 315 315 316 317 316 315 316 317 316 316 311 307 307
309 308 308 309 310 311 314 316 318 319 319 319 319 319 318 314 321 313 312 312 313 314 315 315 316 316 316 316 318 317 315 315 316 316 315 317 316 317 316 316 310 309 307 306 306
309 309 308 309 311 313 315 317 319 319 319 319 319 319 315 317 318 315 312 310 314 314 314 315 315 316 315 316 317 318 317 315 315 314 315 314 316 316 315 309 307 306 306 306 305
310 309 309 309 311 315 316 318 319 320 319 319 319 318 315 320 314 314 312 311 313 314 313 314 315 315 315 315 316 315 315 315 314 314 313 314 314 313 312 308 308 307 306 305 303
311 311 311 311 312 314 317 318 320 320 320 319 318 315 315 319 315 315 312 311 312 313 314 312 313 315 315 315 312 313 316 316 315 312 314 313 314 314 310 308 308 306 305 303 302
312 312 312 313 314 315 317 319 320 320 320 317 314 313 319 313 313 316 313 312 312 312 312 312 312 314 315 311 313 315 314 319 315 313 312 313 320 314 309 309 310 307 306 304 301
314 313 313 314 315 316 317 319 321 321 318 316 315 313 319 311 316 316 313 313 311 311 311 312 312 314 313 316 316 315 320 318 317 312 313 314 319 313 309 310 311 309 307 304 302
316 313 313 315 315 316 318 321 321 319 316 314 314 316 312 312 311 313 313 311 312 312 314 314 314 315 314 316 321 321 318 316 318 314 313 315 316 313 310 310 312 310 306 304 302
316 313 314 315 316 317 319 321 319 318 316 319 318 317 311 308 309 310 310 310 311 314 316 312 316 317 318 316 316 316 317 318 315 312 314 316 316 317 313 310 311 309 306 304 301
315 314 315 316 317 318 319 322 318 315 321 317 316 312 308 309 310 310 310 313 313 316 312 314 317 317 313 313 313 313 316 317 314 311 312 314 314 315 313 312 311 310 306 303 300
315 314 315 316 317 319 320 321 317 315 322 320 317 317 313 309 312 312 310 310 312 312 313 317 315 311 312 312 313 314 316 316 315 312 312 313 317 317 313 308 306 306 305 302 301
315 315 315 317 318 318 319 318 319 315 323 321 318 318 310 311 314 307 309 311 310 314 312 313 311 311 311 313 313 316 313 313 313 314 320 314 323 320 315 311 307 304 303 302 300
316 315 316 317 319 319 319 319 320 314 327 319 315 309 309 317 312 309 306 310 313 311 312 317 311 312 314 314 311 317 310 312 312 315 315 316 319 320 311 313 310 305 303 301 300
316 316 316 317 319 319 319 320 317 322 327 319 311 311 315 310 309 307 309 308 309 311 311 315 309 311 314 309 310 309 311 311 312 314 320 319 320 320 317 315 311 307 303 301 299
317 317 316 318 319 320 319 314 324 327 318 317 315 312 315 311 310 310 311 312 317 319 320 314 314 309 308 311 308 311 316 321 322 320 323 311 316 319 316 310 309 307 303 300 298
318 317 317 318 319 319 313 320 327 323 321 311 310 312 318 312 311 309 312 315 313 314 318 322 323 313 310 315 315 313 317 324 328 324 322 310 317 318 308 304 303 304 303 300 298
319 318 318 318 318 318 317 326 325 322 321 313 310 315 317 311 313 311 313 316 316 312 321 319 320 310 307 308 313 312 314 314 315 308 320 319 315 313 306 305 303 303 302 300 299
318 318 318 318 318 315 320 325 323 320 318 314 320 317 319 314 314 313 313 313 314 312 312 316 320 310 308 309 309 312 312 316 315 325 326 319 318 320 312 310 305 303 303 301 299
318 320 318 318 318 318 322 323 322 318 314 317 319 320 317 314 315 314 315 311 313 311 312 314 317 314 309 312 315 312 313 313 314 317 325 324 320 314 316 311 308 306 303 302 300
319 324 319 318 321 321 322 321 318 321 316 318 317 320 316 314 314 314 315 316 309 309 312 314 316 319 314 309 307 313 315 314 320 319 315 317 320 306 308 309 308 307 304 302 301
320 321 319 318 323 322 320 321 320 320 321 321 320 317 316 316 318 314 314 311 309 311 314 314 318 324 320 313 309 311 311 313 315 314 323 324 320 305 304 305 305 307 304 302 301
318 322 319 320 320 321 321 321 322 319 319 320 321 320 318 318 315 319 315 312 310 311 312 314 317 320 325 322 317 315 312 312 314 321 320 319 317 309 308 307 306 304 304 302 300
311 315 313 322 323 322 320 321 322 322 319 320 321 322 323 323 321 320 317 312 310 310 312 314 319 317 318 315 315 316 315 312 314 316 320 318 316 313 310 308 308 306 304 302 301
307 308 308 310 313 323 322 322 321 322 320 320 322 321 321 322 323 324 322 320 317 310 312 312 320 318 317 314 312 314 314 313 313 315 316 315 316 313 310 308 305 303 302 302 301
300 302 307 311 311 315 322 322 320 320 320 320 320 320 321 321 320 318 316 317 316 314 312 314 318 316 322 314 310 315 313 313 313 313 314 315 315 308 307 305 306 304 302 302 301

GFSSW_925_thetae_033.txt.gz
Theta_e
308 308 309 309 309 309 310 310 311 312 314 315 317 318 318 317 316 317 316 316 316 314 313 316 317 318 319 320 318 317 318 319 319 319 320 318 318 317 317 317 317 316 316 312 311
308 308 308 309 309 310 311 311 312 313 315 317 318 319 318 317 318 317 315 314 313 313 315 316 317 317 318 320 320 319 318 318 319 319 319 319 318 318 317 317 317 315 312 311 311
309 308 308 309 309 310 311 312 313 314 315 318 318 319 318 316 320 317 314 314 312 313 315 316 316 317 317 319 319 318 318 316 317 318 319 319 318 318 318 318 318 318 315 312 312
310 310 309 309 309 310 311 312 314 315 316 318 318 318 318 317 321 316 313 313 313 314 316 317 317 316 317 318 319 318 316 316 318 318 318 319 319 318 318 318 315 314 313 312 311
310 309 309 309 310 311 312 314 315 317 317 318 319 319 317 320 321 314 311 311 314 315 317 316 315 316 316 317 318 318 318 318 318 317 317 317 318 318 318 314 312 310 311 311 310
310 310 309 309 310 311 313 315 317 318 319 319 319 318 318 322 315 315 313 311 315 315 315 315 315 316 316 317 317 318 317 317 317 317 316 316 317 316 317 313 312 311 311 309 308
313 312 311 310 311 313 314 316 318 319 319 319 317 316 319 321 317 315 312 313 313 314 315 315 316 316 317 317 316 316 317 317 317 317 316 315 317 315 317 312 313 312 311 308 306
317 314 313 312 312 314 315 316 318 320 319 318 315 316 321 315 318 316 314 313 312 313 314 314 315 316 317 315 316 317 317 320 319 315 314 315 321 319 313 313 313 312 311 309 305
316 316 314 314 314 315 316 317 319 320 319 318 317 317 321 312 316 317 315 315 313 313 312 313 316 317 316 317 319 319 321 322 321 316 316 316 321 316 313 314 314 313 312 309 306
316 316 314 314 315 315 316 317 319 320 318 315 315 318 316 316 314 314 313 314 314 314 315 316 317 317 318 319 322 323 322 321 321 318 315 318 318 316 313 313 315 315 312 310 307
315 315 314 314 315 316 316 321 320 322 319 320 321 320 315 309 311 314 312 313 315 316 318 317 318 320 320 319 320 320 320 321 321 316 315 319 319 319 316 314 314 315 313 310 307
315 314 315 314 315 317 319 320 320 316 322 320 320 318 312 311 313 313 311 315 316 318 318 316 318 319 319 318 319 318 319 320 321 316 314 317 318 318 318 316 315 316 314 311 306
316 315 314 315 316 317 319 320 318 316 322 320 320 320 315 311 315 315 313 315 316 318 317 319 319 315 316 316 317 318 319 320 320 316 314 316 318 319 318 317 316 313 314 311 307
316 315 314 315 317 318 318 319 318 315 321 319 320 321 314 314 316 312 313 314 313 317 317 318 317 315 316 317 317 320 319 317 317 317 322 317 324 322 321 317 314 312 311 309 306
316 315 314 315 317 318 317 317 320 318 322 320 319 312 313 318 315 310 310 311 316 314 315 318 314 314 316 317 316 319 315 317 317 318 320 321 321 322 322 321 316 312 310 308 305
316 315 315 315 319 318 319 318 320 323 322 321 315 316 316 317 313 309 310 311 313 314 313 317 312 314 316 312 314 314 316 315 316 319 324 322 323 324 322 317 318 312 309 307 304
317 315 315 316 317 319 319 319 324 323 319 319 318 316 319 317 314 313 312 313 317 318 320 318 317 314 312 315 311 315 319 326 325 324 326 316 322 323 319 313 314 312 308 306 303
319 316 316 316 318 319 318 323 324 319 319 317 317 316 321 316 316 314 314 316 315 319 323 325 326 319 313 319 319 316 320 327 331 329 326 312 319 320 316 311 308 311 308 305 302
319 316 316 316 318 318 320 322 320 317 317 318 316 319 320 316 317 314 316 319 319 317 323 324 325 316 313 314 318 316 319 319 321 314 322 321 318 317 310 308 307 309 307 304 302
317 317 317 317 317 316 321 321 319 318 318 320 319 320 323 319 317 317 319 318 320 317 318 322 324 315 312 310 312 315 316 318 318 330 329 323 322 322 314 312 308 307 306 304 302
317 319 318 317 317 318 321 318 319 318 319 320 321 321 320 321 318 317 321 319 318 317 316 319 320 316 311 314 317 313 315 316 318 321 328 327 324 319 319 315 311 308 307 305 303
317 323 318 318 319 320 320 321 317 319 320 319 319 320 321 320 318 318 320 320 314 314 316 318 320 325 318 313 313 315 317 316 321 321 319 321 324 311 317 316 312 309 308 306 304
317 320 319 318 323 321 319 320 318 320 321 320 320 320 320 320 318 319 320 318 314 315 317 316 320 327 325 316 311 312 314 315 316 318 324 326 324 310 309 312 311 311 307 306 304
316 321 320 320 320 321 320 321 320 319 320 321 321 320 321 322 318 321 321 315 314 314 315 315 320 325 328 325 319 316 314 314 316 320 321 322 322 311 310 310 309 310 308 306 305
313 315 312 323 322 321 319 320 321 321 320 319 321 321 323 322 322 320 320 315 312 311 313 315 322 322 322 322 321 319 317 315 315 316 321 321 320 320 312 311 310 309 308 306 304
307 309 309 311 312 321 320 320 321 321 320 321 321 321 321 323 324 324 320 320 318 312 312 313 319 319 321 320 320 321 319 318 315 315 316 318 320 318 312 311 311 309 308 307 305
302 305 308 307 311 314 320 321 321 320 319 320 320 320 321 321 321 321 319 318 320 317 312 314 316 319 323 320 320 317 318 317 318 315 316 318 317 313 314 311 310 309 307 306 305

GFSSW_925_thetae_036.txt.gz
Theta_e
308 308 308 309 309 309 310 310 311 313 314 316 317 318 318 317 317 320 319 317 315 313 313 316 317 318 318 319 318 318 318 319 319 320 319 317 317 317 317 316 315 314 313 312 312
309 308 309 309 309 310 311 311 312 313 315 317 318 318 318 318 318 319 316 313 313 313 316 316 317 317 318 319 320 318 320 319 317 317 319 317 317 316 317 316 315 313 311 312 313
311 310 309 309 310 310 311 312 313 313 315 317 318 318 318 317 322 318 313 314 312 312 315 316 317 316 317 318 319 319 318 315 316 318 317 317 317 318 317 317 317 315 311 312 312
311 311 310 309 309 310 311 312 313 314 315 317 318 318 318 318 322 317 313 313 312 313 316 317 317 316 317 318 318 318 316 316 318 317 318 318 318 318 316 315 313 311 311 311 310
313 313 311 310 309 310 311 313 314 314 315 317 318 318 318 321 321 315 311 311 313 315 317 317 315 316 316 317 318 318 317 317 318 317 317 317 318 317 316 311 310 310 311 309 308
315 313 313 312 311 311 312 313 313 316 316 318 318 317 320 322 317 315 313 311 316 316 315 315 315 315 316 316 317 317 317 317 317 317 317 316 316 316 316 310 309 310 309 307 307
318 314 313 313 313 313 313 313 314 316 317 318 317 316 320 321 319 315 313 313 314 315 316 315 316 316 317 317 316 316 316 316 315 316 316 315 315 315 314 311 310 310 308 307 306
317 317 314 313 314 314 315 314 314 317 318 318 317 317 320 316 319 316 314 313 313 313 315 315 315 317 317 315 316 316 317 318 317 316 313 315 318 316 312 311 311 310 307 306 305
316 316 316 313 314 314 315 314 315 317 318 319 319 318 321 314 317 317 315 315 313 313 313 314 316 317 315 315 317 317 318 319 318 315 314 314 319 314 312 311 311 309 308 307 304
315 315 315 315 314 314 315 314 317 317 319 317 316 318 315 316 315 316 315 314 315 315 315 315 316 316 316 316 319 321 319 320 320 315 315 315 314 314 311 311 311 310 308 307 305
317 315 314 315 314 315 315 321 322 321 320 320 320 320 315 311 313 314 313 314 315 316 317 316 316 318 317 317 318 318 318 319 319 314 316 316 316 316 312 311 311 310 309 307 306
318 316 314 315 314 315 317 320 319 316 321 320 319 319 313 312 313 315 313 315 316 317 317 316 317 318 318 319 319 318 318 317 318 314 315 315 315 315 315 312 311 311 310 308 303
320 317 315 315 314 316 318 318 320 316 321 317 321 321 315 312 315 315 312 315 316 317 317 318 319 317 317 318 318 318 318 317 319 316 314 313 314 315 315 315 312 311 311 309 303
321 317 315 314 316 316 317 316 319 316 319 315 322 321 313 314 316 314 313 314 315 317 317 317 317 316 317 318 317 318 317 317 318 317 318 314 319 319 318 317 315 311 309 306 303
322 318 316 314 316 317 316 315 319 319 316 318 319 314 314 317 314 311 311 312 315 314 317 318 315 314 317 317 316 318 315 317 318 318 319 318 319 319 318 318 316 310 308 306 303
321 320 316 314 316 316 317 316 321 322 320 321 315 317 315 316 313 309 310 310 312 315 314 315 313 314 315 311 314 314 316 316 316 318 321 320 321 320 320 319 317 311 308 305 302
321 320 316 315 314 317 319 320 321 321 314 316 318 317 318 318 315 313 312 312 315 316 316 314 315 314 313 313 312 315 318 323 322 319 322 316 320 321 317 314 315 312 308 305 302
319 320 317 315 314 318 319 317 318 315 312 318 318 317 320 318 317 314 313 313 312 315 318 319 321 315 312 317 316 314 318 323 327 326 323 311 317 318 312 309 308 309 307 304 301
318 317 316 315 315 317 319 316 316 316 315 314 317 319 320 318 317 315 315 316 315 313 318 322 323 316 313 314 316 315 317 318 319 309 315 319 315 315 309 308 308 307 305 303 301
316 317 316 316 316 316 321 316 316 315 316 314 316 318 322 319 317 315 316 316 317 314 315 321 324 316 310 311 312 315 314 317 316 318 321 322 320 319 312 310 306 307 305 303 301
315 318 317 316 316 318 316 314 316 316 315 316 316 316 317 321 317 316 319 318 317 316 314 318 320 315 311 312 315 313 314 316 317 318 322 322 321 317 315 312 308 307 305 303 301
315 321 317 316 320 319 320 318 315 316 318 318 317 317 319 317 318 318 318 319 316 316 317 317 320 316 314 312 312 314 315 315 318 319 317 317 322 313 314 312 308 307 306 303 301
315 316 317 317 323 321 318 317 317 317 317 319 320 318 317 320 320 318 318 316 316 316 317 317 319 323 322 314 311 312 313 315 316 315 320 319 321 308 308 310 308 306 305 304 301
314 318 316 319 319 321 318 318 319 317 318 318 319 319 319 320 319 320 318 317 314 315 316 317 320 322 326 322 317 314 312 314 315 317 317 319 319 311 309 309 308 307 305 304 302
313 315 313 319 320 320 319 318 319 320 317 318 320 319 321 322 321 321 318 315 312 314 315 316 320 319 320 319 318 314 314 313 314 315 318 318 317 316 312 308 308 307 305 304 303
308 309 309 312 312 315 321 320 320 319 319 319 320 320 320 321 320 321 320 317 315 311 312 313 318 318 319 318 318 320 320 314 313 314 315 316 316 315 312 308 306 307 306 305 303
303 304 308 311 313 314 311 315 320 319 319 318 318 320 321 321 320 319 318 317 317 313 311 313 315 317 322 317 317 321 320 320 318 313 314 315 316 313 313 308 307 306 306 305 303

GFSSW_925_thetae_039.txt.gz
Theta_e
309 309 309 309 309 309 310 310 311 312 314 315 316 317 318 317 317 319 318 315 314 312 313 315 317 317 317 317 316 313 311 313 315 316 316 313 315 315 314 313 312 310 310 311 313
310 309 310 310 310 310 310 311 312 313 314 315 317 317 318 317 318 319 316 313 313 312 316 315 314 315 313 317 316 312 312 316 315 314 315 314 314 314 315 313 312 309 309 311 313
311 310 309 309 310 310 310 311 311 312 314 315 317 318 318 317 321 317 313 313 312 312 315 316 316 315 315 316 316 315 313 313 315 317 315 315 316 315 315 314 312 311 309 310 310
309 309 311 310 310 310 311 311 312 312 313 315 317 317 317 318 321 316 312 312 312 313 316 316 315 314 314 316 316 314 314 315 317 316 316 316 316 316 315 314 310 307 308 308 307
311 311 310 310 311 311 310 311 311 312 313 316 317 317 318 319 319 315 311 311 313 316 316 315 313 313 314 315 316 316 315 316 315 315 315 316 316 316 313 308 308 308 308 306 306
314 313 312 310 310 310 311 310 311 312 314 316 317 317 320 319 317 315 312 312 315 315 315 314 314 313 314 315 314 315 314 315 315 316 315 315 314 315 312 306 307 307 305 304 306
315 314 313 313 312 311 310 310 310 312 315 317 317 316 318 317 319 315 312 312 314 315 314 314 315 314 315 315 314 315 314 313 313 314 314 314 313 313 310 306 307 306 304 303 305
314 316 316 314 313 312 311 309 309 313 315 317 317 317 316 316 319 317 314 312 312 313 315 314 315 315 315 314 314 314 314 315 315 312 313 313 314 316 308 307 307 305 303 303 303
316 314 316 315 313 313 313 310 309 312 315 317 318 317 316 314 317 316 314 313 313 313 313 314 315 314 313 312 312 314 314 315 316 313 312 313 314 313 309 309 307 305 303 303 302
318 316 314 315 314 313 314 312 312 313 318 317 316 315 313 314 316 316 315 314 314 313 313 314 312 312 312 311 315 316 316 316 317 314 313 312 311 311 310 309 308 305 304 303 302
320 317 316 314 315 314 313 319 319 318 318 312 315 315 312 312 314 314 314 314 313 314 313 313 312 314 313 312 313 315 316 317 315 314 314 312 312 312 310 308 307 306 305 304 302
322 318 317 315 314 314 315 319 317 315 317 318 317 316 312 312 312 314 313 313 314 314 313 314 314 313 314 313 314 314 315 315 314 313 312 313 313 312 312 309 309 309 307 306 300
323 320 317 315 314 314 316 317 319 316 317 317 318 318 312 312 313 313 311 312 314 314 314 315 316 315 315 316 316 316 316 315 316 314 313 312 312 312 311 311 309 309 309 307 302
322 321 317 315 314 314 315 312 319 316 311 312 317 319 311 311 314 313 312 312 313 315 314 314 315 316 315 316 315 316 315 315 316 316 316 313 318 315 315 314 311 310 306 307 301
321 322 318 314 315 315 315 312 319 317 307 310 319 314 310 315 313 312 309 311 313 313 315 315 315 314 315 316 314 315 315 316 315 315 317 316 316 316 315 316 316 312 308 305 301
317 320 320 315 315 316 316 316 319 320 317 317 314 315 314 314 311 309 310 309 311 313 313 313 312 312 313 311 313 311 314 314 314 315 318 316 317 317 318 317 316 311 305 303 300
315 318 319 316 315 317 318 318 315 319 309 315 316 315 316 316 312 311 311 311 314 315 314 313 313 313 311 312 312 314 315 319 320 317 322 315 317 319 316 313 313 312 306 302 300
313 316 318 317 315 317 318 311 316 313 312 316 316 316 317 316 314 312 311 313 311 312 313 317 317 313 311 313 314 313 315 319 323 321 319 312 316 317 314 310 308 309 307 301 299
311 315 317 316 315 317 313 313 317 315 313 314 316 318 318 317 314 313 311 312 312 311 316 316 316 312 311 314 314 313 316 317 318 302 312 316 314 312 309 308 308 306 304 302 300
309 316 317 317 315 316 319 314 313 315 313 313 316 316 319 317 316 314 313 313 315 312 313 317 322 313 309 312 311 314 312 318 315 316 317 318 317 320 313 311 306 306 305 302 300
309 316 317 317 315 317 320 314 313 312 314 314 314 314 317 317 315 314 315 314 313 312 312 315 319 314 310 312 315 313 314 315 317 316 319 318 319 313 315 312 308 306 305 303 300
310 317 316 316 319 318 320 316 313 313 313 316 316 318 314 316 317 314 315 315 312 312 313 314 318 311 313 310 310 314 314 313 318 318 314 315 321 311 313 310 307 306 305 303 301
310 313 315 316 321 320 318 315 315 315 315 317 318 318 318 318 318 316 315 313 313 313 314 315 318 319 318 313 310 312 312 315 315 311 317 317 321 308 309 311 306 304 303 302 300
308 313 313 316 318 319 319 318 317 313 316 316 318 317 319 319 317 320 316 314 313 314 315 316 318 321 323 320 313 313 313 314 316 317 317 319 319 314 311 310 307 304 304 301 300
307 310 312 316 314 316 318 318 318 318 315 316 317 317 319 322 321 320 319 315 313 314 315 317 320 318 319 318 315 313 313 313 315 316 317 318 317 316 314 309 308 305 303 302 301
306 308 309 311 310 315 314 311 319 317 317 318 318 318 318 319 321 321 318 317 315 311 315 314 319 318 320 317 317 318 314 313 314 314 314 316 316 313 312 311 306 306 304 303 302
304 304 306 308 310 313 313 312 314 318 317 317 317 317 318 319 317 318 316 317 315 313 312 314 316 317 323 317 317 320 319 320 315 314 314 316 315 312 313 312 307 305 305 304 303

GFSSW_925_thetae_042.txt.gz
Theta_e
310 309 309 308 309 309 310 310 311 312 314 315 316 317 317 317 317 318 316 314 313 311 313 315 316 316 317 315 314 308 308 311 315 313 315 313 314 314 312 311 310 308 309 310 318
309 309 309 309 309 309 310 310 311 312 313 315 316 317 317 317 319 317 316 313 312 312 315 315 314 313 312 315 313 310 309 314 314 313 313 312 313 313 313 311 310 309 308 311 316
309 308 308 308 308 309 309 309 310 311 312 314 316 317 317 317 319 315 312 313 312 313 314 315 315 313 314 314 314 312 311 312 314 316 313 313 314 313 310 312 310 309 308 308 311
309 309 309 308 308 308 308 309 310 311 312 314 315 316 317 318 319 316 312 312 312 313 315 315 313 312 312 315 315 312 313 314 315 314 315 314 314 314 312 313 311 307 307 307 306
311 310 309 309 309 308 308 308 309 310 311 314 316 316 318 316 318 315 311 312 313 316 315 313 312 312 312 314 314 314 314 314 315 314 314 315 315 314 313 309 306 306 307 305 305
314 312 311 309 309 309 309 308 308 309 312 314 316 316 319 316 318 316 311 313 314 315 314 313 313 312 313 314 312 314 314 314 314 314 314 314 314 314 312 306 306 306 305 304 304
315 314 312 312 310 309 309 309 308 308 310 314 316 316 317 315 318 315 312 312 314 314 313 314 314 313 313 314 313 313 312 311 312 313 314 312 313 312 309 305 306 305 304 303 304
317 314 314 312 312 311 309 309 308 308 310 314 316 317 314 316 318 316 313 313 312 314 314 314 314 313 314 313 312 313 312 314 313 311 312 312 313 313 306 306 306 304 302 302 302
320 317 315 314 313 312 311 309 309 309 310 313 317 317 314 314 318 317 313 312 313 313 313 314 314 312 311 310 311 311 314 313 313 311 312 311 314 312 305 306 306 304 302 302 301
322 320 317 315 315 314 312 309 310 311 316 316 316 312 311 314 316 315 314 313 312 311 311 312 309 311 309 310 314 314 313 313 315 314 312 312 310 310 308 307 307 304 302 302 301
323 322 318 316 314 314 312 314 313 312 317 307 311 309 312 313 315 315 314 313 312 311 312 312 311 312 312 309 312 313 313 316 314 314 313 311 311 311 308 307 306 304 303 303 302
324 324 319 317 315 314 314 316 315 315 315 314 315 314 312 313 312 313 313 313 313 314 312 312 313 312 311 311 312 313 314 313 312 313 311 312 311 310 310 309 308 308 305 305 301
322 322 319 317 315 314 314 314 318 315 314 312 315 316 312 311 313 313 311 311 313 313 313 314 315 313 314 314 314 314 313 314 315 313 312 311 311 311 311 309 308 307 308 306 304
319 321 320 315 314 314 314 311 318 316 306 307 315 316 310 311 314 313 312 311 312 314 313 313 313 314 314 315 314 315 313 314 315 315 315 312 317 313 312 311 310 310 307 307 303
315 318 320 316 316 315 316 312 318 313 308 308 317 313 310 313 311 311 310 310 313 313 313 315 314 314 315 315 313 315 313 314 314 313 315 314 314 313 313 313 313 314 309 305 303
311 315 318 316 315 315 315 314 318 315 311 311 315 314 314 313 310 309 311 309 310 312 312 313 311 312 314 311 312 311 313 313 312 313 317 315 315 315 315 316 314 312 309 305 302
307 311 316 316 316 316 316 313 313 317 312 312 316 314 316 314 311 311 311 311 313 315 315 313 313 312 310 313 312 313 313 316 319 316 320 314 315 317 314 313 313 314 310 303 300
306 307 314 316 316 316 316 313 315 315 314 314 315 314 317 315 314 311 311 314 311 312 313 316 316 312 310 313 314 313 313 316 319 319 317 312 317 317 312 312 309 307 306 301 298
305 307 312 315 316 316 314 314 320 315 313 313 315 317 317 316 314 312 310 312 312 310 315 314 315 311 310 312 313 312 316 314 317 299 311 316 314 313 310 309 308 306 305 300 298
305 306 311 315 316 316 315 317 314 313 313 314 318 317 318 316 315 313 311 311 313 311 311 314 317 311 310 311 311 312 311 316 313 316 316 318 316 319 314 312 310 308 305 301 298
307 309 311 314 316 317 317 314 314 311 312 314 316 318 317 317 315 314 315 313 312 311 312 314 318 313 311 312 314 313 314 315 315 314 317 315 318 311 315 312 311 309 305 302 299
306 310 311 316 317 317 320 316 312 311 312 314 314 314 315 316 316 314 315 313 310 310 312 312 317 314 313 310 309 312 314 314 317 316 313 315 321 310 311 311 309 308 305 302 300
306 306 309 315 317 317 318 318 318 314 313 314 317 315 315 316 319 315 313 311 311 311 312 313 316 315 316 312 309 311 312 315 313 310 318 317 321 307 308 310 308 308 305 301 299
304 306 306 312 313 316 315 318 318 315 314 313 315 316 317 318 317 317 315 313 311 312 313 314 317 317 320 318 312 312 311 312 316 318 318 318 319 313 311 311 310 306 303 300 299
302 306 304 311 310 314 313 316 316 318 315 314 315 316 317 320 319 320 318 314 312 312 314 315 320 318 318 316 313 313 314 314 315 316 318 319 318 317 314 310 308 307 303 300 299
301 303 304 306 308 312 311 314 310 317 317 316 316 316 317 318 319 320 318 317 317 312 315 314 320 318 319 317 314 316 312 313 314 315 316 316 317 314 311 310 308 306 304 302 301
299 301 305 305 306 308 310 313 313 312 311 315 316 316 317 317 316 316 316 316 317 317 316 315 319 320 323 318 316 320 319 314 313 314 314 316 316 311 312 311 310 307 304 304 303

GFSSW_925_thetae_045.txt.gz
Theta_e
308 308 308 308 309 309 309 310 311 312 313 314 315 316 317 317 317 318 315 314 312 311 312 315 315 314 315 313 311 306 307 310 311 310 314 312 313 312 309 310 309 308 309 310 323
308 308 308 308 308 309 309 310 310 311 312 313 315 316 316 317 319 316 315 313 312 312 314 314 313 312 310 314 310 308 307 312 311 310 313 312 312 311 312 311 310 309 308 312 319
310 309 308 308 308 308 308 309 309 310 311 313 314 315 316 317 317 315 312 312 312 313 314 315 314 312 314 313 313 308 310 310 313 314 312 311 312 311 309 311 309 309 308 310 312
313 312 310 309 308 308 308 308 308 309 311 312 314 315 317 318 315 315 311 312 311 312 315 314 311 311 312 314 313 311 312 312 314 313 312 313 311 312 309 311 309 307 307 307 309
314 313 311 311 309 309 308 308 308 308 310 312 314 315 317 314 317 314 311 311 313 315 314 311 311 311 312 314 313 312 313 313 314 313 313 314 314 312 312 310 306 305 306 305 307
314 313 313 311 310 309 309 308 308 308 309 311 313 315 317 314 317 316 311 313 314 314 313 312 312 311 312 313 312 313 313 313 313 313 313 314 313 313 312 306 305 305 305 304 305
317 312 310 312 311 310 309 309 308 308 309 311 314 315 315 313 317 315 311 313 314 314 312 313 313 313 312 314 312 312 312 310 310 313 313 312 312 311 310 306 306 305 304 303 304
322 318 315 311 310 311 309 309 309 308 308 311 314 316 311 315 317 315 313 312 313 314 314 313 314 311 313 311 309 312 310 313 312 311 312 311 311 310 306 306 306 304 303 302 302
319 320 319 318 313 311 311 309 309 309 309 310 315 316 310 314 317 317 313 312 312 312 312 314 313 310 309 309 311 309 313 312 312 310 311 311 312 311 306 305 306 304 302 302 301
322 319 319 318 320 311 311 310 310 310 314 314 315 309 310 313 315 315 313 312 311 310 310 310 307 310 306 309 313 313 313 311 313 313 311 312 310 309 308 305 306 304 302 301 302
324 322 319 318 317 315 311 313 308 308 315 305 309 306 311 313 315 314 313 312 311 309 311 310 310 312 311 309 311 311 312 313 313 313 313 311 310 310 308 306 305 305 303 303 303
322 323 321 318 317 315 312 313 310 313 310 312 313 312 312 313 313 312 312 313 312 313 311 311 312 311 310 311 311 312 314 312 311 311 311 311 311 310 308 307 307 307 306 305 304
320 321 321 318 316 315 314 312 317 315 310 309 313 314 312 311 312 312 310 310 312 312 311 313 314 311 312 312 313 312 312 312 314 312 310 310 311 310 310 308 307 306 308 308 306
316 319 320 317 314 315 314 315 316 315 306 306 311 314 310 311 314 312 311 311 311 313 312 312 312 313 313 313 312 314 311 312 313 314 315 311 316 312 311 311 308 309 308 307 305
310 316 317 318 316 315 316 315 317 310 323 311 314 312 309 311 310 312 309 311 312 312 312 313 313 313 314 314 312 314 311 312 313 313 314 313 313 314 312 313 312 312 310 307 304
307 309 316 317 315 316 315 315 315 317 321 309 315 313 313 312 310 308 311 309 310 312 312 311 310 312 313 311 312 310 312 311 311 312 316 315 314 314 313 314 313 311 310 308 304
306 306 310 316 316 316 314 314 315 319 314 314 316 313 314 313 311 311 311 311 312 314 314 312 312 311 310 313 311 312 313 316 316 315 318 312 313 316 312 311 312 313 310 307 303
305 305 307 311 316 316 314 313 317 316 315 313 314 314 316 313 312 310 311 313 310 311 311 314 313 312 309 313 314 312 313 316 317 316 314 312 316 316 310 310 309 308 308 306 301
303 305 307 308 315 316 315 317 319 316 313 315 315 317 316 315 314 311 311 312 312 310 313 314 314 310 309 311 313 312 314 313 315 299 311 314 313 311 310 309 308 308 306 304 301
303 305 306 310 312 316 316 319 318 313 312 315 320 318 318 315 315 311 310 310 312 310 311 313 314 311 310 311 310 311 311 315 312 313 313 315 315 317 316 313 311 309 308 304 299
302 308 306 307 314 316 320 314 314 311 312 314 317 317 316 316 315 312 314 312 310 310 311 313 314 312 310 311 312 312 313 313 313 312 316 314 317 310 315 312 312 310 309 305 300
301 307 307 311 312 314 315 317 311 311 312 313 313 315 315 315 315 314 315 313 309 309 312 311 315 312 312 310 308 310 313 313 314 314 312 313 318 310 310 310 309 309 308 305 300
299 301 304 311 312 311 312 313 315 313 314 313 315 313 312 317 319 315 313 310 309 310 312 313 315 309 314 312 308 311 311 313 312 310 317 315 319 306 308 309 307 308 307 304 300
298 301 302 304 308 310 310 312 314 315 315 314 314 314 315 315 316 315 314 312 310 310 312 313 316 314 318 316 312 312 311 312 314 315 317 317 318 315 312 308 309 307 306 304 299
298 299 301 307 304 307 310 313 312 314 316 315 315 315 317 318 316 316 314 313 312 311 313 316 319 317 317 316 312 312 312 312 314 315 317 318 317 317 314 310 308 309 307 303 300
299 297 299 302 303 307 305 310 311 312 313 316 316 315 315 318 317 318 316 315 316 312 313 314 319 317 318 317 316 315 312 312 313 315 315 316 317 314 312 310 308 308 306 304 302
297 298 299 299 300 304 306 308 307 308 311 312 314 316 316 315 314 315 314 316 316 317 314 316 317 317 322 317 317 318 317 316 313 313 314 316 316 311 314 312 312 311 305 305 304

GFSSW_925_thetae_048.txt.gz
Theta_e
309 309 308 308 308 309 309 310 311 311 312 313 314 315 316 316 317 317 313 314 312 311 312 315 314 314 314 311 308 304 307 309 310 310 312 310 312 308 308 309 309 308 310 310 324
310 308 308 308 308 309 309 309 310 310 311 312 313 314 315 316 318 316 314 313 312 311 314 313 312 312 309 312 308 305 306 310 308 307 313 310 311 309 311 310 310 309 307 311 325
311 310 308 308 308 308 308 308 309 309 310 311 313 314 315 317 315 314 311 312 312 312 314 314 313 311 312 311 311 307 307 309 312 313 311 310 311 309 309 311 308 309 308 312 316
313 310 310 309 308 308 308 308 308 309 310 311 312 314 316 317 311 315 311 311 311 312 314 313 309 311 311 313 312 311 310 310 313 312 310 311 309 311 308 310 309 306 307 310 310
312 312 311 309 309 308 308 308 308 308 309 310 312 313 317 313 315 314 311 311 313 314 313 310 310 310 311 313 312 311 311 312 313 312 312 312 312 311 310 307 307 305 308 309 310
311 311 310 310 309 309 309 309 308 308 308 310 311 313 316 312 316 315 311 313 314 313 312 311 311 310 310 311 310 312 313 312 312 313 312 314 313 313 311 306 307 305 305 307 308
317 315 312 310 310 309 309 309 309 308 308 309 311 314 313 311 316 314 311 313 313 313 312 312 312 312 311 312 311 311 312 310 309 312 313 311 311 311 309 307 308 305 303 303 304
319 317 316 315 311 310 309 309 309 309 308 309 311 314 307 314 317 314 312 312 313 313 313 313 313 310 311 309 308 311 309 312 311 311 311 310 310 308 306 306 307 304 302 302 303
321 320 318 317 316 316 309 309 309 309 309 309 312 314 307 313 316 317 313 312 312 312 313 313 311 308 308 309 310 308 312 312 311 309 311 309 311 310 306 305 306 304 303 302 301
323 322 320 318 317 316 311 309 309 309 312 313 314 307 309 312 315 314 312 312 310 309 309 309 306 309 305 309 311 312 312 311 312 312 310 311 308 308 307 306 305 304 303 302 302
323 323 322 320 317 316 312 311 305 305 314 305 307 305 310 313 314 313 312 312 310 308 311 309 310 311 310 308 310 309 311 312 311 311 312 310 309 309 308 305 305 304 303 303 303
321 322 323 321 318 316 314 309 307 312 310 310 310 310 312 313 314 312 312 312 311 311 310 310 311 310 310 309 311 312 313 312 310 310 311 310 311 310 308 306 306 308 306 305 304
317 321 322 320 316 316 316 311 315 314 308 307 312 312 311 311 312 312 310 310 311 311 310 311 313 310 310 311 312 311 311 311 313 311 309 309 310 309 309 307 306 305 307 307 306
311 316 320 317 315 316 316 317 315 313 309 309 308 312 310 310 313 310 311 310 311 313 310 311 311 312 311 312 311 313 310 311 312 313 314 310 314 310 310 310 308 309 306 306 306
307 312 316 317 316 315 316 317 316 310 326 313 311 311 308 309 309 311 309 310 311 312 312 312 312 312 313 312 311 313 310 311 312 312 312 312 313 313 311 312 311 312 309 306 306
307 307 313 316 315 316 316 314 314 319 326 313 313 313 312 311 309 308 310 308 308 311 312 310 309 310 312 311 311 309 311 310 310 311 315 312 313 312 311 312 311 311 310 308 305
306 306 307 311 316 316 315 312 316 321 317 317 315 312 313 312 311 311 311 311 311 314 313 312 311 310 310 312 310 311 313 315 313 313 317 310 312 315 311 310 309 310 309 307 305
303 304 305 306 316 316 312 314 319 314 318 313 313 313 314 312 311 310 311 312 310 310 309 312 310 310 309 312 313 311 313 314 313 313 312 310 315 314 310 308 307 306 306 305 304
302 302 304 306 308 315 315 318 320 316 316 316 316 317 316 314 312 311 310 311 311 308 311 311 312 310 309 310 312 311 314 312 313 297 310 311 310 309 309 309 308 307 306 306 303
300 302 304 306 308 315 317 319 317 313 312 314 319 317 316 314 314 311 310 310 312 309 309 311 313 310 310 310 310 311 310 314 311 314 312 312 312 314 313 312 310 308 308 307 304
298 302 304 305 311 313 317 317 315 311 313 315 316 317 315 315 314 311 313 310 309 309 311 311 313 311 310 311 312 312 313 312 312 311 313 312 314 308 311 310 310 310 308 307 305
299 302 304 307 309 311 312 312 311 311 311 314 313 315 315 313 314 312 313 311 308 308 311 310 313 311 311 309 307 309 311 311 313 312 310 311 316 309 309 310 308 308 307 307 303
297 298 299 307 308 309 308 310 310 313 313 314 315 313 313 316 318 314 311 310 308 310 312 312 315 311 314 312 308 310 310 311 310 309 314 313 317 307 308 308 307 307 306 305 303
297 298 298 304 305 308 308 308 310 310 312 314 315 314 313 316 316 317 314 310 308 310 312 314 316 317 320 316 311 312 310 311 314 316 316 315 315 313 312 312 309 307 305 304 303
298 297 297 303 298 300 307 310 309 309 311 312 314 315 317 318 317 317 314 313 310 310 312 316 318 315 316 313 311 312 312 311 314 314 315 316 315 315 313 312 311 308 306 305 303
299 296 296 297 299 303 303 301 307 310 310 311 314 313 314 317 316 316 315 313 315 310 312 314 318 317 317 316 314 316 311 312 312 313 314 314 315 314 313 310 308 307 307 308 305
298 297 299 298 298 299 299 304 304 303 304 309 310 311 315 314 313 314 313 313 314 315 312 316 316 317 321 316 316 320 317 317 315 314 314 315 315 314 314 313 312 311 307 307 306

GFSSW_925_thetae_051.txt.gz
Theta_e
312 308 308 308 309 309 309 310 310 311 311 312 313 314 314 315 316 317 312 313 312 311 312 314 313 313 313 309 306 303 310 311 311 311 313 307 310 306 307 309 309 308 310 312 322
313 311 309 308 308 308 309 309 309 310 310 311 312 313 314 316 317 315 313 313 312 311 313 312 311 311 309 310 307 305 308 310 308 307 311 309 310 308 310 310 310 309 307 309 324
313 312 309 308 308 308 308 308 308 309 310 310 312 313 314 317 314 313 311 312 311 312 313 313 311 310 311 310 309 306 307 308 310 310 310 310 310 307 309 311 310 310 309 312 320
312 313 312 310 308 308 307 307 307 308 309 310 311 313 316 317 309 314 311 311 311 312 313 312 309 310 310 311 310 311 309 309 311 311 310 309 308 309 308 311 309 307 307 312 317
311 311 311 310 309 308 308 308 308 308 308 309 310 312 316 312 314 314 311 311 313 313 312 309 310 309 310 311 310 310 310 311 312 311 311 310 311 310 308 306 307 305 308 312 316
314 312 311 310 309 309 308 308 308 308 308 308 309 311 314 310 316 315 311 313 313 312 311 310 309 308 309 310 309 311 311 311 311 312 311 312 312 312 311 306 307 306 307 310 313
318 317 315 311 309 310 309 309 309 308 308 308 309 312 311 309 316 314 311 312 313 312 311 311 310 310 309 311 310 309 312 310 309 311 312 311 311 311 309 307 308 306 305 305 309
321 320 318 317 314 310 309 309 309 309 308 308 309 312 306 313 316 313 312 312 313 312 312 312 312 308 310 307 308 310 308 312 310 310 310 310 311 309 306 307 309 307 304 303 304
322 321 320 320 319 318 314 308 309 309 309 309 311 311 307 313 316 316 312 312 312 312 312 312 309 307 308 309 310 308 310 311 311 309 310 309 311 309 307 306 307 305 305 303 303
324 323 321 320 320 321 320 308 309 309 311 312 312 306 308 311 314 314 312 311 309 308 309 308 306 308 305 309 309 310 312 311 311 311 310 310 309 308 306 307 307 306 305 304 304
322 323 323 321 320 321 322 310 303 303 312 305 306 306 308 312 313 312 311 310 309 307 310 308 310 312 309 309 308 308 310 311 309 310 311 310 309 309 309 306 306 307 306 306 305
320 322 322 321 320 319 321 309 307 310 309 308 308 309 311 313 314 312 311 312 310 311 309 309 311 309 308 307 310 310 312 311 309 309 310 310 311 310 308 310 309 310 309 307 307
315 319 321 321 319 318 319 315 315 313 307 306 310 311 309 311 312 312 309 309 310 309 309 310 311 307 310 309 310 310 310 311 312 310 308 308 310 310 309 307 306 306 308 308 308
309 315 319 319 317 316 317 318 315 312 310 311 308 310 309 309 312 309 310 310 310 311 308 310 310 310 310 311 310 312 308 310 312 313 313 309 313 310 310 309 308 309 307 307 308
307 310 317 317 316 316 317 318 315 312 328 313 310 310 308 308 308 311 309 310 310 311 310 311 310 311 312 311 309 311 308 309 311 311 312 311 313 312 310 311 310 310 310 309 305
307 306 311 315 315 316 316 315 313 322 326 314 311 312 312 310 309 308 310 307 308 311 311 309 308 309 311 310 310 308 310 309 308 310 315 311 312 309 310 311 311 310 309 307 305
304 305 306 310 316 316 315 313 317 320 318 317 314 312 312 311 311 311 311 310 310 313 312 311 311 310 309 311 309 310 312 313 311 313 316 309 312 313 310 309 308 310 309 306 305
302 303 303 305 314 315 311 315 320 315 319 313 313 312 313 311 310 310 310 312 310 308 308 312 310 310 308 311 312 310 311 312 311 310 309 309 314 313 309 308 306 305 305 304 305
300 300 301 304 308 315 314 317 319 314 314 316 315 316 314 314 311 311 310 311 310 307 310 309 310 308 308 310 310 311 313 310 310 296 309 310 308 307 307 307 307 309 306 306 305
298 300 300 302 306 313 316 316 317 314 313 315 321 317 317 315 313 310 310 309 311 308 308 309 311 309 309 310 309 310 309 314 310 312 311 311 310 313 312 312 310 308 308 306 305
298 298 300 303 309 311 316 315 313 312 312 315 316 318 315 315 313 311 312 309 308 309 310 309 311 310 309 310 311 312 312 311 311 311 312 310 312 306 310 309 309 308 307 307 306
298 298 302 307 309 309 310 310 312 312 311 313 313 316 315 314 315 313 312 310 307 308 311 310 311 310 310 308 307 308 311 310 313 311 309 310 315 308 309 310 309 308 307 306 305
295 296 298 306 305 306 306 308 309 312 313 313 315 313 314 315 317 313 312 309 307 310 311 311 314 310 313 311 307 310 308 309 309 308 312 314 316 306 307 309 307 308 307 305 304
298 298 296 301 302 304 304 305 307 307 308 311 314 313 315 316 315 316 313 310 307 309 311 312 316 316 319 314 310 311 309 310 313 315 315 312 314 312 311 311 308 307 306 306 304
299 298 297 297 298 300 305 307 306 306 308 309 310 314 315 316 317 317 315 313 310 309 311 313 317 317 317 315 310 311 311 310 313 314 315 315 314 313 312 310 310 309 307 306 307
299 298 296 296 298 297 298 300 305 307 309 308 309 309 310 314 314 314 314 314 315 310 310 312 317 314 316 315 315 314 310 310 311 312 313 313 313 313 310 309 307 308 307 307 306
298 297 298 297 296 297 297 301 301 299 300 301 303 303 306 310 311 311 312 312 313 315 314 314 314 317 320 315 314 317 316 315 314 311 312 313 313 312 313 312 312 310 306 308 307

GFSSW_925_thetae_054.txt.gz
Theta_e
316 314 309 309 309 309 309 310 310 310 311 312 312 313 314 315 317 316 313 313 312 311 311 313 313 313 314 315 312 312 320 320 319 318 319 314 316 311 312 316 317 317 316 318 327
311 312 311 309 309 308 309 309 309 309 310 311 312 313 313 316 317 315 313 313 312 311 313 313 315 314 316 315 314 317 319 319 316 316 317 315 315 315 315 315 317 315 313 313 326
310 309 310 309 308 308 308 308 308 308 309 310 311 312 314 317 315 314 311 312 312 312 313 312 312 314 316 315 315 313 316 313 314 314 314 315 314 314 315 316 317 317 316 314 326
310 308 308 308 308 308 307 307 307 307 308 309 310 312 315 317 313 313 310 311 311 312 313 311 313 315 316 315 313 315 312 314 315 315 314 315 314 314 315 317 314 315 315 315 324
310 309 308 308 308 308 308 308 308 308 308 308 309 311 315 316 316 312 311 311 312 313 312 312 314 314 315 316 314 314 314 313 314 313 313 312 314 315 314 316 312 311 312 316 320
311 309 309 309 309 309 308 308 308 308 308 308 309 311 314 313 316 314 311 313 313 312 311 312 313 313 314 314 314 314 314 314 314 314 314 315 315 314 317 315 313 312 314 315 317
317 313 310 310 309 309 309 309 309 308 308 308 309 311 312 311 316 313 311 312 313 312 313 311 311 314 314 315 313 312 315 315 314 314 315 314 316 315 316 312 314 314 315 314 315
320 320 319 317 313 311 309 309 309 309 308 308 309 311 309 313 315 312 312 312 312 312 312 311 312 313 314 312 314 315 316 317 314 313 314 314 317 316 312 313 315 316 316 315 314
320 320 321 321 320 319 317 311 308 309 309 309 310 311 309 313 316 313 311 312 311 311 311 311 311 313 313 317 317 316 316 317 316 313 314 315 318 316 312 312 315 315 315 314 314
322 322 320 321 321 321 321 314 308 308 310 311 311 309 308 312 314 314 312 311 311 311 313 314 314 316 315 317 314 317 316 315 316 314 313 316 316 316 316 312 315 316 316 315 314
322 323 322 322 321 321 322 309 307 307 311 308 308 308 310 312 313 312 311 310 311 313 316 312 316 317 316 316 312 314 315 315 314 313 315 317 317 317 317 316 315 316 317 317 316
320 321 322 322 322 321 320 310 308 312 313 308 309 309 310 313 315 313 310 314 314 315 312 314 316 316 313 312 314 314 316 316 315 312 314 316 317 316 316 316 317 317 317 317 317
314 319 320 321 321 320 320 313 314 313 310 309 311 311 310 313 314 315 311 312 314 313 314 315 314 312 313 312 314 315 316 316 315 313 313 314 316 317 316 314 315 315 316 316 317
308 315 320 320 318 318 319 318 314 310 317 316 310 312 310 312 313 309 310 313 312 315 313 314 312 312 313 314 314 316 314 313 314 316 316 313 314 316 316 316 315 316 317 317 316
307 312 317 318 316 317 317 318 314 314 331 315 311 310 309 311 311 312 309 312 315 314 314 315 314 313 315 315 313 315 312 313 314 317 317 316 316 316 313 315 316 317 317 317 317
305 307 313 315 315 316 317 315 314 324 329 317 312 313 313 311 311 310 311 310 311 313 312 312 310 313 315 311 312 312 314 315 315 317 319 316 316 315 315 315 315 315 316 316 315
303 305 307 312 316 315 314 314 320 321 318 319 315 313 313 312 312 313 313 314 314 314 315 313 313 311 311 314 312 314 317 316 318 321 318 313 316 315 315 315 314 315 316 315 312
299 302 304 307 313 315 312 317 322 320 319 315 314 313 315 313 312 312 314 315 313 311 312 314 314 314 312 315 316 315 316 316 320 317 315 312 317 317 315 314 313 313 314 313 312
298 299 300 305 308 313 315 318 320 318 317 317 316 316 316 314 313 313 314 314 314 312 312 313 313 310 309 311 314 314 316 315 315 309 316 313 314 314 313 312 312 313 313 314 314
298 299 298 303 306 313 316 316 316 315 316 316 321 319 321 317 314 313 313 313 313 312 312 311 312 310 310 311 311 313 313 316 315 325 320 314 315 316 317 317 316 314 314 314 313
297 301 299 299 307 312 316 316 314 313 314 317 319 320 319 318 316 314 315 312 311 312 312 313 313 312 311 313 314 313 314 314 315 316 321 318 315 315 316 316 315 315 313 313 313
299 300 301 307 310 311 312 312 313 313 313 315 315 317 318 318 318 319 319 315 310 311 313 313 314 315 313 310 308 311 314 315 317 318 315 316 318 311 314 315 314 314 313 312 311
300 299 298 306 306 310 308 309 310 313 314 315 315 315 316 317 318 317 317 312 309 312 315 314 316 321 319 313 310 312 312 314 314 314 322 322 319 313 312 313 313 314 313 312 311
300 300 300 302 306 304 304 306 308 308 311 312 314 315 315 316 316 316 316 314 310 311 312 313 316 319 321 319 315 314 313 313 315 318 318 318 317 316 315 315 315 314 313 314 313
301 299 300 302 303 304 304 303 303 306 309 309 309 311 315 315 315 316 316 316 313 310 310 313 318 318 318 317 313 315 315 313 314 316 318 318 317 316 316 316 315 314 314 314 314
299 300 297 299 300 302 303 305 306 306 305 305 307 309 310 312 313 314 315 315 316 312 313 313 317 317 318 318 318 320 318 317 315 315 316 316 317 316 316 316 313 312 312 313 314
297 297 299 299 299 301 302 302 303 305 303 305 306 303 304 305 306 306 308 310 313 314 315 315 314 314 320 318 317 319 318 318 317 316 317 317 317 317 317 315 314 314 314 312 313

GFSSW_925_thetae_057.txt.gz
Theta_e
317 313 312 309 309 309 309 310 310 310 311 312 312 313 313 315 316 315 315 315 314 311 311 314 315 316 317 319 317 317 320 320 321 320 319 318 319 317 317 318 318 320 319 324 325
315 312 310 309 309 309 309 309 309 309 310 311 312 312 313 315 320 317 314 313 312 311 314 315 316 315 318 319 319 319 320 320 320 319 320 318 318 318 316 317 318 318 317 323 329
314 312 310 308 308 308 308 308 308 308 309 310 311 312 314 316 317 317 312 312 312 312 314 314 315 315 316 317 318 319 320 318 317 317 317 318 317 317 317 318 318 319 319 319 328
313 312 310 308 308 307 307 307 307 307 308 308 310 311 315 319 315 315 310 311 311 312 314 314 315 315 315 316 316 316 315 316 317 317 316 317 318 317 317 319 317 318 318 318 326
313 312 310 308 308 308 308 308 308 308 308 308 309 311 317 317 317 311 310 311 311 313 314 315 315 315 315 316 315 315 315 315 316 316 316 315 317 317 318 318 316 315 315 318 321
313 313 311 309 309 309 308 308 308 308 308 308 308 311 317 315 316 312 312 312 313 313 313 314 314 315 315 316 315 316 316 316 316 316 316 316 317 316 318 318 318 316 316 317 318
314 314 312 311 309 309 309 309 309 308 308 308 308 310 313 315 316 312 312 313 312 313 314 314 313 316 316 316 316 316 315 316 316 316 316 316 316 316 316 316 317 317 316 317 317
318 318 317 316 314 311 311 309 309 309 309 308 308 313 312 313 315 312 312 312 312 312 314 313 314 316 317 315 316 316 317 317 317 316 316 316 315 317 317 316 316 317 317 317 317
319 319 319 319 320 319 318 316 308 309 309 309 312 313 312 313 316 313 312 313 313 312 311 312 315 317 316 317 317 317 315 316 318 316 317 317 318 318 316 315 316 316 317 317 317
321 321 320 320 321 321 321 317 308 308 309 310 310 311 310 313 316 313 311 312 314 314 314 315 315 315 316 317 316 316 317 317 317 317 315 317 318 317 317 317 317 318 318 319 318
322 322 322 321 321 321 321 310 311 310 311 312 310 310 311 313 314 314 312 312 313 315 315 315 314 315 315 316 316 315 316 316 316 316 316 317 317 317 317 317 317 318 318 318 318
320 321 322 322 321 321 321 311 311 314 314 311 310 309 311 314 316 315 311 316 316 317 316 315 316 316 316 317 316 316 316 316 316 316 315 316 317 317 317 317 318 318 318 318 318
314 318 320 321 321 321 321 314 313 312 313 312 311 311 311 314 315 316 313 315 316 317 316 315 315 315 315 315 316 316 316 316 316 316 316 317 317 316 317 318 317 317 318 318 318
312 314 319 320 319 320 322 320 314 311 324 320 313 313 311 314 313 312 313 315 315 316 315 315 314 314 315 315 315 315 316 316 316 316 315 316 316 315 315 316 318 318 318 318 318
307 313 316 317 319 321 320 318 314 316 327 318 313 311 312 312 312 313 310 313 316 316 315 315 315 315 315 314 315 316 315 316 316 318 318 317 317 316 316 317 317 317 319 319 319
305 306 314 316 316 317 318 316 318 326 329 319 315 315 313 311 312 312 313 312 313 315 315 315 312 315 315 313 315 315 317 317 318 318 318 316 317 316 315 316 317 317 318 318 318
302 304 307 313 317 316 315 317 324 325 321 322 317 315 316 314 313 314 314 314 314 314 314 315 314 314 313 315 314 316 316 315 318 322 319 316 318 316 315 316 316 316 317 317 316
298 300 305 308 314 314 314 319 323 322 323 317 316 315 317 315 313 314 316 316 314 314 314 315 316 315 314 316 316 316 316 316 319 319 317 315 317 316 316 317 317 316 316 317 317
298 301 303 306 310 313 316 319 320 320 319 320 317 318 317 315 315 314 314 316 316 314 314 314 314 314 313 314 315 316 318 316 319 318 316 314 315 315 316 315 315 315 315 315 316
301 301 301 303 306 313 317 318 316 315 317 319 321 320 321 317 315 315 316 315 315 314 314 314 314 312 312 312 313 314 314 316 316 327 320 314 315 316 317 316 316 317 317 317 316
300 302 301 303 309 314 317 315 313 314 316 318 318 320 321 321 318 316 316 314 313 314 314 314 313 314 312 313 314 313 314 315 315 317 319 319 316 315 316 317 317 318 317 317 316
300 301 301 307 312 313 314 313 313 313 314 315 316 317 319 319 319 320 319 318 312 312 314 314 314 316 314 313 311 314 314 314 317 318 316 317 318 314 315 316 317 317 315 316 315
300 301 301 306 307 311 310 311 312 314 314 314 315 315 316 317 320 319 318 317 313 315 316 314 317 321 317 315 312 313 314 314 315 316 322 320 317 315 316 315 316 316 317 316 315
300 301 303 305 307 305 307 308 310 309 312 314 315 314 315 316 317 318 318 316 313 316 314 314 317 321 323 320 317 315 314 314 314 318 318 318 317 316 316 317 317 317 316 316 316
300 301 302 304 304 306 304 304 306 307 309 310 313 314 315 315 315 316 315 315 314 312 311 315 316 318 319 318 317 318 316 316 316 316 318 317 317 317 317 317 317 317 317 316 315
301 300 300 302 303 304 304 303 303 304 306 307 308 308 312 313 312 312 313 314 315 315 315 314 318 317 318 318 319 319 318 317 316 316 316 316 317 316 316 317 317 317 317 316 315
298 299 301 300 301 304 304 303 304 303 304 304 305 306 308 308 307 307 307 309 311 312 315 314 314 316 318 316 316 319 319 319 319 319 318 319 318 317 317 317 316 317 317 316 316

GFSSW_925_thetae_060.txt.gz
Theta_e
318 315 314 313 309 309 309 310 310 310 311 311 312 312 313 314 316 313 318 316 314 312 312 314 315 316 317 319 318 318 319 319 321 320 319 317 318 317 315 317 318 319 319 323 327
316 316 313 311 310 310 309 309 309 309 310 310 311 312 312 315 318 319 315 312 311 311 314 315 316 316 317 320 319 318 320 320 318 317 318 317 317 315 316 316 316 317 317 326 329
315 315 313 310 308 308 308 308 308 308 308 309 310 311 313 316 321 317 314 312 312 311 315 314 315 315 317 318 319 319 319 316 316 317 316 318 316 318 315 316 315 316 315 324 329
313 313 313 311 308 308 307 307 307 307 307 308 309 310 314 318 319 315 311 311 311 312 314 314 315 315 315 316 317 316 317 316 317 317 316 317 317 317 315 317 316 314 315 322 326
312 312 312 311 310 308 308 308 308 308 308 308 308 310 317 320 319 311 310 311 311 313 315 315 314 315 315 315 315 314 315 315 316 316 316 315 315 316 315 314 315 315 315 316 323
313 313 312 311 310 309 308 308 308 308 308 308 308 310 317 317 316 312 311 312 314 313 313 314 314 314 315 316 315 315 316 316 316 316 316 315 316 316 316 314 314 313 313 313 315
313 313 312 311 310 309 309 309 309 308 308 308 308 310 314 316 317 312 312 313 313 313 314 314 314 315 316 316 316 316 315 315 315 315 316 315 315 314 313 316 316 314 312 312 313
316 316 315 315 314 312 311 311 309 309 309 308 308 313 314 313 315 312 312 312 312 313 314 313 314 316 317 315 315 316 316 316 315 315 315 316 313 315 314 312 313 313 312 312 312
318 318 318 318 318 318 318 316 312 308 309 309 313 314 314 314 315 313 313 314 313 313 312 313 316 317 315 316 316 316 313 313 317 315 316 315 316 316 315 315 313 312 311 312 312
320 319 319 319 320 320 321 320 310 308 309 310 311 312 310 315 316 313 312 313 314 314 314 315 315 316 315 314 314 316 315 314 317 315 315 315 314 314 315 314 313 313 313 312 312
320 321 321 321 321 321 321 313 314 312 312 312 311 310 312 313 314 314 312 312 314 314 314 315 313 312 313 313 314 315 314 315 315 314 316 315 314 313 313 313 313 312 312 312 312
318 321 322 322 321 321 321 314 313 315 314 311 309 310 313 315 316 314 312 314 315 315 315 314 313 314 316 316 315 316 315 314 314 315 314 314 313 313 313 313 313 313 312 312 312
312 318 321 321 321 321 322 315 313 312 315 313 312 310 312 314 315 316 313 315 316 316 316 316 315 315 316 315 316 315 315 314 315 315 314 314 313 315 314 313 312 313 313 312 312
309 314 318 318 320 321 322 320 315 311 324 318 312 313 312 314 314 312 313 314 315 316 315 315 314 314 315 315 314 314 314 315 315 315 313 316 314 313 311 311 314 313 313 312 312
306 310 316 317 319 320 319 320 316 318 326 318 312 311 312 312 312 313 310 313 315 315 314 314 314 314 315 315 314 315 315 315 316 316 317 315 315 312 312 312 313 313 313 313 314
304 306 312 315 317 318 318 317 318 324 325 318 315 315 313 312 313 312 312 312 312 315 315 314 312 314 314 313 314 314 316 316 317 316 316 314 313 311 311 313 314 316 316 314 314
299 303 306 311 315 316 317 319 323 324 320 320 317 316 315 313 314 314 314 313 314 315 315 315 314 313 313 314 314 315 315 313 318 319 313 314 312 313 313 312 313 314 313 315 313
298 298 305 307 315 315 315 321 322 322 322 317 317 317 318 315 314 314 315 314 312 312 312 313 316 314 312 315 315 314 314 315 317 320 316 311 313 314 313 315 314 314 313 314 314
298 302 301 307 310 313 318 317 321 320 320 319 317 317 318 316 315 314 314 315 314 312 313 313 314 313 312 313 314 315 316 315 315 307 312 313 312 312 313 312 312 311 311 311 312
301 302 301 305 307 313 318 317 317 317 317 319 321 320 320 317 315 314 315 314 315 314 312 314 314 312 311 312 312 313 313 314 313 314 314 311 310 312 314 313 312 314 315 315 314
301 302 302 305 308 314 316 316 315 314 316 319 320 320 320 319 315 315 316 313 313 313 313 314 314 313 311 312 313 313 312 314 313 313 316 313 311 312 313 314 314 315 315 315 314
301 301 302 307 312 313 314 313 312 313 315 317 316 318 320 320 319 319 318 317 311 312 314 314 315 313 313 311 310 311 312 313 314 315 312 314 314 312 312 314 314 315 314 314 313
300 302 303 306 309 310 310 311 313 313 313 315 316 316 316 319 321 319 318 315 312 316 318 315 317 314 316 314 311 312 312 313 312 310 314 313 313 310 312 312 314 315 314 313 314
301 301 303 305 306 307 309 309 310 310 312 313 314 313 315 316 317 318 318 316 314 315 314 315 316 318 317 320 318 314 313 313 313 313 314 313 314 313 312 311 312 312 313 313 312
301 301 302 302 302 306 307 306 308 310 310 310 313 315 315 315 315 316 316 314 313 313 314 315 316 316 317 317 317 319 319 317 317 316 315 314 313 313 313 312 312 312 313 312 312
301 300 300 302 302 302 306 304 306 307 307 309 310 312 313 314 313 314 314 314 315 313 313 314 316 315 316 316 317 317 316 316 315 315 314 315 315 313 313 312 312 312 312 312 311
298 298 301 300 301 303 303 304 303 304 305 305 307 307 307 308 307 306 307 310 311 313 315 314 313 315 316 313 314 317 315 315 315 316 315 315 314 312 313 314 314 313 312 313 313

GFSSW_925_thetae_063.txt.gz
Theta_e
317 316 314 313 312 312 310 310 310 310 310 311 311 312 312 313 315 312 318 316 314 312 314 314 315 315 317 316 316 314 312 314 317 317 316 314 316 315 314 315 316 317 319 321 329
316 316 315 312 309 309 309 309 309 309 309 310 310 311 312 314 318 320 315 313 312 311 313 314 314 314 313 316 315 312 310 315 315 314 315 315 315 314 314 314 316 315 319 325 331
316 316 314 314 311 309 309 308 308 308 308 309 309 310 312 315 321 316 315 312 311 311 314 314 314 313 315 315 316 315 314 315 315 315 314 315 315 312 313 313 312 314 320 326 331
315 314 313 312 310 309 308 307 307 307 307 308 308 309 314 319 315 315 312 312 311 311 313 314 313 313 313 314 315 315 314 314 315 315 315 315 312 315 312 313 313 312 321 325 326
313 312 312 311 310 308 308 308 308 307 308 308 308 309 317 318 318 311 310 311 311 313 314 313 313 313 312 313 313 312 313 313 314 314 314 314 314 314 314 311 311 312 318 324 325
313 312 312 311 309 308 308 308 308 308 308 308 308 310 317 316 315 311 311 311 313 313 313 313 313 312 313 313 311 314 314 313 314 314 314 314 313 314 313 311 311 310 313 319 323
314 313 313 311 310 309 309 309 308 308 308 308 308 311 313 314 316 311 312 313 313 313 312 313 313 313 313 313 314 314 313 313 313 313 314 313 309 312 310 312 311 309 308 310 316
314 313 313 313 311 310 310 310 309 309 309 308 308 313 312 314 315 312 312 312 312 313 314 313 314 314 315 313 314 314 312 312 313 312 314 311 307 309 309 309 311 309 307 307 308
317 317 317 316 316 315 316 316 315 309 309 309 314 313 312 314 314 312 313 313 312 312 312 314 315 312 314 311 311 312 310 311 315 312 314 313 310 313 311 310 309 308 308 307 306
319 319 319 319 319 319 320 319 313 308 309 309 311 308 309 314 315 312 312 313 313 311 312 313 310 311 309 308 309 313 313 312 312 313 314 314 311 310 310 311 310 309 308 307 307
320 319 320 320 320 320 320 312 309 308 312 308 309 309 312 313 314 313 312 312 312 312 311 312 309 309 309 309 310 313 313 312 313 314 314 312 311 310 310 309 308 308 308 308 308
319 320 321 321 321 321 320 316 310 311 310 309 308 310 313 314 314 313 311 312 312 311 312 309 308 309 310 311 312 314 314 312 313 313 313 311 311 309 309 311 309 309 307 307 307
315 318 320 321 321 321 321 317 312 312 311 312 309 309 310 314 314 313 311 312 313 312 313 311 313 310 314 314 314 314 313 313 313 313 311 312 309 310 311 310 309 308 308 308 308
311 315 318 320 320 321 321 321 315 312 319 317 311 311 312 312 313 312 311 313 313 314 312 314 313 313 313 314 312 314 312 312 314 311 310 311 310 310 311 309 308 308 308 308 307
309 311 314 318 318 320 319 319 318 317 318 314 311 311 311 309 311 313 310 313 312 313 311 312 312 312 313 312 311 312 313 313 314 314 315 313 310 309 309 310 309 309 309 308 308
305 310 312 315 317 317 318 317 317 319 320 316 313 313 311 311 312 311 311 311 312 313 312 312 311 312 312 312 313 312 314 313 313 312 311 312 309 307 307 309 311 311 312 313 312
298 303 310 311 315 316 317 317 321 323 317 318 316 313 312 311 313 312 312 313 311 314 314 313 312 312 312 312 312 313 309 309 312 314 311 309 310 309 309 310 312 312 310 313 312
298 299 304 308 313 314 316 319 321 318 320 315 315 314 315 312 313 313 312 312 311 311 309 313 312 312 311 312 313 313 309 309 312 316 312 309 312 312 309 308 313 312 311 309 309
299 301 300 307 313 314 317 318 320 319 318 316 315 316 316 314 312 313 312 312 311 309 310 310 311 311 311 312 311 312 314 311 312 300 309 309 309 308 310 310 309 308 310 310 311
300 300 301 305 309 314 315 315 317 316 316 315 318 315 316 314 314 312 312 311 314 309 309 312 313 310 310 311 310 311 311 313 311 309 310 309 308 310 310 310 309 312 312 311 310
300 299 301 305 309 314 313 316 315 314 315 320 320 318 316 315 312 312 313 311 311 311 309 310 312 311 311 311 312 311 312 312 311 311 312 311 309 306 308 311 311 312 312 312 310
300 298 301 307 312 313 315 312 311 312 315 316 318 318 320 316 313 313 315 314 311 311 312 312 312 310 310 309 309 309 310 311 312 312 309 311 312 310 311 312 311 311 312 311 310
298 298 303 305 309 309 310 312 312 312 314 316 316 316 316 319 321 317 316 315 312 314 314 313 314 308 312 312 310 312 311 310 310 308 312 310 312 307 307 309 308 311 312 311 312
298 298 300 302 303 305 308 309 311 310 312 312 313 313 314 318 317 319 319 313 312 315 314 314 314 313 313 316 315 314 316 314 312 311 312 312 312 311 310 309 309 309 308 311 310
298 297 298 298 299 303 305 307 308 309 310 310 311 313 313 315 316 317 317 314 313 314 314 315 317 315 314 315 317 318 317 317 317 314 315 314 314 313 312 311 311 309 309 309 309
296 296 296 298 298 301 302 304 306 307 308 309 310 312 313 314 313 314 314 314 314 313 314 312 314 316 315 314 316 317 316 315 316 315 313 312 313 311 310 310 310 309 309 310 309
298 297 296 298 299 299 299 303 303 304 305 306 306 308 307 308 307 306 307 309 310 313 315 315 313 315 316 312 314 315 313 314 314 313 313 315 313 312 312 310 312 312 310 309 307

GFSSW_925_thetae_066.txt.gz
Theta_e
316 317 317 316 316 314 310 310 310 310 311 311 311 311 312 313 314 313 317 316 313 313 314 313 314 315 316 315 314 309 312 313 316 315 316 314 315 313 312 315 315 315 317 320 335
316 316 316 315 314 311 310 310 310 309 310 310 310 311 311 314 316 317 315 315 312 311 314 313 313 313 313 315 313 310 309 312 314 313 314 314 314 313 314 314 315 315 321 324 335
316 316 316 314 314 310 309 309 309 308 309 309 309 310 311 315 319 317 315 312 311 311 313 314 313 313 314 314 315 312 311 311 314 313 313 313 313 311 310 312 312 314 321 325 331
315 316 314 314 313 311 310 308 308 307 307 308 308 309 314 319 311 315 314 312 311 312 314 313 311 312 312 314 314 315 313 312 314 314 314 313 312 312 310 311 311 309 321 326 330
315 314 313 312 310 310 309 308 308 307 307 307 308 311 317 317 317 310 311 311 311 312 313 311 312 311 311 312 311 313 312 313 313 313 313 313 313 313 312 310 310 310 322 325 329
314 313 312 312 309 308 308 308 308 308 308 308 308 311 318 313 315 311 311 311 311 313 313 312 310 311 311 312 311 312 312 313 313 313 313 313 312 313 312 309 308 311 321 322 324
314 312 312 312 310 308 308 308 308 308 308 308 308 314 313 313 315 311 311 312 312 313 311 312 312 311 311 313 313 312 311 312 312 313 313 312 308 311 309 309 310 308 312 319 321
314 313 312 312 310 309 309 309 309 309 308 308 309 313 309 315 314 311 312 312 312 313 313 312 314 312 312 311 311 311 308 309 310 311 313 309 306 307 308 307 308 308 305 307 313
314 313 313 314 313 312 312 312 313 310 308 309 312 311 311 314 312 312 312 312 312 312 312 314 314 311 311 309 309 308 307 310 311 310 313 311 309 309 310 310 310 306 305 305 305
317 317 317 317 317 318 318 317 313 308 309 309 311 306 310 312 315 312 312 312 311 310 311 311 307 309 306 306 305 310 311 311 310 312 313 313 311 309 308 309 308 307 306 305 305
319 318 318 319 319 320 319 308 304 305 311 307 308 309 312 314 313 311 312 312 311 309 309 310 308 309 308 307 308 309 311 312 312 313 313 311 309 309 308 308 306 306 306 305 306
319 319 319 320 320 320 319 311 307 308 308 308 308 311 312 314 314 312 311 311 310 309 309 308 309 308 307 308 310 312 312 312 312 312 312 311 310 308 307 307 307 307 305 305 306
315 318 320 321 321 321 320 319 312 311 308 310 308 309 311 313 312 312 310 311 310 310 310 307 309 308 311 312 312 312 311 311 311 312 309 310 306 306 309 309 309 307 306 305 305
311 314 319 320 320 320 319 316 315 312 314 314 310 309 312 312 314 311 310 312 313 310 310 312 312 309 312 312 310 312 311 311 312 310 308 308 307 307 308 307 306 305 304 304 304
310 311 315 319 318 319 318 319 318 315 310 311 310 310 310 309 311 312 310 312 312 312 311 312 311 312 312 312 310 311 312 311 312 311 313 310 309 306 307 309 307 305 305 309 308
306 309 313 316 317 316 318 318 317 318 317 315 311 312 311 311 312 310 311 310 310 312 310 311 310 311 310 311 311 310 311 309 311 308 309 309 307 305 305 307 309 311 312 311 311
300 306 311 312 315 317 318 317 320 316 314 316 315 310 310 311 312 312 312 312 312 312 313 313 312 311 310 312 312 310 307 307 308 310 309 308 308 307 307 306 309 309 310 311 309
298 300 309 312 312 315 316 317 322 315 318 314 314 311 311 311 312 312 311 312 310 307 310 312 314 312 310 311 312 310 307 308 308 311 308 308 311 311 309 307 308 308 308 307 307
299 301 303 309 312 313 317 321 321 317 316 316 314 315 315 312 312 313 310 310 309 307 308 310 309 310 310 310 311 313 312 307 309 296 308 308 307 307 307 308 308 308 309 310 309
299 300 301 307 309 311 311 316 317 315 315 314 317 315 315 312 313 311 311 311 312 308 308 308 312 310 310 310 310 310 309 313 309 306 306 306 308 308 309 308 308 311 310 309 308
299 297 302 305 308 312 311 313 314 313 315 317 316 315 314 313 311 311 312 311 310 310 308 309 311 311 310 311 311 311 312 311 310 308 309 308 307 304 307 309 310 311 311 311 310
298 297 301 307 313 313 312 314 313 314 314 317 318 318 314 313 312 312 313 311 308 308 309 309 310 309 310 308 308 309 310 310 311 310 308 309 309 309 309 309 308 309 309 311 310
297 297 303 305 312 312 312 313 312 312 316 317 318 318 316 318 316 314 314 313 310 311 312 311 311 308 312 311 310 310 309 309 308 307 310 309 310 306 306 306 307 307 307 308 309
295 298 299 303 303 307 311 312 312 311 312 313 315 314 317 319 318 319 317 313 312 315 313 312 312 310 314 313 310 311 314 313 310 309 312 311 310 309 308 309 308 307 307 310 308
295 296 298 300 303 305 306 309 311 310 311 310 311 312 315 318 319 318 316 315 313 314 314 314 313 314 313 315 316 317 317 315 316 312 311 313 313 310 310 310 310 308 307 307 308
295 295 295 297 298 303 303 305 308 309 309 310 311 311 313 313 314 317 317 315 316 313 314 312 313 315 313 314 316 317 316 315 314 314 314 313 314 310 308 307 307 307 307 307 306
298 296 295 297 297 302 302 303 304 306 306 307 308 308 311 310 307 307 308 310 312 313 314 314 312 314 312 312 313 316 314 314 314 312 314 315 313 310 310 309 309 309 306 306 305

GFSSW_925_thetae_069.txt.gz
Theta_e
316 317 317 317 318 317 317 311 311 311 311 312 311 312 312 312 314 314 315 312 315 313 313 313 314 314 316 313 312 308 311 313 314 312 315 311 314 311 311 313 314 314 319 320 336
315 316 317 317 317 315 312 312 310 310 310 311 311 311 311 313 314 315 314 315 313 312 314 313 312 313 312 314 312 309 310 312 312 311 313 312 313 311 314 314 315 314 320 322 335
315 316 317 317 315 313 311 310 310 309 309 310 310 310 311 314 318 315 315 314 311 311 313 313 313 312 314 313 313 310 310 309 313 312 312 313 313 310 310 313 311 313 319 325 331
315 315 316 315 314 313 311 310 308 308 308 308 308 309 313 319 309 315 314 312 311 312 313 312 310 310 312 313 313 314 312 310 313 313 312 311 311 312 309 310 310 310 319 326 328
315 315 315 314 313 312 309 308 308 307 307 307 308 310 317 317 316 312 313 311 310 312 312 310 310 309 311 311 311 312 311 313 312 312 312 312 312 311 310 308 309 308 321 326 330
314 314 314 312 312 311 309 308 308 307 308 308 308 311 318 311 315 310 310 311 311 312 312 311 309 309 309 310 311 309 311 312 312 312 311 312 311 312 310 308 309 314 320 322 326
314 313 312 312 311 309 308 308 308 308 308 308 308 312 313 312 314 311 310 311 312 312 310 311 311 310 309 312 311 310 311 311 311 312 312 310 308 310 308 306 308 308 316 319 323
314 312 312 312 312 310 308 308 308 308 308 308 308 313 309 315 313 311 312 312 312 313 312 312 313 310 310 309 308 309 306 307 307 310 311 307 305 306 308 307 307 305 305 312 317
314 313 312 312 311 311 310 311 312 311 308 308 311 310 309 314 311 311 311 311 312 312 312 313 311 309 308 307 307 307 305 308 308 309 312 310 309 307 309 307 307 306 304 303 305
314 313 313 314 315 314 315 316 312 308 308 311 311 306 310 314 313 311 312 311 310 310 311 310 306 307 305 303 304 309 308 309 309 311 311 311 310 308 307 308 306 305 304 303 303
315 316 317 317 317 318 318 309 304 306 310 306 307 308 310 313 312 311 311 311 310 307 309 308 308 307 308 306 305 306 309 310 311 311 312 310 309 308 307 307 305 304 304 303 304
318 316 317 318 319 319 317 306 305 307 308 307 308 311 312 313 312 310 311 310 310 308 308 308 308 307 306 307 309 310 311 311 310 311 311 310 309 307 307 307 306 306 304 303 303
317 318 318 320 320 320 319 317 312 311 307 309 307 310 311 312 311 310 309 309 308 309 308 307 308 306 309 308 309 310 309 310 310 310 308 306 305 304 305 307 307 305 304 303 303
313 317 320 320 320 320 319 316 314 312 310 311 310 308 311 311 313 310 309 310 310 309 308 308 310 308 310 311 309 311 309 309 311 308 307 306 305 305 306 305 305 303 301 301 301
310 314 318 319 319 319 319 318 316 313 309 309 309 309 309 310 310 312 310 310 311 310 309 310 311 310 311 310 309 311 310 309 310 309 311 310 308 305 304 308 305 304 306 308 306
308 310 314 316 318 317 319 319 316 316 313 313 310 311 310 310 311 310 311 309 308 311 309 310 309 310 309 310 310 308 308 307 308 306 307 308 306 303 304 306 309 308 309 307 305
305 308 311 311 316 317 318 315 318 310 312 315 312 310 310 311 312 311 311 312 311 312 312 312 311 311 310 311 311 307 306 306 306 309 307 306 307 305 305 306 306 305 306 304 304
299 306 309 311 312 316 316 317 316 312 314 312 312 309 310 311 311 311 310 312 309 307 309 312 314 311 310 310 311 308 307 307 306 307 306 307 310 308 307 306 306 306 308 307 305
299 301 306 309 312 314 317 321 315 315 315 314 311 311 312 310 311 311 311 310 310 307 309 310 309 310 310 309 310 311 308 305 306 294 306 306 305 305 305 305 308 309 308 307 306
299 300 301 309 311 310 315 318 318 315 314 313 316 313 314 311 312 311 310 309 310 307 306 308 310 309 309 309 309 309 308 311 306 304 304 304 306 306 308 309 310 309 309 308 307
299 298 301 306 311 310 312 317 314 313 313 314 315 315 313 312 311 311 311 310 309 308 308 306 310 311 310 310 310 310 310 308 308 306 307 305 305 302 306 309 308 308 308 309 308
297 296 301 306 311 306 311 311 312 314 313 317 316 315 312 311 311 310 311 310 307 306 309 308 309 310 311 308 307 309 309 308 309 309 307 308 308 305 308 307 307 308 307 307 309
298 297 302 305 311 309 310 313 313 314 315 316 317 317 316 312 314 312 311 311 307 308 309 309 309 309 313 310 309 309 308 308 307 307 309 309 309 305 305 305 306 307 308 307 307
296 300 299 303 304 309 313 313 314 312 314 315 316 315 318 318 317 317 314 312 312 313 312 311 309 310 313 312 309 310 309 308 309 309 310 309 308 308 305 307 308 307 306 305 304
294 297 297 299 305 305 308 312 313 313 312 312 313 316 318 320 319 319 316 314 313 312 313 312 311 313 314 314 314 314 312 312 309 310 310 311 307 306 307 309 308 308 305 306 305
295 295 295 297 299 305 305 307 312 310 311 312 312 313 315 315 316 318 316 316 317 314 315 311 313 313 313 314 315 316 314 313 313 314 313 314 314 310 309 307 307 306 306 305 305
297 295 295 297 297 304 305 304 306 308 307 308 310 311 313 311 310 310 313 312 314 315 315 314 313 312 316 313 315 316 313 313 312 312 313 315 312 308 309 309 309 306 303 303 302

GFSSW_925_thetae_072.txt.gz
Theta_e
316 316 317 317 318 318 319 318 311 311 311 312 312 312 312 312 312 314 314 312 312 315 314 312 314 314 315 312 310 307 310 313 312 312 314 309 313 309 310 312 313 314 317 320 333
315 316 317 318 318 318 318 314 311 311 311 312 312 311 312 312 314 314 313 312 314 313 312 312 311 313 311 313 310 309 310 312 310 309 312 309 312 310 313 313 314 314 317 321 334
314 315 316 317 317 317 314 314 311 311 310 311 311 311 311 313 318 314 312 314 313 312 313 312 312 312 313 313 312 309 310 309 312 311 311 311 312 310 310 313 311 312 316 325 331
314 315 316 316 316 316 313 313 310 310 309 309 309 309 310 317 309 314 314 314 311 311 312 311 310 311 312 312 312 313 311 309 312 312 312 312 309 311 309 312 308 308 316 325 329
314 314 315 316 316 316 313 311 309 308 308 308 308 309 315 319 316 313 313 312 310 312 312 309 310 310 311 311 311 311 310 312 311 310 310 311 312 311 309 307 307 307 320 325 329
314 314 315 315 314 314 312 309 308 308 307 307 308 310 318 313 314 310 312 311 310 312 311 309 309 308 308 309 311 309 309 311 311 311 311 311 310 311 309 306 308 313 317 322 327
314 314 314 314 313 313 311 309 308 307 308 307 308 312 313 310 313 310 310 311 311 312 309 311 309 310 308 310 309 308 310 310 310 311 311 310 308 309 308 306 309 307 311 317 321
314 314 314 312 312 312 310 308 308 308 308 308 309 314 310 315 312 311 311 311 312 311 311 311 312 308 309 307 306 308 304 307 306 310 310 306 304 305 306 307 306 305 303 307 315
314 313 312 312 312 311 309 309 309 310 308 308 310 309 308 314 311 311 311 311 311 311 312 312 309 308 307 306 305 304 305 306 307 309 311 308 308 307 307 307 308 306 303 303 304
313 313 312 312 312 312 311 313 314 309 308 312 310 307 310 313 311 311 311 311 309 309 310 308 305 307 304 303 305 307 307 307 307 309 310 310 308 307 306 307 306 304 303 302 302
313 313 312 313 314 315 317 312 306 307 309 306 307 308 310 312 311 310 311 310 307 306 309 307 306 308 308 304 303 304 306 308 309 310 311 309 308 307 307 306 305 304 303 302 302
314 314 314 316 316 318 314 304 304 307 308 307 307 311 312 312 310 310 310 309 308 307 307 307 307 306 305 306 308 308 309 310 310 310 311 309 308 307 306 306 306 305 303 302 301
316 315 315 316 318 318 317 314 311 311 306 308 308 310 312 311 311 310 308 307 307 308 307 307 307 305 307 307 308 308 308 308 309 308 306 304 303 303 304 304 305 304 302 301 301
314 317 317 319 318 319 318 316 312 311 307 309 309 307 311 311 312 310 308 309 308 308 305 307 306 306 308 307 306 308 307 307 309 307 308 305 304 304 305 304 304 302 301 303 303
310 314 318 318 318 319 318 315 314 311 311 308 308 308 309 309 310 311 309 310 308 309 307 308 308 308 310 309 307 309 308 308 308 308 310 309 306 305 302 306 307 307 305 303 302
308 310 314 317 318 318 318 317 315 312 310 312 309 310 310 310 311 309 311 307 307 310 308 310 309 309 309 308 308 307 306 305 306 304 306 307 305 304 304 306 307 305 302 303 303
305 308 311 314 316 318 318 314 315 310 310 313 310 310 309 311 312 310 311 311 310 311 311 311 311 310 309 310 309 306 305 306 306 308 306 305 306 305 305 304 305 305 305 305 303
301 307 308 310 315 317 315 315 310 309 312 311 310 308 310 311 311 311 310 311 309 307 309 311 312 311 309 310 311 306 306 307 306 305 305 307 308 306 306 302 305 307 307 304 304
299 302 305 309 312 314 317 318 312 311 313 311 309 310 310 310 311 311 310 311 309 306 309 309 308 309 309 308 310 309 307 304 305 292 304 304 304 304 303 308 307 307 306 305 304
299 299 301 308 311 310 319 316 314 314 312 310 312 310 310 309 311 310 310 309 310 306 306 308 309 309 309 308 308 308 306 309 305 302 304 303 305 303 308 310 308 308 307 306 304
299 299 300 307 309 310 319 317 314 313 314 313 314 312 310 310 309 310 310 309 308 307 306 306 310 310 309 310 309 309 309 307 306 305 305 303 304 300 309 308 307 306 307 307 305
297 297 301 306 308 302 310 311 313 313 313 315 314 312 310 309 310 310 310 308 307 307 308 307 309 311 310 307 307 308 308 306 307 307 304 305 305 305 305 306 307 307 306 305 304
298 297 301 304 309 308 308 312 313 315 315 316 317 316 312 311 312 309 309 309 306 307 309 307 308 306 311 309 307 309 307 306 305 306 308 307 306 304 304 306 307 307 307 304 303
295 299 299 303 305 308 312 313 314 313 315 315 316 315 316 316 315 313 312 312 310 309 311 309 308 308 309 310 308 310 308 307 308 308 308 307 307 307 305 306 308 306 305 304 304
293 297 297 301 304 306 311 312 314 315 313 313 314 316 318 319 318 317 314 313 313 312 312 309 309 312 313 311 309 309 308 307 308 308 309 308 307 310 307 303 307 306 305 305 304
294 295 295 297 297 306 307 311 312 312 312 312 312 315 315 318 317 317 315 315 315 313 314 311 312 312 312 313 313 315 311 309 309 311 311 312 310 307 308 306 305 306 305 304 303
295 295 295 297 298 305 307 307 311 309 309 310 311 312 314 314 312 313 312 312 313 314 315 314 311 309 310 312 313 313 312 311 311 311 310 313 310 308 309 308 307 303 301 301 301

GFSSW_925_thetae_075.txt.gz
Theta_e
315 316 316 317 317 318 319 319 319 318 318 313 318 313 314 312 312 314 314 312 313 314 314 312 314 313 313 310 308 307 313 314 314 312 314 309 313 309 309 312 313 317 317 320 333
315 316 316 316 317 317 318 318 319 319 318 312 315 312 311 311 313 315 313 311 312 314 313 312 310 311 311 311 309 310 312 314 309 309 311 309 312 310 313 313 313 313 315 322 332
315 315 315 316 317 317 318 318 318 317 317 312 312 311 312 311 318 315 312 313 313 313 312 312 313 312 313 312 311 308 312 310 310 310 309 310 311 309 311 313 312 313 314 326 330
315 314 315 316 317 317 317 317 316 313 313 311 311 310 310 315 310 313 313 313 313 312 311 311 309 311 312 313 311 312 309 309 312 310 310 311 308 310 309 312 308 308 314 326 330
315 313 315 315 316 317 317 315 313 311 310 310 309 309 313 318 318 313 313 313 311 312 311 308 310 310 311 310 310 311 310 311 309 308 309 309 311 311 309 307 306 308 319 327 330
315 313 314 315 316 316 316 313 310 309 308 308 308 310 317 314 313 311 312 311 310 312 310 309 308 308 308 309 311 308 309 310 309 310 309 311 309 311 309 305 306 310 315 322 328
314 313 314 315 315 315 314 312 309 308 308 308 308 311 313 312 313 310 311 311 310 312 309 309 309 310 307 309 307 306 309 309 309 310 310 309 308 309 307 305 308 307 310 315 322
314 313 314 314 314 314 313 311 308 308 308 308 309 313 311 314 311 310 310 310 311 311 311 310 310 307 308 306 306 306 305 309 306 309 309 306 307 304 305 306 306 305 305 304 312
313 313 313 313 313 312 312 309 309 309 308 308 310 309 309 313 310 311 311 310 310 310 311 311 308 306 306 306 306 305 307 306 305 308 310 307 306 307 307 306 307 305 304 303 303
313 313 313 313 312 312 311 310 312 310 309 311 309 309 309 313 310 310 310 310 309 308 310 307 305 306 303 305 309 307 305 306 305 308 309 309 308 306 306 306 306 305 304 303 303
314 313 312 312 312 313 314 312 306 307 308 307 307 307 308 311 310 309 310 309 307 306 308 306 308 308 307 304 303 303 304 306 307 309 310 309 307 307 306 306 306 306 304 303 303
313 312 312 312 313 315 316 304 305 307 307 307 306 310 312 310 309 309 309 309 308 307 306 306 307 306 304 304 304 305 307 309 309 309 309 308 308 307 305 306 306 305 304 303 302
313 312 312 313 315 317 314 311 309 308 306 307 308 311 312 311 309 309 308 306 306 308 306 306 306 304 306 306 307 307 306 307 309 307 305 303 304 303 303 303 302 302 301 301 300
314 314 314 314 316 316 317 313 311 309 308 308 308 308 312 309 311 309 308 307 307 307 305 306 305 305 304 306 306 309 306 306 308 307 306 304 305 304 304 303 304 304 304 303 302
314 315 315 316 316 317 317 314 312 309 311 308 307 307 309 309 309 310 309 308 307 307 306 307 305 307 306 306 304 307 306 307 306 307 308 308 306 305 302 306 308 304 303 303 302
309 315 316 316 318 317 317 313 313 312 311 310 308 310 310 310 310 309 310 306 306 308 307 309 307 307 307 306 307 305 305 304 305 304 306 306 304 304 303 305 306 304 304 305 303
306 310 314 316 316 318 316 313 313 310 308 312 309 309 309 310 311 310 310 309 309 308 309 310 310 309 308 308 307 305 305 307 308 308 306 303 305 305 304 304 304 305 306 304 303
304 307 309 313 315 317 314 312 307 309 309 309 309 308 310 310 311 310 309 310 309 307 308 310 312 310 309 308 309 305 305 307 306 306 305 306 307 306 304 303 303 306 304 304 304
302 305 306 308 313 315 315 313 310 309 312 309 308 309 310 310 311 311 310 310 308 305 307 308 307 308 308 308 309 308 306 303 305 292 304 305 304 303 306 307 306 306 305 304 303
300 301 304 308 310 313 316 312 310 310 310 308 310 308 309 309 311 310 310 308 309 306 306 308 309 308 309 308 307 306 304 308 304 303 304 301 303 304 309 309 307 306 305 304 303
298 302 302 307 308 310 316 311 314 313 311 311 310 310 308 310 309 310 310 308 307 306 305 305 309 310 309 309 309 308 307 305 305 305 306 303 303 299 306 307 307 305 305 304 303
297 302 300 306 305 303 314 313 313 313 312 315 311 311 308 308 310 310 310 308 306 306 307 306 309 311 311 307 306 307 307 306 307 306 302 304 304 304 305 304 304 304 304 302 301
297 298 300 304 307 307 305 312 313 313 313 316 316 313 309 309 310 309 308 308 305 307 308 307 309 310 312 309 307 308 306 304 303 305 306 307 305 303 304 305 305 304 303 302 302
296 300 299 302 303 307 308 312 315 312 314 315 315 315 313 311 313 309 309 310 306 306 309 308 307 308 309 308 308 309 307 305 306 308 306 306 307 306 305 306 306 306 303 302 302
294 298 297 303 304 306 310 311 313 315 313 314 315 316 315 316 315 313 312 312 312 312 309 308 309 307 312 308 307 307 307 306 307 307 308 306 307 308 307 305 305 305 303 304 302
296 296 296 296 297 306 309 311 312 313 313 314 315 314 315 316 314 315 313 313 313 312 311 309 307 310 311 312 312 311 307 307 308 306 309 304 306 306 306 302 304 305 304 303 301
294 295 296 297 299 306 308 309 311 310 311 311 312 313 315 314 311 311 311 311 312 313 313 311 309 305 305 311 311 310 310 307 308 307 308 310 308 307 306 305 304 304 303 301 300

GFSSW_925_thetae_078.txt.gz
Theta_e
316 314 316 317 317 319 319 320 322 319 317 320 318 318 316 314 313 315 317 313 312 313 313 312 313 313 314 315 314 315 321 323 319 318 318 316 318 314 314 318 322 323 322 328 335
315 314 316 317 317 318 319 319 320 321 318 315 318 318 317 313 312 316 312 312 312 314 313 313 314 315 317 316 315 319 321 322 318 317 318 317 318 317 317 318 319 320 321 332 335
315 315 316 316 316 317 318 318 318 318 318 316 313 314 317 312 316 313 312 311 311 313 313 312 314 316 317 316 315 315 320 316 313 314 315 317 316 315 317 318 318 319 320 333 335
315 315 315 315 316 317 317 318 318 318 318 315 315 315 311 314 313 312 311 312 312 312 312 312 313 315 317 317 314 316 312 314 315 313 314 317 315 316 316 317 313 316 319 331 335
315 315 314 315 316 316 317 317 317 317 316 315 316 314 311 315 318 314 313 313 313 312 312 313 313 315 316 316 314 316 313 313 312 312 313 312 315 315 315 314 311 312 319 329 334
315 315 314 315 316 316 317 317 315 314 314 314 311 312 315 313 313 313 313 313 311 311 311 312 314 313 313 315 315 313 314 313 312 312 312 314 313 313 313 311 311 313 318 324 331
315 314 314 315 315 316 316 315 314 312 310 309 309 314 316 313 312 311 312 312 310 311 310 310 310 313 313 313 310 312 314 313 313 313 313 312 312 313 312 309 312 313 315 320 328
315 314 313 314 315 315 316 314 312 311 308 308 309 314 313 313 312 310 310 310 310 310 311 310 309 310 313 310 311 312 313 315 310 312 312 310 314 308 310 310 312 312 313 313 318
315 313 313 314 314 315 315 313 312 309 308 309 312 312 312 312 309 310 310 311 310 310 310 309 310 311 310 313 314 311 314 313 308 311 312 311 314 310 310 311 312 312 312 311 312
315 313 313 314 314 314 313 312 312 312 311 311 309 312 310 314 310 310 310 310 311 311 312 312 313 312 310 313 314 313 311 309 310 312 311 313 312 312 311 311 314 314 314 313 312
314 313 313 313 313 313 313 315 311 310 312 310 310 310 310 310 309 309 309 309 310 313 314 311 314 314 313 313 310 312 310 311 309 310 312 313 313 313 313 312 314 315 314 313 312
313 313 313 313 312 312 316 310 309 309 310 307 306 312 311 309 311 309 309 312 312 312 311 312 313 313 308 307 308 310 310 312 312 310 312 312 314 314 313 312 312 312 312 311 310
314 313 313 312 312 314 314 308 307 307 309 307 309 313 312 311 311 311 310 309 311 311 311 312 310 308 308 309 310 310 311 311 313 310 309 309 311 310 306 307 307 309 308 308 309
313 312 312 312 313 314 315 310 309 308 309 308 309 310 312 311 312 309 308 310 309 311 309 310 306 309 310 310 311 311 309 311 312 313 312 309 311 312 309 309 311 311 311 310 310
313 312 312 312 314 314 313 313 311 309 312 309 308 307 310 311 311 311 308 309 310 309 309 310 307 309 310 311 309 310 309 311 311 314 313 312 311 312 307 311 312 310 310 311 310
313 313 313 315 316 314 315 313 312 313 315 310 309 311 311 311 311 310 311 308 308 310 311 310 307 309 309 307 309 308 311 311 311 313 312 312 312 311 310 309 310 309 311 310 310
308 313 314 315 317 316 315 315 315 318 309 311 310 312 312 312 312 312 312 311 311 311 310 311 311 310 309 310 309 310 312 313 313 315 312 307 310 311 307 306 308 309 311 311 310
304 311 313 314 316 317 313 316 315 313 310 310 311 312 312 311 312 311 312 311 310 310 311 312 313 311 310 311 312 313 311 314 315 312 311 307 312 312 307 306 305 310 310 310 310
303 305 308 311 313 315 316 315 313 311 312 311 311 312 312 311 312 312 312 312 312 310 311 311 310 309 308 309 311 310 310 308 309 303 314 311 310 309 309 309 310 311 311 311 310
303 303 304 307 311 314 317 314 311 309 310 310 311 311 312 312 313 313 313 312 312 309 308 310 312 309 309 309 308 310 308 311 310 319 315 308 308 312 312 312 311 311 311 309 308
301 304 303 305 310 316 317 314 313 313 309 310 310 310 310 311 312 312 313 310 311 309 307 309 314 311 310 311 312 308 309 308 310 311 318 313 310 308 312 313 313 312 311 310 309
299 305 301 304 312 310 317 313 313 314 313 315 311 310 310 311 311 312 312 311 309 308 309 309 312 315 312 308 307 307 310 310 312 311 307 310 312 306 310 312 312 311 309 309 309
298 301 301 302 310 308 309 313 314 315 314 316 314 311 309 311 311 311 311 308 307 309 309 310 314 316 313 311 308 310 309 308 308 311 312 318 312 306 308 310 310 310 308 308 307
299 302 301 300 299 307 309 314 315 313 315 315 316 314 311 309 311 311 311 310 307 308 309 310 310 314 313 312 313 312 309 307 309 313 311 311 310 310 309 310 309 309 308 308 307
298 299 298 306 305 304 309 310 315 316 314 315 316 316 314 312 312 311 313 313 311 310 309 310 315 310 310 309 311 312 311 309 309 311 311 311 309 312 311 311 310 309 308 307 306
299 298 298 298 300 306 306 308 311 314 315 317 317 316 316 315 313 314 313 314 313 312 310 309 314 312 314 311 310 311 311 310 310 311 309 309 309 310 311 310 309 308 308 308 305
294 295 299 299 300 307 308 308 310 309 311 313 315 316 317 314 312 312 312 313 313 313 311 312 313 314 315 313 314 315 313 311 311 311 310 310 310 308 310 308 310 309 309 308 304

GFSSW_925_thetae_081.txt.gz
Theta_e
315 314 316 318 318 319 320 321 318 317 317 317 314 314 313 312 311 314 314 313 313 312 313 313 314 316 317 318 319 320 322 324 322 320 321 320 320 318 318 321 323 323 324 328 335
315 315 315 316 318 318 320 320 320 316 317 318 316 315 314 315 313 315 312 316 312 312 313 314 316 316 317 318 318 320 323 323 321 320 320 320 320 319 319 320 320 322 327 332 334
315 316 314 315 317 318 319 320 321 321 316 317 320 318 316 313 316 317 315 313 311 312 313 313 315 317 317 318 319 320 323 321 318 318 319 320 319 319 319 319 319 321 326 333 333
316 315 314 315 317 317 318 319 320 321 321 319 317 318 315 315 324 316 318 311 312 313 313 313 315 317 318 318 318 318 315 317 316 316 318 319 319 318 318 318 318 319 323 331 333
316 315 314 316 316 317 317 318 318 319 318 318 315 313 315 317 316 316 320 320 317 315 313 314 315 317 317 318 317 319 315 316 315 315 317 317 318 318 318 317 315 315 321 329 331
317 315 315 315 315 316 317 318 318 318 318 318 313 314 317 315 313 314 316 315 314 313 313 314 315 316 317 317 317 317 317 316 315 315 315 317 317 316 316 316 315 316 320 325 329
318 315 315 314 315 316 317 317 317 317 317 316 316 315 314 313 312 313 313 313 313 312 313 313 314 314 316 316 314 316 317 316 315 315 315 315 315 316 314 313 315 315 318 321 326
318 316 314 314 316 316 316 317 316 315 314 314 315 316 313 312 312 311 313 312 311 311 311 312 312 314 316 313 314 316 317 317 315 315 315 313 318 317 312 312 313 315 316 319 323
318 315 314 314 315 316 316 316 315 314 314 314 316 315 312 311 311 311 311 312 311 311 310 310 313 314 313 315 315 315 317 317 313 314 315 313 316 312 313 313 313 314 315 316 317
318 315 313 314 315 315 316 314 314 314 316 315 311 312 311 313 312 311 311 311 312 312 312 312 314 314 315 316 318 316 316 315 316 313 313 315 314 313 313 314 314 314 314 315 315
317 315 313 314 315 315 314 315 315 315 313 310 310 311 310 311 310 310 310 311 312 313 314 314 315 315 314 315 316 316 315 314 313 312 314 315 315 314 314 313 315 315 316 316 316
317 314 313 314 314 314 314 312 310 310 312 310 308 311 312 311 311 311 310 312 313 314 314 314 315 314 314 311 312 314 314 313 313 312 313 315 314 314 314 314 315 315 316 315 314
316 314 313 314 314 314 314 311 308 309 309 308 309 312 312 311 312 312 311 312 313 314 314 313 314 312 312 311 312 313 313 314 313 313 313 313 313 314 312 310 310 310 312 311 312
315 313 313 313 313 314 315 310 307 307 308 309 309 312 312 312 313 311 310 312 313 313 313 313 309 311 312 312 312 312 312 313 315 314 312 313 312 314 313 311 311 313 313 313 313
314 313 313 313 312 314 313 314 310 310 317 310 309 308 313 312 312 311 310 310 312 312 312 311 309 311 313 313 312 313 312 314 315 315 314 313 312 314 311 311 314 314 314 314 314
314 313 313 311 314 313 314 313 313 313 315 310 309 312 312 312 312 311 311 310 310 310 311 311 308 311 312 310 311 311 313 314 315 315 312 314 312 313 312 312 313 313 314 313 313
313 312 312 314 314 313 314 315 315 317 311 312 310 312 312 312 313 312 312 311 311 311 311 311 309 311 310 311 311 313 313 313 312 315 313 310 312 312 310 312 312 314 314 313 313
306 312 312 313 315 314 314 314 318 312 312 310 310 312 311 312 313 312 312 311 311 311 311 312 311 311 311 311 312 313 312 314 315 315 313 309 313 313 311 309 309 313 314 313 312
305 309 311 310 315 315 316 317 314 312 312 312 311 313 312 312 313 313 312 312 312 312 311 311 313 311 310 311 312 312 312 312 312 309 316 312 312 312 310 310 311 313 313 313 312
302 305 304 307 313 316 317 315 311 311 311 311 311 311 312 312 313 312 313 312 313 311 311 311 313 311 310 310 310 311 310 310 313 321 320 312 311 313 312 311 312 314 314 313 311
300 306 301 305 311 317 318 315 312 311 310 311 312 312 311 311 311 312 312 312 312 312 309 311 314 312 311 312 312 309 310 310 311 314 323 316 311 310 314 312 313 314 313 311 311
301 305 299 304 314 316 317 313 313 313 312 313 311 311 312 312 311 312 313 312 312 311 310 311 313 314 312 310 309 310 311 311 313 313 310 316 315 307 311 313 314 314 313 312 311
301 301 299 303 313 314 314 312 313 314 313 315 312 311 310 312 312 312 313 309 311 310 311 312 316 317 313 312 309 310 310 311 311 315 315 319 312 309 312 314 314 313 312 311 311
301 304 302 299 299 311 314 315 314 315 315 316 314 311 310 311 311 312 313 310 308 310 311 311 314 317 314 312 313 312 312 310 311 314 313 313 312 311 312 314 314 312 311 311 310
299 301 300 307 305 305 313 314 314 316 316 316 317 314 311 312 311 312 313 311 309 308 310 312 317 312 312 311 313 313 313 312 311 311 312 312 311 312 312 313 313 312 312 311 310
300 299 299 302 305 306 304 311 315 314 317 317 318 316 312 313 313 313 312 312 311 311 310 311 319 314 316 311 311 313 313 313 311 311 311 311 311 311 313 313 313 312 311 311 309
296 296 300 300 305 307 308 307 309 313 315 315 316 317 317 316 315 313 312 313 312 311 311 312 314 317 316 314 314 316 313 313 312 311 312 311 312 310 313 313 313 312 311 311 309

GFSSW_925_thetae_084.txt.gz
Theta_e
316 315 314 317 318 319 322 321 319 319 319 317 315 312 312 313 313 313 314 314 314 312 313 314 314 315 316 319 319 319 321 323 324 321 320 319 319 319 318 320 322 322 326 331 334
316 315 313 316 318 318 320 322 319 319 318 317 316 314 314 312 313 314 314 312 312 312 314 313 315 316 317 319 318 319 321 323 321 320 319 318 318 317 317 320 321 324 332 334 334
317 315 314 316 317 318 319 321 320 317 318 318 315 314 316 313 316 316 313 314 312 312 315 316 314 315 317 318 318 318 321 321 317 317 318 318 318 317 317 318 318 322 331 333 333
318 316 315 315 317 318 318 320 320 317 317 319 316 314 315 316 324 319 315 315 312 312 312 316 314 315 318 318 318 319 316 317 317 316 319 319 317 318 317 317 317 319 329 332 332
318 316 316 314 315 317 318 319 320 320 317 317 317 317 315 316 319 314 319 317 313 313 318 316 314 316 318 317 317 317 316 316 315 315 316 317 317 317 315 313 313 319 328 329 330
317 317 316 314 314 317 318 318 319 320 320 319 317 315 316 318 314 317 321 320 315 312 316 315 314 315 316 316 317 317 316 315 315 315 314 317 316 315 315 312 313 316 321 327 328
317 317 315 314 315 317 317 317 318 318 318 316 315 314 315 316 313 318 320 317 315 313 314 314 314 314 316 316 316 316 315 315 315 315 314 314 315 314 313 313 312 313 316 321 326
316 317 316 315 316 316 316 317 317 317 318 316 312 314 314 312 312 317 318 320 317 312 311 312 313 313 314 313 315 316 316 316 315 314 313 314 317 314 310 310 311 311 312 317 322
314 318 316 315 315 316 316 317 317 317 316 317 314 316 312 311 312 311 315 315 314 312 311 311 311 314 313 314 314 314 316 317 314 314 314 312 316 311 312 310 310 310 311 315 318
313 317 316 315 315 316 316 316 315 314 316 316 314 316 311 311 312 311 312 312 312 311 311 311 313 314 313 313 315 315 315 315 313 313 314 312 313 310 311 312 310 309 309 311 312
315 315 316 314 315 316 316 314 315 315 315 313 313 313 310 310 311 311 311 312 312 312 312 311 312 314 313 313 315 314 314 314 313 312 314 313 314 312 311 311 312 312 309 310 310
315 315 315 314 315 316 314 314 313 312 315 311 310 312 311 311 312 311 311 312 313 313 312 312 313 313 314 313 313 313 314 314 312 312 313 313 312 312 312 311 311 312 312 311 311
314 315 315 314 315 315 314 312 311 311 312 312 309 311 312 311 312 311 311 312 313 313 313 312 314 313 312 311 312 313 314 313 314 312 313 312 310 312 311 312 310 310 310 309 310
315 316 314 315 315 315 314 312 311 309 309 309 311 310 312 312 313 311 310 311 312 313 313 313 312 312 311 311 312 312 312 313 313 311 310 310 306 311 308 308 308 309 310 309 310
314 315 313 314 314 315 314 312 311 309 312 310 310 309 313 313 312 311 309 310 312 313 313 312 311 312 313 312 311 313 312 314 314 314 312 312 309 311 308 308 309 311 311 311 311
313 315 313 314 313 313 314 312 310 314 318 310 309 312 313 312 312 310 311 310 311 311 310 310 308 311 312 310 311 312 313 313 314 314 310 312 308 309 308 308 310 311 311 311 310
308 314 314 313 313 312 314 314 312 316 312 311 310 312 313 313 313 311 311 310 310 311 312 309 310 310 310 311 311 312 310 312 312 312 313 307 310 309 309 311 309 310 311 310 310
304 314 313 312 312 313 313 312 314 312 312 309 310 312 313 313 313 311 311 310 310 309 311 311 311 309 310 311 311 311 309 313 313 315 311 307 308 309 308 307 308 311 310 310 309
301 313 311 313 313 315 313 313 311 311 312 310 312 312 312 312 312 311 311 310 310 309 310 310 313 310 310 311 310 311 311 312 309 303 312 308 309 308 307 307 310 311 310 310 309
300 310 305 307 313 315 314 312 311 310 311 311 310 312 311 312 313 312 311 311 311 310 310 310 313 311 310 310 309 310 308 309 310 307 314 309 310 309 309 307 309 311 310 309 308
300 309 301 304 313 315 315 312 312 311 311 311 312 312 310 311 311 312 312 311 311 310 309 311 314 312 310 311 310 308 308 309 310 314 316 311 307 306 310 308 310 311 310 308 307
297 305 300 305 313 314 313 311 312 311 312 312 311 311 310 310 310 311 312 311 310 309 309 312 312 312 312 310 309 309 309 309 311 310 308 314 311 308 307 308 310 311 310 308 308
298 299 299 301 311 313 313 312 313 312 312 314 312 311 311 310 310 311 311 309 309 309 309 311 314 314 313 311 309 310 309 309 309 310 309 309 308 307 309 309 311 311 309 309 308
301 306 300 300 302 311 313 313 314 315 313 315 312 310 311 311 311 312 313 310 308 310 311 311 314 314 313 311 311 311 309 308 309 311 310 310 310 309 311 311 311 310 309 309 308
299 302 298 306 305 309 312 312 313 317 316 316 315 312 311 312 312 313 313 309 309 308 309 310 311 311 310 311 311 310 309 309 309 309 309 309 308 309 309 311 311 309 309 309 308
300 301 300 302 302 308 312 313 313 314 316 317 318 314 311 311 311 312 312 311 310 310 308 309 310 310 312 311 311 312 310 310 309 309 308 308 308 308 308 310 310 310 310 310 309
297 297 301 302 304 307 307 312 312 312 315 314 316 316 315 316 313 312 311 310 310 310 309 310 310 309 307 311 310 308 311 311 310 309 309 309 309 308 309 311 311 310 310 310 308

GFSSW_925_thetae_087.txt.gz
Theta_e
318 317 316 316 315 317 322 324 322 320 319 318 317 314 314 315 313 313 314 317 316 314 312 313 313 314 315 315 317 316 317 318 319 317 318 316 317 316 316 319 320 324 324 328 335
312 318 316 316 314 317 323 322 320 319 318 318 316 313 313 314 314 314 314 316 312 313 314 314 314 313 313 316 316 314 317 319 317 314 316 315 316 315 318 319 320 331 330 332 334
313 318 316 316 315 318 322 321 319 319 318 317 316 312 313 312 314 315 314 314 312 314 315 315 314 313 314 315 315 316 317 317 316 316 315 315 315 315 316 318 319 334 332 331 331
312 318 315 315 316 318 319 322 320 318 318 318 316 314 315 313 322 317 316 314 312 313 314 315 314 313 315 316 315 316 316 316 316 315 316 316 314 314 314 315 315 331 331 331 330
312 318 315 315 316 317 318 321 320 318 318 318 315 315 315 316 318 317 317 315 314 314 314 316 317 314 315 315 315 316 315 315 314 313 315 314 315 315 313 312 316 329 331 330 330
312 316 316 315 316 317 318 320 320 317 318 318 317 315 315 319 317 316 316 316 314 316 314 315 316 314 313 315 315 314 314 313 314 313 313 314 314 314 312 310 320 328 328 329 329
311 313 316 315 315 316 317 319 319 318 318 317 317 316 316 316 314 316 317 315 314 313 314 314 313 312 312 314 314 312 313 313 313 313 314 312 314 314 311 310 312 319 323 325 328
312 313 317 315 314 316 317 318 319 319 318 317 317 314 315 313 314 318 318 316 313 313 313 312 314 311 312 312 313 314 312 314 313 313 313 312 314 312 309 309 309 310 312 320 323
310 312 317 315 315 316 317 317 318 319 317 315 314 314 313 311 313 318 318 318 315 314 313 313 312 310 312 312 313 313 312 313 314 312 312 311 312 310 308 308 308 306 307 311 318
311 313 317 315 315 316 316 317 317 317 314 314 314 314 312 311 312 314 318 319 315 314 313 313 313 311 310 309 315 312 313 312 312 311 311 310 312 308 309 307 306 305 306 311 314
310 313 317 315 315 315 316 316 315 317 316 316 314 312 311 310 312 311 315 314 313 313 315 314 316 315 310 310 312 311 312 313 311 310 312 309 309 309 308 309 308 305 304 307 310
308 314 315 315 315 315 316 313 312 312 316 311 312 311 310 311 312 311 311 314 314 315 314 313 314 312 311 310 311 312 312 311 311 311 311 310 311 310 308 308 308 308 305 307 307
310 314 315 315 315 316 314 312 312 312 311 312 311 312 311 310 312 312 311 312 314 313 314 314 313 311 312 312 311 310 311 309 310 311 311 310 308 311 310 308 307 309 307 307 306
310 315 315 315 315 315 313 312 312 309 308 310 308 309 311 310 312 310 311 311 312 313 312 312 312 312 312 311 310 310 310 311 311 308 309 306 307 306 308 308 307 306 306 306 308
309 312 315 314 316 315 312 312 311 308 310 307 309 309 310 311 311 310 310 310 312 312 311 313 311 312 311 311 309 311 311 311 310 311 308 310 305 304 306 308 306 305 306 306 306
307 311 314 315 315 315 312 311 309 312 314 310 308 311 311 311 311 309 309 308 309 311 310 309 308 310 311 310 309 309 311 311 310 309 308 308 304 304 306 308 306 307 308 308 308
304 311 314 315 315 314 313 309 311 313 309 309 309 311 311 311 311 310 311 310 311 315 313 308 310 309 309 311 310 311 308 309 309 310 308 306 306 305 307 306 307 310 308 307 307
304 307 315 313 314 313 311 310 312 309 309 308 309 311 311 312 311 311 311 311 308 310 308 310 310 309 309 310 310 309 307 308 310 312 308 305 310 309 307 305 308 309 308 307 307
305 310 314 312 312 312 310 312 309 310 310 309 310 311 312 312 311 311 311 310 309 308 311 309 311 309 309 309 309 310 310 308 307 298 308 305 306 307 306 308 309 309 308 307 306
300 305 305 312 311 311 310 311 309 309 308 309 310 310 312 312 311 311 311 310 309 308 308 309 311 310 309 309 308 308 307 309 306 307 309 307 307 306 306 305 310 309 308 307 306
299 307 301 310 311 313 311 310 308 308 309 308 309 310 309 312 310 311 311 309 309 308 308 310 312 311 309 310 308 307 306 307 309 307 309 307 306 303 307 305 309 309 308 307 306
293 304 301 308 314 312 311 308 310 309 310 309 309 309 310 311 311 311 311 310 310 307 309 311 311 312 310 309 308 308 307 307 308 308 308 308 307 307 305 304 307 309 308 306 305
297 298 300 308 313 312 311 309 312 310 311 310 310 309 309 311 311 310 310 308 308 308 310 311 311 312 312 310 309 309 308 306 308 305 308 308 306 306 307 305 308 308 307 307 306
297 304 301 304 303 312 312 310 314 313 311 312 310 309 309 310 311 311 311 309 308 308 310 311 312 311 311 308 309 310 308 307 307 307 306 306 305 307 307 308 308 308 307 306 306
296 300 297 309 308 311 310 310 314 315 314 313 312 309 310 311 313 313 311 308 308 309 309 309 310 311 309 309 309 309 309 307 308 308 308 307 306 306 308 308 309 308 307 307 307
299 300 299 301 304 310 311 311 311 315 315 316 313 311 310 311 312 313 310 310 310 308 308 308 309 308 310 310 311 309 309 309 308 307 306 306 306 304 305 307 307 309 309 308 307
297 297 299 301 304 310 311 310 311 313 313 314 314 313 313 313 310 309 309 309 308 309 308 309 308 306 307 309 308 309 309 309 308 306 308 307 308 305 306 309 309 309 309 309 308

GFSSW_925_thetae_090.txt.gz
Theta_e
315 315 318 317 316 315 314 315 319 324 324 322 320 320 319 317 317 314 317 317 315 315 313 313 313 314 314 313 315 314 315 317 318 315 317 315 315 314 315 318 323 326 327 331 334
312 314 314 317 316 315 315 315 320 325 323 321 319 318 317 316 314 314 314 318 316 313 314 313 314 313 313 314 314 314 316 318 316 314 315 314 315 315 319 320 330 329 327 334 333
311 313 313 319 316 316 315 317 323 324 322 320 317 316 315 314 314 314 313 316 314 315 315 314 316 313 314 314 314 314 317 316 316 314 314 314 313 313 316 319 328 331 332 332 331
310 312 313 317 316 316 316 321 323 321 319 318 317 314 313 314 323 315 314 316 314 314 315 317 320 322 318 315 314 315 315 314 315 314 314 314 312 314 314 314 320 329 331 332 331
312 313 313 316 316 315 317 322 320 318 318 318 316 313 313 314 316 317 315 316 314 313 315 316 322 318 324 315 314 314 314 314 313 314 314 312 313 312 313 312 327 329 330 331 331
311 311 314 317 315 315 318 320 319 318 317 318 317 313 315 318 316 316 315 315 313 314 315 316 317 315 316 314 313 314 313 313 313 313 313 313 313 313 312 316 329 330 329 329 330
310 310 313 314 315 316 318 321 319 318 318 318 316 315 315 318 316 317 316 314 314 315 315 314 314 314 312 312 312 313 313 313 312 312 314 311 314 313 310 321 330 329 327 328 329
309 310 312 312 315 317 318 320 318 318 319 318 315 315 317 315 314 316 316 314 314 315 314 315 314 313 311 310 311 313 312 313 312 312 312 312 314 312 308 319 324 325 323 326 326
309 310 309 310 315 317 317 319 318 318 317 317 315 313 314 314 317 317 315 314 314 313 314 315 314 313 312 312 312 312 312 312 313 311 310 312 312 311 307 311 316 315 317 321 323
307 311 308 309 316 316 317 319 319 318 318 316 314 313 311 314 317 318 318 315 315 314 315 316 315 317 315 312 317 314 312 312 312 311 310 310 311 308 306 307 307 307 307 310 317
306 310 310 310 315 316 317 320 321 318 314 314 314 311 311 312 316 318 315 315 315 316 319 317 319 320 318 315 310 311 312 312 311 310 310 309 310 307 307 306 304 303 304 305 310
306 308 310 310 314 316 318 319 316 315 316 311 312 311 310 312 313 317 314 315 317 319 316 318 322 317 316 312 312 310 312 312 310 310 310 308 309 308 306 306 305 305 303 304 309
305 308 308 311 315 316 317 316 314 313 313 312 311 312 309 312 312 315 312 313 316 317 318 320 320 316 315 315 314 311 310 309 310 310 310 308 309 310 308 306 307 305 304 303 307
304 308 310 315 316 316 316 314 314 311 311 311 311 311 309 310 313 311 312 313 313 316 316 317 316 317 315 316 314 312 309 309 310 308 310 307 309 305 308 307 306 306 305 304 303
304 307 313 315 315 316 313 312 311 306 315 309 308 309 309 310 310 311 311 312 315 314 313 316 315 318 316 315 313 311 309 310 309 308 308 308 305 304 305 307 306 306 304 304 304
303 306 309 315 315 315 312 311 310 311 311 309 308 310 311 310 309 309 311 309 312 313 313 312 312 313 315 313 311 309 310 308 310 308 308 307 305 304 305 306 307 305 304 304 305
303 304 308 316 315 313 311 310 312 309 307 309 309 311 311 310 310 310 312 312 313 318 316 313 311 309 310 311 309 310 310 310 311 311 311 306 304 306 306 305 305 306 305 306 307
301 303 308 314 314 312 311 311 305 307 308 307 309 310 311 310 310 309 311 313 311 311 315 316 314 309 308 312 312 310 309 309 311 311 306 305 308 307 305 305 304 305 306 306 307
302 305 307 314 313 311 311 313 309 309 308 309 310 311 310 311 309 309 310 312 311 311 313 312 312 308 308 309 309 309 309 306 307 298 307 305 305 305 306 309 308 307 308 307 306
301 300 309 314 313 312 312 311 307 308 308 310 311 310 311 312 310 310 310 310 311 309 310 308 311 310 308 308 308 308 307 310 307 310 309 305 305 306 306 307 308 308 309 307 306
298 304 305 313 313 312 313 310 308 307 309 308 309 310 309 311 309 311 310 308 311 309 309 308 311 312 309 310 309 307 307 306 308 308 309 307 306 302 306 306 309 309 307 306 305
296 304 303 308 313 311 312 308 309 308 308 308 308 308 310 310 309 310 310 308 309 307 308 310 311 313 310 308 308 307 306 307 310 308 306 307 305 303 302 303 307 307 307 305 304
298 298 302 302 310 309 311 310 310 309 309 308 308 307 309 311 310 309 309 309 309 307 310 310 311 313 311 309 308 308 307 306 306 306 308 309 306 304 304 304 304 308 306 305 304
298 304 299 305 306 310 310 310 312 310 311 309 308 307 309 310 310 309 310 309 307 309 311 310 311 311 312 310 308 310 308 306 307 307 306 306 307 306 307 305 305 306 306 305 305
297 300 298 306 308 311 309 309 313 313 312 310 309 309 309 310 311 312 310 308 308 311 309 310 312 310 310 308 308 308 309 307 308 308 308 307 304 305 305 305 307 306 305 305 305
299 300 298 301 307 311 310 309 311 314 313 314 308 308 309 310 310 311 309 310 309 308 309 306 308 309 310 309 308 308 308 307 307 306 305 304 304 302 304 305 306 307 306 307 306
296 294 297 301 308 312 311 309 310 312 312 312 309 310 310 309 309 309 309 308 308 309 309 308 308 307 308 309 309 311 308 308 308 305 306 305 307 302 305 306 307 306 307 307 306

GFSSW_925_thetae_093.txt.gz
Theta_e
316 315 316 319 319 319 316 316 317 320 325 324 322 322 321 319 319 318 317 318 315 315 313 314 313 313 314 313 314 311 314 316 317 313 315 313 314 313 315 317 322 324 327 331 332
314 313 315 316 318 318 316 316 316 319 322 325 322 321 320 317 318 315 318 319 316 315 314 313 312 312 313 313 313 313 315 316 315 312 314 313 313 314 319 325 329 327 326 332 332
314 313 311 312 314 319 316 316 315 317 322 324 322 320 319 316 314 315 317 317 316 315 315 314 314 314 315 313 314 313 316 315 315 313 313 313 313 313 317 321 325 327 331 331 333
313 310 312 313 312 316 316 316 317 316 323 323 320 319 317 315 322 315 318 316 316 314 315 315 319 320 320 316 313 314 313 313 315 314 313 313 311 316 315 316 318 325 332 332 333
313 312 312 313 312 314 317 316 317 316 323 322 318 317 315 315 315 317 315 314 315 314 315 316 322 323 324 319 314 314 313 313 313 312 312 311 313 315 314 313 324 328 332 331 333
311 311 311 312 312 316 317 316 317 319 322 319 317 314 313 318 316 316 314 315 313 314 315 318 319 318 320 320 317 312 312 312 312 313 312 313 313 313 312 322 327 330 332 331 330
310 311 309 312 312 317 317 316 318 322 320 318 317 313 315 316 316 316 314 315 313 315 315 315 314 317 315 320 313 312 312 312 312 312 313 311 313 312 310 326 328 328 329 330 330
308 309 311 311 313 317 316 317 320 319 318 317 315 315 317 316 315 316 314 314 314 315 315 314 315 314 314 313 315 314 311 313 312 311 311 312 314 312 312 327 328 327 325 326 326
307 309 311 311 312 316 316 320 319 318 318 317 314 314 314 315 316 316 314 314 314 315 315 315 315 315 316 320 319 316 314 311 313 310 311 311 313 311 308 326 328 327 326 326 326
307 308 311 311 313 315 316 320 318 318 318 315 315 313 315 316 316 315 315 314 315 316 317 317 316 318 318 320 327 323 312 311 313 311 310 311 310 309 306 318 324 325 322 323 325
306 306 310 309 311 315 318 321 320 321 315 316 316 311 313 315 316 316 315 315 316 318 321 318 321 323 320 319 313 311 312 312 311 310 310 310 311 308 306 306 310 310 312 317 322
306 306 309 307 309 314 318 320 319 317 317 313 313 309 312 316 318 317 316 318 319 322 318 320 324 321 318 317 315 315 312 312 310 310 310 309 311 308 305 306 306 309 306 309 311
305 305 308 304 310 312 318 319 315 312 313 313 312 309 311 312 316 317 315 315 319 319 320 322 322 319 319 317 317 318 313 312 313 310 309 308 310 309 308 305 306 303 303 303 305
304 305 308 306 312 314 318 315 314 312 314 313 314 311 310 311 315 314 313 313 314 320 319 320 319 318 319 319 318 320 314 310 310 312 315 308 312 306 307 307 305 304 303 302 301
303 304 308 309 314 316 317 314 313 311 320 311 311 309 309 312 312 315 312 312 315 316 315 318 320 319 319 318 316 318 309 311 311 310 308 307 306 306 304 309 307 305 303 302 300
302 304 306 308 309 316 314 312 309 313 317 311 308 310 313 309 310 311 312 310 312 314 313 313 314 317 318 315 315 310 312 311 310 309 310 310 307 307 303 306 309 307 306 303 302
302 303 305 308 314 315 313 312 312 318 309 309 309 311 313 311 311 312 314 314 317 316 317 314 315 312 314 316 315 312 315 317 318 315 313 304 305 313 304 303 305 308 306 302 303
301 302 305 307 315 313 311 314 315 308 309 307 309 311 313 310 310 312 314 315 312 311 314 317 317 314 312 317 316 314 315 314 317 316 313 304 306 307 303 303 303 303 302 302 304
301 303 305 309 312 312 312 316 315 309 307 309 310 312 311 311 310 311 313 314 312 309 312 314 314 312 310 312 314 315 316 312 308 299 307 306 305 304 304 304 307 305 304 305 305
301 301 308 310 312 311 313 315 306 306 308 309 310 310 312 312 310 310 312 311 311 310 308 309 310 310 308 310 312 312 312 310 308 311 306 303 303 309 306 305 306 306 305 305 306
299 306 305 311 310 312 314 313 307 306 308 308 308 309 309 312 309 311 311 308 310 310 310 308 310 311 309 310 315 313 311 308 309 309 310 306 306 301 305 305 305 307 306 306 306
297 306 302 306 313 313 314 309 307 307 307 306 307 307 309 310 309 311 309 308 309 310 311 308 310 310 312 308 308 309 311 309 313 308 305 308 307 303 301 302 305 306 306 304 305
298 299 300 303 310 309 313 310 308 308 307 306 307 307 307 310 310 309 308 307 307 310 308 308 309 311 314 312 308 310 307 306 306 307 310 309 307 302 303 303 302 306 305 305 304
299 303 301 303 302 309 313 311 310 308 307 307 306 307 308 310 308 309 309 307 306 306 309 310 310 311 316 314 312 309 307 305 307 308 308 307 308 305 305 304 303 305 305 305 304
297 299 297 305 304 309 312 310 310 309 309 307 307 309 310 310 308 309 308 307 306 309 310 309 309 310 310 309 311 309 309 306 306 308 308 307 306 305 304 304 304 305 304 304 305
298 299 298 300 302 309 311 311 310 312 310 309 307 308 309 309 309 309 308 308 309 307 307 306 307 310 307 309 308 311 309 309 308 307 306 305 305 304 304 304 305 305 305 306 305
296 294 298 302 303 309 310 310 310 310 311 308 306 308 308 307 307 308 307 308 307 308 308 306 306 306 310 308 309 311 309 308 309 307 308 305 307 303 304 305 305 305 306 306 306

GFSSW_925_thetae_096.txt.gz
Theta_e
318 317 317 317 316 319 319 319 317 316 317 319 324 323 323 322 320 319 318 320 318 316 317 316 313 314 313 313 313 309 314 315 316 313 317 312 315 312 314 325 323 324 325 328 333
317 316 316 317 317 317 319 319 318 316 317 319 324 323 322 321 320 317 321 321 319 315 314 313 311 312 312 313 312 312 314 316 314 311 313 312 313 312 319 325 327 326 328 330 332
314 316 316 316 315 317 318 320 319 316 316 319 324 323 322 319 316 317 321 320 319 316 314 313 313 312 315 313 313 312 316 315 315 313 312 312 313 314 318 324 323 325 329 330 331
314 315 313 313 314 315 314 314 319 316 317 320 324 322 319 316 323 317 320 320 320 315 315 314 317 317 318 319 313 314 312 313 315 313 312 311 311 315 317 317 316 322 329 330 331
311 313 314 314 313 311 313 314 319 317 316 320 323 321 317 315 316 317 316 317 318 315 315 316 320 320 322 317 315 314 313 311 310 312 312 310 312 314 314 313 321 327 330 331 330
310 311 312 312 314 313 313 313 318 316 316 320 322 320 316 320 316 316 315 316 314 314 316 318 320 319 320 318 316 313 315 311 310 310 311 312 312 314 313 324 327 330 330 331 331
310 311 311 310 312 313 312 313 318 316 317 321 321 317 315 317 316 316 315 314 314 315 316 316 316 320 317 320 313 316 319 315 312 311 312 311 313 312 311 324 328 329 329 329 331
309 309 310 310 310 312 313 313 318 316 318 321 317 315 316 315 317 316 314 314 314 315 315 315 318 315 316 314 316 324 320 322 315 311 312 312 315 312 314 325 327 326 327 328 327
307 307 308 310 311 312 313 317 317 316 319 319 315 315 315 315 315 314 314 315 315 315 315 316 317 317 319 323 325 321 330 322 322 310 310 311 314 311 314 324 325 325 323 326 327
306 307 309 310 310 312 314 317 316 317 320 316 314 315 316 317 316 314 314 315 316 316 318 318 318 319 320 328 331 326 326 314 323 313 309 311 309 309 307 323 325 325 323 324 326
305 306 307 310 310 312 314 317 318 321 317 317 316 312 315 316 315 315 315 315 316 317 321 319 324 327 325 326 324 324 325 324 311 310 311 310 311 311 306 309 321 323 324 324 325
306 306 306 310 309 312 314 318 318 319 317 314 312 312 315 316 318 315 315 318 318 318 319 321 325 323 320 322 318 318 321 322 311 309 309 310 310 309 305 306 313 320 320 322 320
305 305 305 308 309 310 313 316 317 314 315 315 310 315 316 316 318 318 316 317 319 319 320 323 322 319 321 320 318 318 320 320 313 310 308 309 311 309 307 304 305 304 310 313 318
304 304 305 307 306 307 313 313 314 312 314 316 313 311 312 314 320 315 314 315 316 321 320 322 320 320 321 321 320 322 316 314 312 312 320 308 316 311 307 307 304 305 302 304 303
303 303 305 307 308 310 314 315 314 313 320 312 313 310 310 314 316 317 312 313 317 319 319 320 321 321 321 320 318 321 313 313 313 312 310 314 308 312 304 307 307 305 303 303 302
302 303 304 307 306 309 313 311 313 314 319 313 310 313 313 311 311 315 313 311 312 315 314 314 313 319 320 318 316 313 315 315 315 316 318 317 310 313 309 305 308 307 305 304 301
302 302 303 306 306 306 313 312 314 321 309 311 313 314 312 313 316 316 315 314 317 318 318 315 317 312 316 317 314 314 319 320 321 320 321 309 308 314 308 303 307 309 308 304 302
301 301 302 304 307 306 311 315 319 312 312 308 313 314 314 313 314 316 315 316 313 311 317 319 320 314 314 318 318 316 319 320 322 319 315 303 309 313 305 302 301 302 302 302 300
300 301 302 303 306 306 313 318 317 312 307 310 314 315 313 311 313 314 315 316 314 309 316 316 317 312 312 314 315 315 319 311 309 302 310 308 306 305 303 302 303 303 302 301 300
300 301 305 304 306 306 315 316 307 306 308 312 316 314 314 312 313 312 315 314 314 309 307 311 313 312 311 312 313 316 314 318 312 311 310 306 305 313 307 305 303 304 304 304 301
299 304 304 306 307 310 313 312 307 307 310 310 309 309 311 311 309 312 314 310 311 310 309 308 309 310 310 316 318 315 317 313 313 308 310 307 306 302 307 306 305 305 305 305 302
298 305 301 307 306 303 313 309 307 308 306 306 306 306 310 310 309 310 312 310 311 310 312 309 309 310 309 307 308 312 314 314 319 312 305 308 307 303 301 300 302 303 304 304 303
299 299 300 305 308 308 312 310 308 308 305 307 307 307 309 310 311 310 308 307 309 311 311 309 309 311 313 311 308 314 310 315 312 308 311 311 310 301 303 303 302 303 305 304 304
299 300 302 302 299 308 311 311 308 307 306 305 305 307 309 310 307 310 309 307 308 310 311 310 308 310 312 311 310 310 314 308 314 314 313 310 308 308 308 304 303 302 305 304 304
297 299 297 305 303 308 313 310 309 308 306 305 306 308 308 309 309 308 307 306 307 309 309 308 308 309 310 310 310 309 310 311 310 312 311 313 308 305 305 305 303 303 305 304 305
297 297 298 299 301 308 311 311 309 309 307 306 307 307 307 308 309 307 306 307 307 306 309 305 306 310 308 308 308 310 308 310 309 308 308 308 305 303 303 303 304 305 305 305 305
295 294 297 300 302 307 310 310 308 309 310 306 306 307 307 306 306 307 307 307 307 308 307 309 306 307 307 308 309 311 310 309 309 306 310 310 309 306 303 303 304 305 305 305 305

GFSSW_925_thetae_099.txt.gz
Theta_e
315 316 318 319 319 318 319 319 320 319 317 317 317 323 323 323 323 320 319 322 322 319 318 324 319 315 313 312 312 310 316 317 317 315 318 312 314 311 315 326 323 324 326 327 332
314 315 318 318 315 315 316 317 319 320 319 317 317 321 323 322 322 319 321 322 322 318 315 313 311 311 312 313 312 313 316 318 315 311 314 313 314 313 321 325 325 325 327 330 332
313 314 316 317 317 316 316 317 319 319 319 317 316 321 323 322 318 320 320 321 322 317 314 313 314 313 314 313 312 312 317 315 315 313 312 313 312 313 320 325 323 326 328 330 332
313 312 315 317 316 317 317 316 318 318 319 318 316 321 323 322 326 319 320 321 321 320 315 314 315 314 317 315 313 315 311 311 311 310 312 312 310 315 317 318 315 322 328 330 331
312 312 315 316 315 315 315 316 316 319 320 318 317 322 320 317 318 317 316 319 321 317 315 314 317 317 319 317 313 314 314 312 310 310 311 310 312 314 315 313 318 326 329 330 330
311 310 313 314 313 313 314 314 315 316 317 319 318 322 318 322 318 317 317 319 318 315 315 315 318 319 320 317 316 314 317 314 313 310 311 312 311 312 313 321 325 329 330 330 331
310 310 310 312 313 312 313 314 314 315 316 318 319 321 318 320 318 317 317 315 314 314 316 316 318 320 318 318 313 318 321 321 321 311 312 310 313 312 311 323 327 328 330 329 330
310 309 310 311 311 312 313 313 314 313 316 317 320 318 319 316 316 316 316 314 314 315 316 316 317 315 317 314 318 323 321 326 323 313 311 311 316 313 313 324 327 327 328 331 329
310 310 310 310 310 309 312 313 313 313 318 318 319 318 318 316 315 315 314 314 315 315 316 317 319 318 320 323 326 321 328 323 323 315 312 311 314 311 313 322 324 326 327 329 329
309 308 307 308 310 310 310 313 313 314 318 319 317 317 316 318 314 314 314 315 316 317 318 319 319 322 324 325 330 327 326 322 326 319 309 311 310 309 308 321 321 324 325 327 328
307 306 306 307 308 310 312 313 316 318 318 320 317 315 316 315 314 314 315 316 316 318 321 319 325 327 327 324 325 324 326 324 315 312 318 313 311 312 308 315 320 321 324 326 327
307 306 306 306 310 311 312 313 315 317 320 316 315 315 315 315 316 315 315 317 318 322 319 321 325 324 322 325 324 324 327 328 320 312 313 318 320 311 306 306 312 320 322 323 323
307 306 305 305 309 310 312 312 316 316 320 317 314 316 316 316 317 316 315 316 318 320 322 325 323 321 323 325 327 323 327 325 323 312 309 308 312 314 307 304 304 309 317 319 322
306 305 304 304 308 308 309 311 313 312 314 317 316 317 316 316 319 315 316 316 319 320 319 322 320 322 324 325 325 324 317 315 316 319 326 310 315 317 312 308 304 306 304 311 316
305 305 304 305 306 307 306 310 313 313 320 312 314 314 316 316 317 317 313 314 319 320 319 320 321 322 324 324 321 323 316 315 315 316 318 312 314 316 309 309 308 306 304 305 307
304 303 304 305 307 309 306 313 313 315 319 312 312 314 318 318 316 314 313 312 313 318 315 315 313 319 320 318 319 315 316 316 315 318 321 319 317 318 313 310 309 308 307 306 305
303 303 303 305 306 306 308 314 315 317 308 309 312 316 317 319 317 316 315 316 319 321 321 317 318 313 316 316 314 317 321 322 321 320 323 309 315 321 315 306 308 309 307 307 305
302 302 302 302 306 305 306 311 316 311 312 310 314 316 317 317 317 316 317 319 314 313 319 321 322 316 315 316 317 318 320 322 325 320 317 306 318 317 312 316 314 304 303 304 303
300 300 300 302 303 306 304 313 315 313 309 315 314 316 316 313 317 316 316 318 315 310 317 320 318 313 315 314 315 316 321 311 313 299 308 308 308 307 304 303 302 301 302 303 302
299 299 302 301 303 304 304 309 311 310 311 314 316 314 316 313 316 316 316 314 313 309 309 313 316 313 313 314 313 315 313 319 316 322 316 311 307 315 308 306 304 303 304 304 302
300 303 303 304 305 300 306 310 307 308 313 314 314 312 313 314 312 316 316 311 311 309 307 306 311 312 313 317 318 317 318 316 315 310 314 310 311 302 310 308 305 305 304 304 304
298 303 302 305 304 302 308 308 307 310 311 307 307 309 312 311 311 313 314 310 309 309 310 308 308 314 312 308 313 313 317 314 317 315 306 308 308 304 300 303 302 302 302 303 303
299 299 301 305 306 307 309 309 309 312 309 307 307 308 310 311 313 309 310 309 308 311 310 308 308 308 313 311 308 315 313 315 311 309 314 312 319 301 302 303 302 302 302 303 304
297 301 302 302 301 307 308 309 310 310 305 305 305 309 309 310 308 309 309 306 309 311 310 307 307 308 313 311 309 311 314 314 316 318 317 314 317 312 307 304 303 302 301 303 304
295 299 297 304 303 306 307 308 311 310 307 306 308 310 308 310 307 308 306 307 308 310 310 307 307 309 309 308 308 310 312 313 316 317 318 318 315 311 309 307 304 304 303 304 305
298 299 298 299 301 306 306 308 310 308 305 306 308 309 308 310 309 307 306 306 308 306 307 304 305 308 308 307 309 310 309 312 312 314 315 314 312 307 304 301 302 305 305 304 304
295 295 295 300 303 306 307 308 309 308 307 304 307 307 306 306 305 306 308 307 307 310 311 306 306 303 301 307 310 308 308 310 312 310 311 312 313 304 304 304 303 304 304 305 304

GFSSW_925_thetae_102.txt.gz
Theta_e
315 314 314 317 319 319 320 319 320 321 320 319 319 319 322 324 323 322 323 322 322 321 320 325 323 319 313 315 315 315 323 324 323 320 321 321 321 317 321 328 329 329 327 332 335
314 314 314 315 318 320 320 319 319 320 320 318 317 317 321 324 323 321 322 322 321 322 318 320 324 320 315 316 317 320 325 323 319 318 319 321 321 319 324 328 329 329 330 334 334
313 314 314 315 317 319 319 318 319 319 320 320 317 317 320 323 322 322 322 322 322 320 318 316 319 319 316 316 319 319 325 319 315 317 315 318 319 320 322 326 325 328 331 334 334
312 313 313 314 316 318 317 315 315 318 319 320 318 317 320 322 329 321 321 321 321 319 316 316 315 316 317 318 318 321 315 316 315 313 315 317 316 319 321 321 320 325 330 332 333
312 312 311 311 315 317 316 317 316 317 317 319 319 317 321 322 323 317 318 321 321 320 316 317 317 318 319 319 317 320 315 315 313 314 314 313 316 318 319 318 319 326 331 333 333
311 311 310 312 315 316 316 317 316 316 316 318 319 317 320 324 320 318 316 321 322 319 318 316 317 319 318 319 319 320 318 318 316 315 313 315 315 315 318 320 323 330 332 333 333
310 310 310 311 315 316 315 316 316 316 316 317 319 318 320 321 319 318 318 321 318 318 319 315 318 321 319 319 316 319 321 321 321 318 314 313 318 316 316 322 325 329 331 333 332
309 310 309 309 313 314 313 312 313 315 316 317 319 319 321 319 318 318 318 317 316 315 317 316 318 318 320 316 321 322 322 325 323 319 318 318 324 320 316 322 324 327 330 333 332
309 310 309 309 312 313 313 312 313 314 314 315 316 319 321 316 316 317 317 316 315 315 316 317 319 321 319 324 326 325 328 326 326 321 324 319 323 319 313 321 322 326 330 332 332
309 309 308 310 310 311 311 312 313 313 314 314 315 320 316 319 315 315 315 316 316 318 318 320 321 323 325 327 333 329 327 326 327 322 320 326 325 316 318 316 319 322 328 331 332
308 309 309 309 310 310 310 312 314 315 314 316 319 319 317 315 315 315 315 316 317 319 322 321 324 326 325 325 326 327 327 328 326 318 323 325 326 322 320 316 316 320 324 329 330
309 308 307 307 307 309 311 312 312 314 317 313 317 318 315 315 316 315 315 318 319 322 322 323 328 325 322 323 326 326 328 329 321 316 322 327 327 326 326 324 318 317 319 324 328
308 307 306 306 307 309 311 311 313 313 316 315 317 317 316 316 317 317 316 318 320 322 322 324 322 324 326 326 326 327 329 329 327 319 316 312 323 325 323 324 324 315 315 320 325
307 306 305 305 308 309 310 310 312 314 315 316 318 317 316 316 318 315 316 318 319 323 322 322 321 324 325 328 327 327 322 323 319 323 330 318 331 329 324 324 323 315 313 317 321
307 306 305 304 307 308 308 310 311 312 320 315 316 315 316 318 316 317 315 317 319 321 320 323 324 325 326 326 327 323 318 320 319 321 320 321 322 328 324 322 322 323 317 314 316
306 306 305 306 306 308 307 309 309 313 320 312 315 318 320 318 318 317 316 314 318 320 319 319 315 322 324 324 324 316 317 317 317 320 324 327 324 329 328 323 322 321 316 314 313
304 305 304 304 305 306 308 309 311 316 308 310 315 319 318 320 318 318 318 319 322 323 323 320 321 315 318 319 318 319 323 325 325 326 330 314 326 327 325 324 321 320 318 315 314
304 304 303 304 305 306 306 306 310 313 313 309 316 319 320 319 318 319 320 321 318 319 321 323 324 318 316 321 319 320 324 325 327 326 325 313 323 323 319 320 320 313 313 314 313
303 302 301 301 304 305 305 307 313 313 311 314 318 319 320 318 318 320 319 321 319 319 322 322 321 315 316 316 318 318 324 316 317 306 317 319 317 314 313 313 308 313 317 314 311
300 299 299 301 301 303 305 304 308 308 312 315 318 318 319 317 319 320 320 318 319 315 317 319 321 314 314 314 314 319 316 321 322 329 327 323 317 320 318 317 314 310 310 313 314
299 300 301 300 302 304 307 304 308 306 311 316 316 318 317 318 319 321 320 317 316 313 314 317 318 314 314 318 318 318 319 319 319 322 325 325 322 315 313 313 313 311 308 308 309
300 303 302 303 305 304 308 305 306 307 307 313 313 316 317 318 318 318 319 317 314 311 315 310 314 317 315 310 315 318 319 319 323 321 317 317 321 308 306 305 306 308 307 307 306
300 302 301 304 305 306 307 307 308 307 307 313 311 313 315 315 318 314 316 312 314 314 314 311 314 316 314 311 310 318 318 318 318 314 318 324 323 305 306 308 307 308 308 308 307
301 304 302 303 303 306 308 309 310 307 306 309 310 313 314 313 312 312 315 311 313 315 310 310 311 317 320 317 315 316 318 318 319 320 321 320 320 318 317 313 309 307 309 310 308
299 302 300 304 303 306 308 309 310 310 306 307 311 313 313 313 311 313 312 311 312 313 311 312 314 311 311 312 313 316 318 317 319 320 321 320 320 318 317 317 317 311 308 308 308
299 300 298 301 304 306 307 307 310 308 307 310 313 312 312 313 312 313 313 313 313 312 312 308 313 312 310 311 312 313 314 318 318 319 319 319 318 316 314 310 309 308 307 308 309
295 296 300 302 304 306 307 307 309 308 308 308 312 312 312 311 310 311 310 311 311 314 312 310 311 315 316 311 312 315 314 316 316 316 318 320 318 316 314 312 313 313 310 307 308

GFSSW_925_thetae_105.txt.gz
Theta_e
313 313 312 314 316 318 320 321 321 321 320 323 321 322 323 325 324 323 324 324 323 322 325 325 327 323 323 317 318 319 325 327 326 326 325 324 325 322 324 328 328 330 327 332 336
312 312 313 314 315 317 318 320 320 321 319 322 321 320 322 324 324 324 323 323 321 321 322 325 327 326 325 317 320 322 326 326 323 322 322 323 324 323 324 327 328 330 330 335 335
311 313 314 313 313 315 317 320 320 320 320 321 320 319 320 323 324 323 323 322 322 320 322 323 326 326 328 317 321 323 327 325 320 320 318 321 323 322 324 326 325 327 331 335 334
310 312 312 313 313 314 317 320 320 319 319 320 319 318 318 322 330 322 322 322 322 322 320 321 324 322 318 322 321 324 324 323 317 316 318 319 320 322 323 324 321 324 329 334 334
311 311 312 313 313 314 317 319 319 318 319 319 320 318 320 322 323 319 318 322 322 322 320 322 326 324 323 321 325 324 322 317 316 317 316 316 318 319 321 322 320 325 330 334 334
310 311 311 313 311 314 316 318 318 316 316 319 320 318 320 324 320 320 319 323 323 323 320 320 324 327 324 321 323 322 323 318 316 320 315 319 319 317 320 320 322 327 331 333 334
310 310 311 312 310 312 316 317 316 316 316 317 317 319 320 321 320 320 318 322 323 323 322 320 320 325 324 323 319 321 323 320 320 323 324 318 324 318 319 321 322 326 330 332 334
310 310 310 310 311 313 316 317 317 316 316 316 316 319 321 319 320 320 320 322 322 322 321 321 319 320 322 319 319 322 322 326 324 322 321 322 330 324 320 320 322 324 326 331 333
309 310 309 308 310 313 316 316 316 316 316 316 317 319 321 319 319 320 321 322 319 319 318 319 318 322 321 324 326 324 329 326 326 323 323 324 328 327 318 318 320 322 325 328 331
309 309 308 307 309 312 314 314 313 313 315 315 315 317 316 319 318 319 319 320 319 319 319 319 321 324 325 329 334 330 328 326 327 325 323 325 326 326 322 320 320 319 322 326 329
308 308 308 308 309 312 313 312 313 316 314 316 314 317 317 317 319 318 318 319 320 321 324 320 322 327 328 326 327 328 327 327 326 322 326 326 326 327 326 326 324 320 320 321 327
307 308 309 308 309 310 312 313 313 313 315 314 314 316 316 317 319 318 317 320 321 324 322 323 326 322 324 326 328 328 330 329 326 321 324 326 328 326 326 327 327 324 323 320 321
307 308 308 309 310 311 311 311 311 313 316 315 315 316 316 316 319 319 317 320 322 323 324 324 322 321 323 325 328 329 331 330 329 322 321 324 328 327 326 326 326 327 326 322 319
308 308 308 308 308 310 310 311 312 312 316 312 317 315 317 316 319 317 318 319 322 324 323 322 320 323 323 324 326 329 327 328 324 328 333 324 335 330 328 328 327 328 327 326 321
308 307 307 306 306 309 309 310 311 311 315 315 316 315 316 318 317 318 317 317 322 322 323 324 321 323 327 325 324 327 325 327 326 325 324 325 326 329 326 327 328 325 326 327 323
308 306 305 307 308 307 308 310 311 313 317 317 317 319 320 317 318 317 318 316 319 321 321 322 320 321 322 323 325 319 320 320 318 323 329 330 327 329 327 327 327 325 324 326 323
307 306 306 306 307 308 309 310 310 312 310 314 317 318 319 319 318 319 319 321 322 324 324 322 324 320 321 322 321 322 326 329 329 330 332 321 329 326 325 326 325 326 324 323 324
307 306 306 305 306 307 308 308 306 310 312 309 313 318 320 318 319 319 319 322 321 321 323 325 323 322 322 323 320 324 326 325 326 326 324 319 327 325 322 322 320 322 321 318 321
305 305 304 305 306 306 308 308 308 309 312 311 313 319 319 319 318 320 320 321 321 320 323 323 324 318 321 320 320 320 326 322 320 312 323 322 321 319 319 318 317 316 317 321 317
304 303 303 303 304 306 307 305 307 308 307 310 316 318 320 318 319 320 320 320 321 320 318 319 322 315 316 317 317 322 319 323 325 330 328 322 323 323 321 321 319 318 317 316 316
301 302 301 302 304 305 306 304 304 305 305 308 316 314 319 318 318 321 321 320 319 319 317 318 320 315 317 319 320 321 322 323 323 325 327 326 322 320 318 310 312 313 311 310 310
304 303 301 302 304 305 306 303 303 303 306 306 304 313 319 319 320 321 320 321 319 319 319 317 318 319 318 311 317 320 321 322 324 324 322 323 323 310 311 311 310 310 310 310 309
303 302 301 303 305 304 304 303 305 305 307 306 309 314 317 319 320 319 320 318 319 318 318 315 318 316 315 315 314 320 320 321 319 318 323 325 321 315 315 310 310 310 309 313 311
305 302 303 303 305 304 305 305 306 306 307 306 306 305 318 318 318 319 318 318 317 316 314 314 317 319 321 320 319 320 321 320 321 322 322 322 320 315 313 313 311 311 315 313 313
305 304 302 303 304 305 305 306 307 309 308 305 308 308 317 315 317 319 314 315 315 314 312 314 318 316 316 317 319 320 321 320 321 321 322 321 321 320 319 318 318 317 317 314 312
301 302 299 304 304 303 306 307 306 306 308 309 308 310 316 316 317 319 316 317 317 314 314 313 316 313 314 315 318 320 319 320 321 321 321 321 320 317 317 316 315 315 315 314 312
297 298 304 304 305 305 306 308 308 308 308 309 309 310 317 314 314 314 313 313 316 317 317 314 315 320 317 314 314 317 318 321 320 319 320 321 319 317 317 316 315 315 314 315 312

GFSSW_925_thetae_108.txt.gz
Theta_e
314 314 314 314 313 314 319 321 323 321 319 323 323 323 324 325 324 324 325 324 324 323 324 327 326 324 328 316 318 318 324 327 327 326 325 323 324 323 323 327 327 328 330 335 335
313 313 312 313 313 312 317 320 321 322 321 320 323 322 323 324 324 324 324 324 323 322 323 326 329 325 325 319 319 322 326 327 323 320 320 323 324 323 325 326 328 328 332 336 336
312 312 312 312 312 313 314 319 320 320 320 320 322 321 322 323 324 323 324 323 323 321 321 322 328 329 330 327 322 322 323 326 320 319 318 321 323 322 324 325 325 327 333 335 336
311 311 312 312 313 314 312 317 319 319 320 320 321 321 320 322 327 322 323 323 322 321 321 321 327 327 326 328 320 321 322 325 320 317 318 319 318 322 322 322 320 323 332 333 332
311 310 311 312 312 312 311 314 318 319 320 319 321 320 319 322 322 320 319 323 322 322 322 321 324 327 325 325 325 323 322 320 316 316 316 317 318 317 317 319 319 326 331 332 332
311 309 308 310 312 313 313 313 317 319 320 319 320 319 319 323 320 321 320 324 323 323 323 321 322 325 327 325 326 326 324 320 316 317 317 320 320 316 318 318 319 327 328 332 332
311 309 307 311 310 312 313 314 317 319 318 318 319 319 319 321 320 320 320 323 323 323 323 321 320 323 326 328 324 325 326 322 316 317 322 322 327 326 318 320 321 324 327 329 332
311 309 308 310 310 312 311 315 318 318 317 314 318 319 320 319 320 320 319 322 323 323 323 321 320 321 322 321 322 321 321 324 320 319 321 324 328 327 322 319 319 320 323 328 331
310 310 308 309 310 310 311 315 317 317 315 315 316 317 319 318 319 320 319 322 323 323 323 320 320 321 321 324 323 324 328 324 324 320 321 323 325 324 324 317 318 318 319 325 328
310 309 308 309 309 310 312 313 314 316 316 316 316 318 316 318 319 320 321 322 321 322 320 320 320 323 325 325 330 328 328 327 324 323 322 321 322 322 323 317 316 317 316 320 326
310 309 309 309 309 309 312 313 313 314 314 316 317 316 317 317 319 319 320 321 320 321 324 322 324 325 324 326 326 325 326 328 325 323 324 323 323 322 322 322 321 319 316 316 320
309 308 308 308 308 309 312 313 312 312 315 314 314 315 316 317 319 319 319 321 322 324 323 324 324 321 321 326 327 328 329 327 325 320 324 324 325 324 323 323 323 324 322 316 316
308 308 308 307 307 310 312 312 312 312 313 314 315 315 316 316 319 320 319 320 322 323 324 324 321 320 321 323 329 328 329 329 327 320 320 322 325 324 324 323 323 323 323 321 317
308 307 308 307 310 311 311 311 312 313 314 313 315 315 315 316 318 317 318 319 320 325 323 323 319 321 322 322 328 331 327 328 325 326 331 322 331 326 326 325 324 324 323 324 322
308 307 308 308 307 310 310 311 312 311 313 311 315 313 314 317 317 318 317 319 323 321 324 324 320 321 322 322 325 326 326 327 326 327 325 326 328 326 324 326 326 325 324 323 323
307 308 308 307 307 309 310 311 311 311 309 313 314 316 318 316 317 318 318 318 319 322 321 322 319 320 321 320 322 320 321 320 320 324 330 328 327 328 326 325 323 323 322 321 323
308 308 307 307 308 308 309 310 310 310 309 311 316 316 316 316 317 319 321 322 321 323 325 323 321 319 320 323 321 323 326 328 330 329 331 325 327 327 323 322 322 321 320 319 319
308 307 307 307 307 308 309 308 308 307 309 310 312 315 315 316 315 315 318 321 319 320 323 323 324 321 320 323 323 324 325 324 327 326 322 319 323 324 323 321 319 319 317 318 315
307 306 306 307 308 308 307 305 304 306 307 310 311 311 317 317 318 317 316 313 320 320 322 325 325 321 321 320 321 324 327 321 319 307 319 320 319 318 317 316 315 314 313 316 316
306 305 305 306 307 307 306 306 305 306 309 309 311 312 317 317 317 318 318 315 315 320 319 319 322 318 318 319 320 321 319 324 321 322 323 320 320 320 317 315 315 315 315 312 312
303 304 304 306 305 306 306 305 306 306 307 309 310 314 312 316 317 317 319 317 314 319 319 319 319 316 318 320 321 321 323 321 321 322 324 323 319 317 314 309 310 309 308 308 308
303 303 303 303 304 304 304 304 303 306 306 305 305 306 310 312 316 319 319 318 316 317 322 320 319 318 320 312 315 319 322 321 322 322 320 319 319 310 306 307 307 307 308 309 309
300 302 303 302 303 302 304 304 303 302 303 307 306 306 308 310 314 317 317 316 317 320 321 319 319 317 317 317 315 320 319 320 320 317 320 320 318 309 307 309 308 307 309 309 309
303 302 301 302 303 302 302 304 304 304 305 306 306 306 306 307 307 313 318 317 318 319 317 316 317 318 321 320 318 321 321 320 321 319 319 319 318 313 310 310 307 307 307 313 312
305 301 298 301 301 304 302 303 303 304 305 306 306 305 306 307 308 310 318 319 318 318 317 316 317 316 315 318 318 318 320 320 321 320 320 317 318 316 311 311 312 312 313 312 311
302 301 299 300 301 302 304 302 303 303 307 306 307 306 306 308 309 310 318 319 320 314 316 315 316 313 313 317 319 319 319 320 320 319 319 318 317 315 314 314 313 314 312 312 312
298 300 300 302 300 302 302 304 304 305 306 306 306 306 307 306 307 307 312 316 316 317 316 316 311 314 317 317 317 321 319 320 319 319 319 320 318 314 314 315 315 314 312 311 310

GFSSW_925_thetae_111.txt.gz
Theta_e
314 315 314 315 315 314 315 322 323 321 320 324 324 323 324 326 325 324 324 324 324 323 325 327 325 326 323 317 321 320 320 326 327 323 323 322 322 321 322 326 326 327 330 332 334
313 314 313 314 314 315 312 318 321 323 320 322 323 323 323 324 324 324 323 324 324 323 324 327 327 324 319 321 319 326 326 326 326 317 317 322 321 322 323 325 327 334 333 334 334
313 312 312 313 314 314 313 313 320 321 322 320 323 322 322 323 323 323 322 323 324 322 321 322 328 327 329 323 321 324 328 323 318 317 316 320 321 321 321 324 325 332 334 333 334
314 313 312 311 312 314 312 311 318 320 321 321 320 322 322 322 326 321 322 323 323 323 321 322 325 325 327 325 323 321 325 326 323 316 317 317 316 320 320 321 319 331 333 333 333
314 312 311 310 311 312 312 312 316 319 320 320 320 322 321 322 321 320 320 323 323 322 321 320 327 323 325 326 326 325 325 321 319 316 316 316 316 316 315 316 320 332 333 331 332
314 312 310 309 310 312 313 312 312 317 318 319 319 321 319 322 320 320 321 324 323 322 322 320 321 323 323 322 328 328 326 324 317 315 316 318 319 318 317 314 326 333 331 329 330
314 313 310 309 308 311 312 311 311 316 318 319 319 320 319 320 320 321 320 321 322 322 322 322 320 322 323 326 322 324 326 324 317 315 317 319 321 324 317 317 323 326 330 329 329
313 313 311 309 307 311 310 312 312 315 317 318 319 319 320 319 319 320 321 322 322 323 322 322 320 319 322 319 321 325 324 327 325 315 315 320 323 323 322 318 317 321 323 330 330
313 312 311 309 308 310 310 312 314 316 317 317 318 317 320 318 319 319 320 323 323 323 323 322 320 319 319 322 320 319 322 321 322 315 318 321 324 322 321 316 314 314 318 326 329
312 312 311 310 310 309 311 311 314 316 316 315 316 316 316 319 318 319 319 322 322 322 320 319 318 320 320 321 327 324 325 322 322 320 318 321 322 320 320 316 314 313 313 320 328
311 311 310 309 309 309 310 312 313 313 314 314 316 316 315 316 318 319 320 321 319 320 323 322 323 324 322 322 322 323 324 326 323 320 320 319 319 318 318 316 313 312 313 312 324
311 311 310 309 308 309 311 311 310 310 315 313 314 315 315 317 319 318 320 322 321 323 321 323 325 320 319 323 325 325 326 324 323 320 321 322 322 321 318 319 318 318 317 314 313
312 310 309 309 308 310 312 310 310 310 312 313 312 315 314 315 316 318 319 319 323 322 323 323 322 319 320 321 325 326 326 327 325 320 320 322 323 322 320 319 319 319 319 319 316
310 310 309 308 310 310 311 311 310 311 306 313 313 313 315 313 317 316 318 318 320 324 322 322 319 320 320 321 324 327 323 326 324 324 327 322 330 325 322 322 321 321 320 321 319
309 310 308 307 307 310 310 311 310 309 312 306 313 312 313 314 314 315 318 318 320 320 323 323 321 321 321 321 320 325 324 325 324 324 326 326 327 324 322 323 322 322 321 321 319
309 309 308 307 308 309 310 311 310 311 309 309 313 315 315 314 315 316 317 316 318 319 318 320 319 319 319 318 319 319 321 321 321 325 330 328 327 327 325 323 322 321 321 320 320
309 308 307 306 308 309 310 311 313 310 302 312 315 315 313 314 315 316 318 319 318 323 323 320 321 320 317 320 320 322 325 329 331 330 328 324 326 327 322 320 320 320 318 316 315
308 307 307 306 308 309 310 310 309 298 299 310 313 313 315 314 313 315 316 316 316 317 319 322 322 321 320 318 322 323 325 324 327 327 324 318 325 325 321 321 320 317 316 315 314
307 307 307 307 309 309 308 311 305 301 308 311 310 315 314 314 313 315 314 314 314 316 319 320 323 319 319 318 319 321 326 320 317 302 316 318 316 316 316 319 317 314 313 311 311
306 306 306 307 308 307 306 305 298 306 306 307 304 306 310 315 315 315 314 312 317 318 315 318 323 320 320 319 320 320 320 324 321 318 319 317 318 318 317 317 315 314 311 310 309
305 307 306 307 307 306 306 304 304 306 306 306 308 309 308 314 315 316 315 311 311 315 318 318 320 318 318 322 323 320 323 321 320 318 319 318 317 313 315 313 310 307 306 306 306
301 304 306 307 306 302 304 302 304 306 304 304 304 306 309 309 310 316 316 313 311 315 321 320 320 320 320 314 314 319 322 321 323 321 318 317 316 310 306 306 306 305 307 306 306
301 302 305 304 302 299 302 302 302 305 304 303 303 306 306 309 309 310 311 312 312 314 318 319 315 322 319 317 315 321 319 321 317 316 320 319 317 308 305 305 305 306 306 307 307
298 302 300 302 296 301 299 301 302 301 303 304 304 305 305 307 307 307 307 308 312 314 315 316 315 318 322 320 320 322 320 320 320 319 318 319 315 312 306 307 305 306 306 306 307
297 297 295 303 296 299 300 300 302 301 303 303 304 304 304 302 307 307 307 307 309 313 314 317 316 316 317 317 319 320 321 320 321 319 319 318 317 314 310 306 306 304 304 310 308
297 298 296 291 298 300 300 297 302 301 302 303 302 304 303 303 303 301 306 310 312 315 318 317 317 317 318 317 318 320 318 319 320 320 319 317 316 313 313 311 309 309 310 310 311
298 298 296 299 296 299 299 298 300 301 301 303 304 304 304 304 303 302 305 306 308 308 310 319 315 317 320 317 318 321 319 320 319 318 319 319 317 312 312 312 310 310 311 311 309

GFSSW_925_thetae_114.txt.gz
Theta_e
315 315 315 315 314 314 315 321 323 320 322 324 324 324 326 325 326 325 324 323 323 323 324 326 327 327 325 316 320 320 321 327 328 319 320 320 321 321 321 325 328 330 330 330 333
315 315 315 314 313 313 311 315 322 323 319 323 324 323 323 325 325 324 322 322 324 323 325 327 324 323 318 319 318 323 323 326 327 318 315 320 321 321 325 325 328 333 332 332 333
314 314 315 315 312 312 312 311 319 322 321 321 323 323 323 324 322 322 321 322 323 323 324 324 326 326 326 322 321 324 326 324 320 318 316 318 321 320 322 326 326 332 332 331 333
314 313 314 314 313 312 312 311 314 320 322 319 323 322 322 322 324 319 320 321 323 322 321 325 324 326 328 321 321 325 326 328 328 319 315 317 315 319 320 321 319 327 331 332 332
314 313 313 313 313 312 312 312 311 319 321 321 321 322 322 322 320 320 320 321 323 323 321 320 325 322 327 325 324 322 323 328 328 320 314 314 316 316 315 314 321 331 331 331 332
315 314 313 311 313 312 311 311 307 316 320 321 319 321 321 323 320 320 321 323 323 322 321 320 325 322 323 325 325 325 326 326 323 316 314 316 319 319 316 316 329 332 331 330 330
314 314 314 312 312 312 311 310 310 315 319 320 319 320 320 319 319 320 321 323 323 322 321 321 319 322 321 323 323 325 328 326 326 317 315 317 318 321 316 323 331 330 328 328 329
312 313 313 312 311 310 312 313 310 313 317 318 319 319 320 319 319 321 321 323 323 322 321 321 321 319 321 320 321 325 324 324 321 316 315 317 321 319 318 315 326 327 327 328 328
312 312 312 312 310 310 312 312 309 311 315 317 318 318 320 319 319 321 320 321 322 322 321 321 320 318 319 320 319 320 324 323 324 316 316 319 321 319 318 319 315 319 324 328 328
311 312 312 312 310 310 311 310 311 312 314 316 316 316 316 318 319 319 321 320 322 321 321 319 317 319 318 319 326 321 322 321 323 320 316 320 319 318 319 318 316 311 314 323 328
312 312 312 311 309 308 310 312 312 312 314 313 314 314 315 317 318 318 320 320 319 319 324 321 323 325 322 319 320 319 321 322 321 319 317 318 320 318 318 316 315 311 310 312 324
311 312 312 311 309 307 311 310 309 309 315 312 314 314 315 318 318 317 319 319 320 322 320 323 326 320 319 320 322 322 325 323 322 320 318 319 319 318 316 315 315 313 311 310 311
311 312 312 310 308 311 311 310 309 311 312 313 313 314 314 315 316 318 318 319 321 322 322 323 321 320 319 321 323 323 323 325 324 320 319 321 322 321 318 317 316 315 315 314 313
311 312 311 309 309 311 311 309 311 309 310 312 313 313 313 313 316 315 318 319 320 323 322 322 318 321 319 321 321 322 321 324 325 323 325 320 327 322 321 320 318 319 318 318 317
311 312 311 308 308 310 310 310 310 307 308 308 311 311 312 313 312 316 318 317 319 321 322 322 321 321 322 320 320 321 320 323 324 324 325 325 326 323 321 322 321 320 320 319 318
311 311 310 308 308 309 310 309 309 309 305 311 312 313 314 313 314 314 317 315 315 317 318 319 320 319 320 318 318 318 321 320 320 324 330 325 326 323 323 322 321 319 318 318 317
311 311 309 307 308 309 310 309 312 312 301 313 313 314 313 315 314 314 317 319 318 321 320 318 319 319 318 320 317 322 323 326 328 327 323 319 323 323 320 319 321 321 319 315 314
310 310 308 307 308 310 310 310 313 300 300 310 312 313 312 312 313 313 315 318 316 315 317 316 317 318 319 321 321 321 322 321 325 324 321 320 327 324 319 320 320 318 316 314 313
309 309 306 308 309 310 310 311 310 301 307 312 312 314 311 312 312 313 313 314 314 315 318 322 321 316 317 319 318 320 323 318 316 301 315 318 317 314 314 316 318 318 315 314 311
309 307 306 308 309 310 309 309 305 304 308 309 311 312 313 313 312 312 313 312 313 313 312 315 319 318 317 317 318 320 318 323 322 320 318 316 316 320 316 317 317 315 313 311 309
307 307 307 309 308 309 310 308 303 306 305 306 305 309 311 313 313 312 313 310 311 312 313 314 316 316 319 321 321 321 322 322 320 316 320 317 316 311 316 316 317 313 309 307 304
302 306 307 307 306 306 306 303 305 305 302 304 304 306 307 310 313 312 312 310 308 312 316 315 315 315 318 316 315 319 320 321 323 322 317 316 317 311 306 308 309 307 305 304 303
303 305 307 305 304 306 302 302 303 304 303 303 304 305 306 307 308 309 313 310 309 314 315 316 318 318 320 317 316 318 320 320 320 314 319 322 319 308 304 306 305 305 305 305 306
303 306 299 301 299 303 303 302 301 302 303 302 303 304 304 307 305 306 308 307 307 310 313 315 314 317 318 319 318 320 321 320 320 321 319 318 317 313 306 306 305 305 305 305 306
296 299 299 302 298 301 301 301 301 300 302 302 303 304 303 299 304 305 306 306 306 309 312 316 318 315 315 315 318 319 321 321 322 320 320 318 318 316 309 305 304 304 305 306 307
296 298 293 298 299 301 302 299 301 301 302 303 302 303 302 301 303 303 305 305 307 310 310 313 316 317 316 315 317 317 320 320 321 321 321 318 315 314 312 306 304 304 303 306 308
296 295 298 299 295 298 297 299 301 301 301 301 301 302 302 302 301 300 301 304 306 308 312 308 311 315 317 314 316 319 317 319 319 319 319 320 318 310 312 310 306 304 304 305 308

GFSSW_925_thetae_117.txt.gz
Theta_e
315 315 316 315 317 318 320 322 323 321 320 324 326 325 325 326 325 325 324 323 323 323 322 324 327 326 321 316 318 318 319 324 326 319 317 319 322 321 321 324 330 331 329 329 335
315 315 315 315 315 316 316 318 322 323 319 323 324 325 325 325 325 324 323 323 322 323 324 326 323 323 319 319 318 320 320 323 326 316 316 315 320 322 326 326 330 332 331 331 334
316 315 314 315 315 315 314 314 319 322 321 320 323 324 324 324 323 323 322 321 322 323 324 325 325 325 324 320 321 323 323 323 321 317 314 315 320 318 323 326 325 328 330 329 330
315 315 314 315 314 314 313 312 313 321 322 319 323 323 323 323 325 319 322 321 322 322 322 326 324 327 325 323 320 327 324 326 326 325 323 316 313 319 321 321 319 323 329 330 330
314 315 314 314 314 313 312 310 310 318 322 321 322 323 322 322 319 319 320 321 323 322 321 324 325 323 327 322 322 321 320 325 327 326 316 314 314 316 314 313 323 328 329 330 331
313 313 314 314 313 314 312 311 309 313 321 322 320 322 321 323 320 319 321 321 323 322 321 321 323 321 322 325 322 322 322 325 324 321 315 316 316 319 315 315 329 329 329 328 330
313 313 314 313 313 313 312 311 310 310 319 321 319 321 320 320 319 320 320 323 323 322 320 320 320 322 319 322 322 325 327 325 326 324 319 315 317 318 315 324 329 329 327 327 329
314 313 314 313 313 311 312 311 310 308 318 320 320 320 321 320 319 320 322 323 322 322 321 321 320 318 321 319 321 325 324 326 323 323 319 316 323 317 315 324 327 328 326 326 327
315 313 313 313 313 311 311 311 310 307 316 318 319 318 320 319 320 321 321 322 322 322 321 320 320 318 318 320 320 321 323 324 324 319 320 318 319 318 315 314 319 324 325 327 327
310 314 313 313 313 312 310 311 311 310 315 316 317 316 314 318 318 320 321 321 321 320 320 320 318 320 316 319 324 321 322 321 322 320 316 318 317 315 316 317 317 314 322 325 327
309 309 313 313 313 312 310 312 310 310 313 313 314 314 315 317 318 319 319 320 318 318 323 320 323 325 321 319 320 318 320 321 320 319 318 318 320 321 318 315 315 314 311 316 324
308 311 312 313 313 311 311 309 308 307 313 312 312 314 315 317 318 317 318 318 318 322 321 322 325 321 319 319 321 322 323 323 320 319 317 318 318 316 315 315 315 315 313 311 309
308 310 312 313 312 311 310 309 308 309 310 312 313 314 315 315 316 318 317 316 318 320 321 322 320 319 319 320 322 322 323 323 323 319 317 319 320 320 317 314 314 313 314 313 312
308 306 312 312 312 310 310 309 310 308 306 313 313 313 313 312 316 316 317 317 318 320 319 320 318 320 320 321 320 323 319 321 322 324 324 319 324 319 319 319 317 317 316 314 312
307 305 312 312 311 309 309 309 309 305 308 309 313 311 311 312 312 315 316 316 319 319 318 318 319 321 321 320 319 321 319 321 322 323 323 323 325 320 318 320 318 318 317 317 315
307 307 313 311 309 308 309 309 308 308 304 312 311 313 314 312 313 316 318 315 315 317 318 318 319 318 318 317 318 317 320 320 318 321 324 321 323 320 320 320 319 317 317 317 316
304 304 312 309 309 309 309 308 311 310 300 313 313 313 313 315 313 314 318 318 319 320 320 319 319 319 319 320 317 320 321 326 327 326 321 313 321 321 318 317 317 317 317 316 314
305 309 310 308 308 309 309 309 312 298 302 309 312 312 313 313 313 313 316 318 315 314 314 320 319 318 318 320 320 321 322 322 323 323 319 316 321 319 317 317 317 316 316 313 313
305 311 308 308 309 309 309 310 305 302 303 312 312 313 313 311 312 312 312 314 314 313 314 314 316 315 315 317 318 320 324 318 319 301 313 317 317 315 313 313 315 317 317 315 314
303 308 308 308 309 308 307 307 301 302 307 311 313 311 312 313 310 312 312 310 312 313 311 314 320 317 314 316 316 319 318 323 322 323 318 316 315 319 316 315 315 316 315 313 311
307 307 308 309 308 309 307 302 302 305 305 309 308 310 311 312 309 311 311 309 310 310 312 314 315 311 318 319 319 320 320 322 321 317 319 317 316 310 314 313 315 314 312 310 308
303 306 309 308 309 307 306 302 305 304 302 304 304 305 308 310 310 310 309 308 307 310 312 312 314 310 313 316 317 317 319 320 324 320 318 315 319 309 310 307 307 309 308 305 303
306 309 308 307 308 308 305 304 304 304 303 304 305 306 306 308 310 311 309 309 308 310 311 313 314 315 310 313 314 320 320 319 319 316 319 318 320 309 303 303 304 305 303 303 304
308 309 307 302 299 306 305 303 303 302 302 301 303 303 304 307 304 310 312 308 308 309 312 313 311 311 311 308 311 316 317 318 321 323 321 319 318 314 311 306 304 303 303 303 304
300 303 301 304 300 304 301 302 303 301 302 302 303 304 303 307 303 306 307 306 306 309 312 314 316 313 313 312 314 317 315 316 319 319 321 321 318 317 314 310 306 302 303 304 305
301 303 299 300 302 303 303 302 302 301 301 302 303 302 301 303 304 304 305 305 305 307 311 312 312 314 314 314 313 315 315 317 317 317 316 318 319 316 311 308 304 303 303 303 305
293 295 300 303 303 303 297 302 301 301 300 300 302 302 302 300 299 301 301 302 304 307 308 309 310 310 308 312 311 316 314 314 316 317 319 321 318 315 313 311 309 304 302 303 303